<?xml version='1.0' encoding='UTF-8'?><gpx version="1.1" creator="JPX - https://github.com/jenetics/jpx" xmlns="http://www.topografix.com/GPX/1/1"><trk><trkseg><trkpt lat="44.18658454865724" lon="9.652027251533044"><ele>585.2</ele><time>2026-05-01T13:46:49Z</time></trkpt><trkpt lat="44.18648610030358" lon="9.652047434616676"><ele>585.4</ele><time>2026-05-01T13:46:50Z</time></trkpt><trkpt lat="44.18637965195997" lon="9.652045991866139"><ele>585.6</ele><time>2026-05-01T13:46:51Z</time></trkpt><trkpt lat="44.18629277042255" lon="9.651991126788644"><ele>585.8</ele><time>2026-05-01T13:46:52Z</time></trkpt><trkpt lat="44.18619880119025" lon="9.651987142557697"><ele>586.0</ele><time>2026-05-01T13:46:53Z</time></trkpt><trkpt lat="44.1860893366876" lon="9.651974917386534"><ele>586.0</ele><time>2026-05-01T13:46:54Z</time></trkpt><trkpt lat="44.18597063771839" lon="9.65197199456257"><ele>586.0</ele><time>2026-05-01T13:46:55Z</time></trkpt><trkpt lat="44.18585087058766" lon="9.651980198512415"><ele>586.0</ele><time>2026-05-01T13:46:56Z</time></trkpt><trkpt lat="44.18573278106847" lon="9.651998945803106"><ele>586.0</ele><time>2026-05-01T13:46:57Z</time></trkpt><trkpt lat="44.1856259025487" lon="9.652052523904334"><ele>589.2</ele><time>2026-05-01T13:46:58Z</time></trkpt><trkpt lat="44.18556662303477" lon="9.652172536042245"><ele>592.4000000000001</ele><time>2026-05-01T13:46:59Z</time></trkpt><trkpt lat="44.18547626689676" lon="9.652275926936174"><ele>595.6</ele><time>2026-05-01T13:47:00Z</time></trkpt><trkpt lat="44.185394513229106" lon="9.652342883337397"><ele>598.8000000000001</ele><time>2026-05-01T13:47:01Z</time></trkpt><trkpt lat="44.18528017191367" lon="9.652376160270155"><ele>602.0</ele><time>2026-05-01T13:47:02Z</time></trkpt><trkpt lat="44.185191796367334" lon="9.652309465462283"><ele>602.0</ele><time>2026-05-01T13:47:03Z</time></trkpt><trkpt lat="44.18505067702761" lon="9.65230042702861"><ele>602.0</ele><time>2026-05-01T13:47:04Z</time></trkpt><trkpt lat="44.18492754870307" lon="9.652321718412294"><ele>602.0</ele><time>2026-05-01T13:47:05Z</time></trkpt><trkpt lat="44.184798905789094" lon="9.652417229218672"><ele>602.0</ele><time>2026-05-01T13:47:06Z</time></trkpt><trkpt lat="44.1846763191184" lon="9.652482610011964"><ele>603.5</ele><time>2026-05-01T13:47:07Z</time></trkpt><trkpt lat="44.1845605790773" lon="9.652526069193494"><ele>605.0</ele><time>2026-05-01T13:47:08Z</time></trkpt><trkpt lat="44.18441916400812" lon="9.65257314434415"><ele>606.5</ele><time>2026-05-01T13:47:09Z</time></trkpt><trkpt lat="44.18428263895225" lon="9.652616830091386"><ele>608.0</ele><time>2026-05-01T13:47:10Z</time></trkpt><trkpt lat="44.184141697861854" lon="9.652653887019783"><ele>606.6666666666666</ele><time>2026-05-01T13:47:11Z</time></trkpt><trkpt lat="44.183998652776246" lon="9.652702073489372"><ele>605.3333333333334</ele><time>2026-05-01T13:47:12Z</time></trkpt><trkpt lat="44.18384404825447" lon="9.652782253930393"><ele>604.0</ele><time>2026-05-01T13:47:13Z</time></trkpt><trkpt lat="44.18369772059134" lon="9.652834336021392"><ele>600.0</ele><time>2026-05-01T13:47:13.999Z</time></trkpt><trkpt lat="44.183550298022354" lon="9.652941369311224"><ele>596.0</ele><time>2026-05-01T13:47:14.999Z</time></trkpt><trkpt lat="44.18341407878314" lon="9.653024493667088"><ele>592.0</ele><time>2026-05-01T13:47:15.999Z</time></trkpt><trkpt lat="44.18328326662427" lon="9.653113941968943"><ele>592.25</ele><time>2026-05-01T13:47:16.999Z</time></trkpt><trkpt lat="44.18314822182979" lon="9.65316213787522"><ele>592.5</ele><time>2026-05-01T13:47:17.999Z</time></trkpt><trkpt lat="44.18302394123068" lon="9.653182496030484"><ele>592.75</ele><time>2026-05-01T13:47:18.999Z</time></trkpt><trkpt lat="44.182908704237796" lon="9.653168795785236"><ele>593.0</ele><time>2026-05-01T13:47:19.999Z</time></trkpt><trkpt lat="44.18276940284188" lon="9.653126298996629"><ele>593.0</ele><time>2026-05-01T13:47:20.999Z</time></trkpt><trkpt lat="44.18263327271157" lon="9.653064897290495"><ele>593.0</ele><time>2026-05-01T13:47:21.999Z</time></trkpt><trkpt lat="44.18250943928425" lon="9.653019681034579"><ele>593.0</ele><time>2026-05-01T13:47:22.999Z</time></trkpt><trkpt lat="44.182357254774466" lon="9.65299472651588"><ele>593.0</ele><time>2026-05-01T13:47:23.999Z</time></trkpt><trkpt lat="44.18222539306626" lon="9.652994051764884"><ele>591.75</ele><time>2026-05-01T13:47:24.999Z</time></trkpt><trkpt lat="44.182100530472255" lon="9.653010300713113"><ele>590.5</ele><time>2026-05-01T13:47:25.999Z</time></trkpt><trkpt lat="44.18198463402946" lon="9.653035887068343"><ele>589.25</ele><time>2026-05-01T13:47:26.999Z</time></trkpt><trkpt lat="44.18186096056208" lon="9.653129888694108"><ele>588.0</ele><time>2026-05-01T13:47:27.999Z</time></trkpt><trkpt lat="44.18175117541794" lon="9.653205504355304"><ele>588.0</ele><time>2026-05-01T13:47:28.999Z</time></trkpt><trkpt lat="44.18165037729761" lon="9.653285478362408"><ele>588.0</ele><time>2026-05-01T13:47:29.999Z</time></trkpt><trkpt lat="44.181551183720075" lon="9.653351410346733"><ele>588.0</ele><time>2026-05-01T13:47:30.999Z</time></trkpt><trkpt lat="44.18144073380628" lon="9.65345744639682"><ele>588.0</ele><time>2026-05-01T13:47:31.999Z</time></trkpt><trkpt lat="44.181341069075266" lon="9.653560081859789"><ele>589.5</ele><time>2026-05-01T13:47:32.999Z</time></trkpt><trkpt lat="44.18123847048349" lon="9.65366569268381"><ele>591.0</ele><time>2026-05-01T13:47:33.999Z</time></trkpt><trkpt lat="44.181129847966986" lon="9.65376784551848"><ele>592.5</ele><time>2026-05-01T13:47:34.999Z</time></trkpt><trkpt lat="44.18102792574029" lon="9.653893029877295"><ele>594.0</ele><time>2026-05-01T13:47:35.999Z</time></trkpt><trkpt lat="44.18094869173522" lon="9.654055829774231"><ele>594.0</ele><time>2026-05-01T13:47:36.999Z</time></trkpt><trkpt lat="44.180879800956916" lon="9.654211758789863"><ele>594.0</ele><time>2026-05-01T13:47:37.999Z</time></trkpt><trkpt lat="44.18081303499034" lon="9.654321945090345"><ele>594.0</ele><time>2026-05-01T13:47:38.999Z</time></trkpt><trkpt lat="44.18073252539474" lon="9.654428433550121"><ele>594.0</ele><time>2026-05-01T13:47:39.999Z</time></trkpt><trkpt lat="44.180658288373536" lon="9.65450892053103"><ele>594.0</ele><time>2026-05-01T13:47:40.999Z</time></trkpt><trkpt lat="44.18057259104363" lon="9.654574540003004"><ele>590.25</ele><time>2026-05-01T13:47:41.999Z</time></trkpt><trkpt lat="44.180471555348674" lon="9.654637314709205"><ele>586.5</ele><time>2026-05-01T13:47:42.999Z</time></trkpt><trkpt lat="44.180352886862835" lon="9.654700764765394"><ele>582.75</ele><time>2026-05-01T13:47:43.999Z</time></trkpt><trkpt lat="44.18023349287922" lon="9.654743658132872"><ele>579.0</ele><time>2026-05-01T13:47:44.999Z</time></trkpt><trkpt lat="44.18013597544427" lon="9.654748631635922"><ele>579.0</ele><time>2026-05-01T13:47:45.999Z</time></trkpt><trkpt lat="44.18004517384208" lon="9.654688805899031"><ele>579.0</ele><time>2026-05-01T13:47:46.999Z</time></trkpt><trkpt lat="44.179882425426555" lon="9.654635488092799"><ele>579.0</ele><time>2026-05-01T13:47:47.999Z</time></trkpt><trkpt lat="44.17977023774797" lon="9.654612395452276"><ele>579.0</ele><time>2026-05-01T13:47:48.999Z</time></trkpt><trkpt lat="44.17965918150148" lon="9.654590273530667"><ele>574.5</ele><time>2026-05-01T13:47:49.999Z</time></trkpt><trkpt lat="44.17953980990453" lon="9.654534580399776"><ele>570.0</ele><time>2026-05-01T13:47:50.999Z</time></trkpt><trkpt lat="44.179419969352985" lon="9.654518321144831"><ele>565.5</ele><time>2026-05-01T13:47:51.999Z</time></trkpt><trkpt lat="44.17930456973709" lon="9.654481831291578"><ele>561.0</ele><time>2026-05-01T13:47:52.999Z</time></trkpt><trkpt lat="44.179196360694306" lon="9.654482482775931"><ele>562.2</ele><time>2026-05-01T13:47:53.999Z</time></trkpt><trkpt lat="44.17909685105891" lon="9.654441847815551"><ele>563.4000000000001</ele><time>2026-05-01T13:47:54.999Z</time></trkpt><trkpt lat="44.17900207293348" lon="9.654407498433516"><ele>564.6</ele><time>2026-05-01T13:47:55.999Z</time></trkpt><trkpt lat="44.17894560975811" lon="9.654263261710286"><ele>565.8000000000001</ele><time>2026-05-01T13:47:56.999Z</time></trkpt><trkpt lat="44.17889133615923" lon="9.654146928369828"><ele>567.0</ele><time>2026-05-01T13:47:57.999Z</time></trkpt><trkpt lat="44.17885289499679" lon="9.653979135233536"><ele>567.0</ele><time>2026-05-01T13:47:58.999Z</time></trkpt><trkpt lat="44.17870762476252" lon="9.653823473618266"><ele>567.0</ele><time>2026-05-01T13:47:59.999Z</time></trkpt><trkpt lat="44.17859802993867" lon="9.653727118707875"><ele>567.0</ele><time>2026-05-01T13:48:00.999Z</time></trkpt><trkpt lat="44.17848217496047" lon="9.65364465413571"><ele>567.0</ele><time>2026-05-01T13:48:01.999Z</time></trkpt><trkpt lat="44.1783570382382" lon="9.653537135805937"><ele>566.25</ele><time>2026-05-01T13:48:02.999Z</time></trkpt><trkpt lat="44.178194706944495" lon="9.653465578353279"><ele>565.5</ele><time>2026-05-01T13:48:03.999Z</time></trkpt><trkpt lat="44.178058816957716" lon="9.65338321702865"><ele>564.75</ele><time>2026-05-01T13:48:04.999Z</time></trkpt><trkpt lat="44.177948977569365" lon="9.653356897510262"><ele>564.0</ele><time>2026-05-01T13:48:05.999Z</time></trkpt><trkpt lat="44.17782097614075" lon="9.653345494291676"><ele>566.0</ele><time>2026-05-01T13:48:06.999Z</time></trkpt><trkpt lat="44.17769437292046" lon="9.65332880252366"><ele>568.0</ele><time>2026-05-01T13:48:07.999Z</time></trkpt><trkpt lat="44.177571242607016" lon="9.653303960815037"><ele>570.0</ele><time>2026-05-01T13:48:08.999Z</time></trkpt><trkpt lat="44.177426919418195" lon="9.653316715461658"><ele>572.0</ele><time>2026-05-01T13:48:09.999Z</time></trkpt><trkpt lat="44.177298273127036" lon="9.653296627025766"><ele>572.0</ele><time>2026-05-01T13:48:10.999Z</time></trkpt><trkpt lat="44.177175059903135" lon="9.653264500182646"><ele>572.0</ele><time>2026-05-01T13:48:11.999Z</time></trkpt><trkpt lat="44.17704662659775" lon="9.65326269912856"><ele>572.0</ele><time>2026-05-01T13:48:12.999Z</time></trkpt><trkpt lat="44.17694127302305" lon="9.653301165250932"><ele>572.0</ele><time>2026-05-01T13:48:13.999Z</time></trkpt><trkpt lat="44.17682387195212" lon="9.653246196706279"><ele>572.0</ele><time>2026-05-01T13:48:14.999Z</time></trkpt><trkpt lat="44.17671741253686" lon="9.653208395149734"><ele>572.0</ele><time>2026-05-01T13:48:15.999Z</time></trkpt><trkpt lat="44.176620470206" lon="9.653190979547597"><ele>572.0</ele><time>2026-05-01T13:48:16.999Z</time></trkpt><trkpt lat="44.17650816531809" lon="9.653200042667574"><ele>572.0</ele><time>2026-05-01T13:48:17.999Z</time></trkpt><trkpt lat="44.17640412575417" lon="9.653274708181064"><ele>572.0</ele><time>2026-05-01T13:48:18.999Z</time></trkpt><trkpt lat="44.17631661122144" lon="9.65334565314803"><ele>570.5</ele><time>2026-05-01T13:48:19.999Z</time></trkpt><trkpt lat="44.17622604207977" lon="9.653413945987237"><ele>569.0</ele><time>2026-05-01T13:48:20.999Z</time></trkpt><trkpt lat="44.17611763438078" lon="9.653500958025608"><ele>567.5</ele><time>2026-05-01T13:48:21.998Z</time></trkpt><trkpt lat="44.176025676206756" lon="9.653581436079525"><ele>566.0</ele><time>2026-05-01T13:48:22.998Z</time></trkpt><trkpt lat="44.17592731452339" lon="9.653703662669844"><ele>566.0</ele><time>2026-05-01T13:48:23.998Z</time></trkpt><trkpt lat="44.175852041798" lon="9.65378849784692"><ele>566.0</ele><time>2026-05-01T13:48:24.998Z</time></trkpt><trkpt lat="44.17575754102379" lon="9.653845785577477"><ele>566.0</ele><time>2026-05-01T13:48:25.998Z</time></trkpt><trkpt lat="44.17568071116394" lon="9.653910595511022"><ele>566.0</ele><time>2026-05-01T13:48:26.998Z</time></trkpt><trkpt lat="44.175590449819964" lon="9.653986735418268"><ele>566.0</ele><time>2026-05-01T13:48:27.998Z</time></trkpt><trkpt lat="44.175503878479404" lon="9.654059762438585"><ele>562.75</ele><time>2026-05-01T13:48:28.998Z</time></trkpt><trkpt lat="44.175414548713285" lon="9.654138661783437"><ele>559.5</ele><time>2026-05-01T13:48:29.998Z</time></trkpt><trkpt lat="44.17531683783104" lon="9.654230735474696"><ele>556.25</ele><time>2026-05-01T13:48:30.998Z</time></trkpt><trkpt lat="44.17523743741735" lon="9.654348963366369"><ele>553.0</ele><time>2026-05-01T13:48:31.998Z</time></trkpt><trkpt lat="44.175152158690224" lon="9.654457154491737"><ele>553.0</ele><time>2026-05-01T13:48:32.998Z</time></trkpt><trkpt lat="44.17506446315793" lon="9.654543539208195"><ele>553.0</ele><time>2026-05-01T13:48:33.998Z</time></trkpt><trkpt lat="44.17497681275135" lon="9.654650233005949"><ele>553.0</ele><time>2026-05-01T13:48:34.998Z</time></trkpt><trkpt lat="44.17489358370085" lon="9.6547515452392"><ele>553.0</ele><time>2026-05-01T13:48:35.998Z</time></trkpt><trkpt lat="44.174803955741424" lon="9.654861106632472"><ele>551.8</ele><time>2026-05-01T13:48:36.998Z</time></trkpt><trkpt lat="44.17471919718389" lon="9.654964824317517"><ele>550.5999999999999</ele><time>2026-05-01T13:48:38Z</time></trkpt><trkpt lat="44.17464451406881" lon="9.655056046476249"><ele>549.4000000000001</ele><time>2026-05-01T13:48:39Z</time></trkpt><trkpt lat="44.17457042984792" lon="9.655167636594756"><ele>548.2</ele><time>2026-05-01T13:48:40Z</time></trkpt><trkpt lat="44.17446402165631" lon="9.655250647448074"><ele>547.0</ele><time>2026-05-01T13:48:41Z</time></trkpt><trkpt lat="44.17436912010991" lon="9.655339788555555"><ele>547.0</ele><time>2026-05-01T13:48:42Z</time></trkpt><trkpt lat="44.17425852728263" lon="9.655440814470193"><ele>547.0</ele><time>2026-05-01T13:48:43Z</time></trkpt><trkpt lat="44.17416610306414" lon="9.655530398157532"><ele>547.0</ele><time>2026-05-01T13:48:44Z</time></trkpt><trkpt lat="44.17409757960297" lon="9.655646989798669"><ele>547.0</ele><time>2026-05-01T13:48:45Z</time></trkpt><trkpt lat="44.17402396563558" lon="9.65573693697301"><ele>547.0</ele><time>2026-05-01T13:48:46Z</time></trkpt><trkpt lat="44.17395830031065" lon="9.655818664189923"><ele>547.0</ele><time>2026-05-01T13:48:47Z</time></trkpt><trkpt lat="44.17392520315619" lon="9.655894236694142"><ele>547.0</ele><time>2026-05-01T13:48:48Z</time></trkpt><trkpt lat="44.173995146979614" lon="9.65602962312783"><ele>547.0</ele><time>2026-05-01T13:49:25.999Z</time></trkpt><trkpt lat="44.17406214285051" lon="9.65605858615852"><ele>547.0</ele><time>2026-05-01T13:49:27.999Z</time></trkpt><trkpt lat="44.17412798812239" lon="9.656107638601323"><ele>547.0</ele><time>2026-05-01T13:49:29.999Z</time></trkpt><trkpt lat="44.17419716551023" lon="9.6561445032485"><ele>548.5</ele><time>2026-05-01T13:49:31.999Z</time></trkpt><trkpt lat="44.17427788146785" lon="9.656200988071678"><ele>550.0</ele><time>2026-05-01T13:49:33.999Z</time></trkpt><trkpt lat="44.174353051840285" lon="9.656310176602382"><ele>551.5</ele><time>2026-05-01T13:49:35.999Z</time></trkpt><trkpt lat="44.17439778703427" lon="9.656380006256413"><ele>553.0</ele><time>2026-05-01T13:49:37.999Z</time></trkpt><trkpt lat="44.17444542621273" lon="9.656442102729228"><ele>554.5</ele><time>2026-05-01T13:49:50.999Z</time></trkpt><trkpt lat="44.174410922246054" lon="9.656363278128037"><ele>556.0</ele><time>2026-05-01T13:50:07.999Z</time></trkpt><trkpt lat="44.174383576629786" lon="9.656280025506284"><ele>556.0</ele><time>2026-05-01T13:50:21.999Z</time></trkpt><trkpt lat="44.17433695886628" lon="9.656195158687453"><ele>556.0</ele><time>2026-05-01T13:50:23.999Z</time></trkpt><trkpt lat="44.17425029140651" lon="9.656099560030109"><ele>556.0</ele><time>2026-05-01T13:50:25.999Z</time></trkpt><trkpt lat="44.17416684688516" lon="9.656060290701113"><ele>556.0</ele><time>2026-05-01T13:50:27.999Z</time></trkpt><trkpt lat="44.1740953389229" lon="9.656018451753628"><ele>556.0</ele><time>2026-05-01T13:50:29.999Z</time></trkpt><trkpt lat="44.174006543453004" lon="9.655960687339707"><ele>557.0</ele><time>2026-05-01T13:50:32.999Z</time></trkpt><trkpt lat="44.17394762514952" lon="9.655918782764426"><ele>558.0</ele><time>2026-05-01T13:50:35.998Z</time></trkpt><trkpt lat="44.17396162303597" lon="9.656020598700106"><ele>559.0</ele><time>2026-05-01T13:51:06Z</time></trkpt><trkpt lat="44.1738910074226" lon="9.655991631678928"><ele>560.0</ele><time>2026-05-01T13:51:13Z</time></trkpt><trkpt lat="44.17382394558112" lon="9.656033063761308"><ele>561.0</ele><time>2026-05-01T13:51:15Z</time></trkpt><trkpt lat="44.173763057827486" lon="9.656111346791343"><ele>562.0</ele><time>2026-05-01T13:51:17Z</time></trkpt><trkpt lat="44.17367774810517" lon="9.656182379427609"><ele>562.0</ele><time>2026-05-01T13:51:19Z</time></trkpt><trkpt lat="44.17358746941569" lon="9.656264793849605"><ele>562.0</ele><time>2026-05-01T13:51:21Z</time></trkpt><trkpt lat="44.173536005450075" lon="9.656319444166847"><ele>562.0</ele><time>2026-05-01T13:51:22Z</time></trkpt><trkpt lat="44.17346088143301" lon="9.656232414337161"><ele>562.0</ele><time>2026-05-01T13:51:23Z</time></trkpt><trkpt lat="44.17336790810907" lon="9.65623041531338"><ele>562.0</ele><time>2026-05-01T13:51:25Z</time></trkpt><trkpt lat="44.17325301532295" lon="9.656225901770842"><ele>560.0</ele><time>2026-05-01T13:51:27Z</time></trkpt><trkpt lat="44.17313711048016" lon="9.656218321851737"><ele>558.0</ele><time>2026-05-01T13:51:29Z</time></trkpt><trkpt lat="44.17305463444308" lon="9.656214256596833"><ele>556.0</ele><time>2026-05-01T13:51:30.999Z</time></trkpt><trkpt lat="44.172930385608346" lon="9.656220331447225"><ele>554.0</ele><time>2026-05-01T13:51:32.999Z</time></trkpt><trkpt lat="44.17280920911092" lon="9.656213454265888"><ele>552.0</ele><time>2026-05-01T13:51:34.999Z</time></trkpt><trkpt lat="44.17273404860006" lon="9.656223472804127"><ele>552.0</ele><time>2026-05-01T13:51:35.999Z</time></trkpt><trkpt lat="44.17265841119828" lon="9.65625816307016"><ele>552.0</ele><time>2026-05-01T13:51:36.999Z</time></trkpt><trkpt lat="44.172581806067036" lon="9.65629377661654"><ele>552.0</ele><time>2026-05-01T13:51:37.999Z</time></trkpt><trkpt lat="44.17251265361621" lon="9.656324490430482"><ele>552.0</ele><time>2026-05-01T13:51:38.999Z</time></trkpt><trkpt lat="44.17243706979569" lon="9.656361367898501"><ele>552.0</ele><time>2026-05-01T13:51:39.999Z</time></trkpt><trkpt lat="44.17236374923733" lon="9.656408772996269"><ele>552.0</ele><time>2026-05-01T13:51:40.999Z</time></trkpt><trkpt lat="44.17229275749344" lon="9.656468105086788"><ele>550.3333333333334</ele><time>2026-05-01T13:51:41.999Z</time></trkpt><trkpt lat="44.172216420081284" lon="9.656537541788216"><ele>548.6666666666666</ele><time>2026-05-01T13:51:42.999Z</time></trkpt><trkpt lat="44.17214332261854" lon="9.656592659600241"><ele>547.0</ele><time>2026-05-01T13:51:43.999Z</time></trkpt><trkpt lat="44.172066938979626" lon="9.656644970552035"><ele>545.3333333333333</ele><time>2026-05-01T13:51:44.999Z</time></trkpt><trkpt lat="44.17199524191465" lon="9.65669268143824"><ele>543.6666666666666</ele><time>2026-05-01T13:51:45.999Z</time></trkpt><trkpt lat="44.17191715430454" lon="9.656744644897435"><ele>542.0</ele><time>2026-05-01T13:51:46.999Z</time></trkpt><trkpt lat="44.171842796456495" lon="9.65679412637152"><ele>542.0</ele><time>2026-05-01T13:51:47.999Z</time></trkpt><trkpt lat="44.17177756524487" lon="9.656842295014192"><ele>542.0</ele><time>2026-05-01T13:51:48.999Z</time></trkpt><trkpt lat="44.17172021958013" lon="9.656894083235311"><ele>542.0</ele><time>2026-05-01T13:51:49.999Z</time></trkpt><trkpt lat="44.171652584702905" lon="9.65697804827098"><ele>542.0</ele><time>2026-05-01T13:51:50.999Z</time></trkpt><trkpt lat="44.171586156694914" lon="9.657040245281808"><ele>542.0</ele><time>2026-05-01T13:51:51.999Z</time></trkpt><trkpt lat="44.171524557844585" lon="9.657107338654853"><ele>542.0</ele><time>2026-05-01T13:51:52.999Z</time></trkpt><trkpt lat="44.17146977673183" lon="9.657177422473826"><ele>544.8333333333333</ele><time>2026-05-01T13:51:53.999Z</time></trkpt><trkpt lat="44.17142586347228" lon="9.657245860010967"><ele>547.6666666666666</ele><time>2026-05-01T13:51:54.999Z</time></trkpt><trkpt lat="44.17137075764494" lon="9.657309770894793"><ele>550.5</ele><time>2026-05-01T13:51:55.999Z</time></trkpt><trkpt lat="44.171291274690475" lon="9.657379440512724"><ele>553.3333333333334</ele><time>2026-05-01T13:51:56.999Z</time></trkpt><trkpt lat="44.17122804365907" lon="9.657429753934082"><ele>556.1666666666667</ele><time>2026-05-01T13:51:57.999Z</time></trkpt><trkpt lat="44.17115401665733" lon="9.657491053920937"><ele>559.0</ele><time>2026-05-01T13:51:58.999Z</time></trkpt><trkpt lat="44.17108772159441" lon="9.657545950990755"><ele>559.0</ele><time>2026-05-01T13:51:59.999Z</time></trkpt><trkpt lat="44.171018563009" lon="9.65759954833782"><ele>559.0</ele><time>2026-05-01T13:52:00.999Z</time></trkpt><trkpt lat="44.1709478710692" lon="9.657642939727568"><ele>559.0</ele><time>2026-05-01T13:52:01.999Z</time></trkpt><trkpt lat="44.17088197464003" lon="9.65766448794142"><ele>559.0</ele><time>2026-05-01T13:52:02.999Z</time></trkpt><trkpt lat="44.17079137724845" lon="9.657677281333445"><ele>559.0</ele><time>2026-05-01T13:52:03.999Z</time></trkpt><trkpt lat="44.17065373729354" lon="9.65776847713136"><ele>560.3333333333334</ele><time>2026-05-01T13:52:05.999Z</time></trkpt><trkpt lat="44.17058391393924" lon="9.657855625636836"><ele>561.6666666666667</ele><time>2026-05-01T13:52:06.999Z</time></trkpt><trkpt lat="44.17052567692311" lon="9.657946204782018"><ele>563.0</ele><time>2026-05-01T13:52:07.999Z</time></trkpt><trkpt lat="44.17047653517952" lon="9.658033075375524"><ele>564.3333333333334</ele><time>2026-05-01T13:52:08.999Z</time></trkpt><trkpt lat="44.1704179936984" lon="9.658142027973057"><ele>565.6666666666666</ele><time>2026-05-01T13:52:09.999Z</time></trkpt><trkpt lat="44.170368050333074" lon="9.658238972295548"><ele>567.0</ele><time>2026-05-01T13:52:10.999Z</time></trkpt><trkpt lat="44.1702846178327" lon="9.658288491525155"><ele>567.0</ele><time>2026-05-01T13:52:11.999Z</time></trkpt><trkpt lat="44.17020758287246" lon="9.658342375401974"><ele>567.0</ele><time>2026-05-01T13:52:12.999Z</time></trkpt><trkpt lat="44.170132979132866" lon="9.65839460569395"><ele>567.0</ele><time>2026-05-01T13:52:13.999Z</time></trkpt><trkpt lat="44.170038053312624" lon="9.658469550295374"><ele>567.0</ele><time>2026-05-01T13:52:14.999Z</time></trkpt><trkpt lat="44.169949331464124" lon="9.658525314282233"><ele>567.0</ele><time>2026-05-01T13:52:15.999Z</time></trkpt><trkpt lat="44.16986841388587" lon="9.65859226365301"><ele>569.6</ele><time>2026-05-01T13:52:16.999Z</time></trkpt><trkpt lat="44.169766934173644" lon="9.658650420690625"><ele>572.2</ele><time>2026-05-01T13:52:17.999Z</time></trkpt><trkpt lat="44.169686167157295" lon="9.658715426967449"><ele>574.8</ele><time>2026-05-01T13:52:18.999Z</time></trkpt><trkpt lat="44.16958539505367" lon="9.65880148724208"><ele>577.4</ele><time>2026-05-01T13:52:19.999Z</time></trkpt><trkpt lat="44.1695057418088" lon="9.658877422194728"><ele>580.0</ele><time>2026-05-01T13:52:20.999Z</time></trkpt><trkpt lat="44.169440205565195" lon="9.658951470097922"><ele>580.0</ele><time>2026-05-01T13:52:21.999Z</time></trkpt><trkpt lat="44.169371209125266" lon="9.659064228415993"><ele>580.0</ele><time>2026-05-01T13:52:22.999Z</time></trkpt><trkpt lat="44.16932133518461" lon="9.659159658523153"><ele>580.0</ele><time>2026-05-01T13:52:23.999Z</time></trkpt><trkpt lat="44.16926671318618" lon="9.65927652848777"><ele>580.0</ele><time>2026-05-01T13:52:24.999Z</time></trkpt><trkpt lat="44.16921297847013" lon="9.659382606586792"><ele>580.0</ele><time>2026-05-01T13:52:25.999Z</time></trkpt><trkpt lat="44.16914152716814" lon="9.659455942643948"><ele>579.5</ele><time>2026-05-01T13:52:26.999Z</time></trkpt><trkpt lat="44.16906867379998" lon="9.659491531622791"><ele>579.0</ele><time>2026-05-01T13:52:27.999Z</time></trkpt><trkpt lat="44.16900214801559" lon="9.659479569590147"><ele>578.5</ele><time>2026-05-01T13:52:28.999Z</time></trkpt><trkpt lat="44.16893635560509" lon="9.659424431936943"><ele>578.0</ele><time>2026-05-01T13:52:29.999Z</time></trkpt><trkpt lat="44.16886186121243" lon="9.659348786015263"><ele>577.5</ele><time>2026-05-01T13:52:30.999Z</time></trkpt><trkpt lat="44.16876235131716" lon="9.659293189748466"><ele>577.0</ele><time>2026-05-01T13:52:31.999Z</time></trkpt><trkpt lat="44.16865279787387" lon="9.659284815523879"><ele>577.0</ele><time>2026-05-01T13:52:32.999Z</time></trkpt><trkpt lat="44.16855890089639" lon="9.659284950742936"><ele>577.0</ele><time>2026-05-01T13:52:33.999Z</time></trkpt><trkpt lat="44.16848298603669" lon="9.659292374927539"><ele>577.0</ele><time>2026-05-01T13:52:34.999Z</time></trkpt><trkpt lat="44.16838956445066" lon="9.659313024024671"><ele>577.0</ele><time>2026-05-01T13:52:35.999Z</time></trkpt><trkpt lat="44.16830008818594" lon="9.659340411750943"><ele>577.0</ele><time>2026-05-01T13:52:36.999Z</time></trkpt><trkpt lat="44.16821088781499" lon="9.659382198605268"><ele>578.2</ele><time>2026-05-01T13:52:37.999Z</time></trkpt><trkpt lat="44.1681223307638" lon="9.659437984194623"><ele>579.4000000000001</ele><time>2026-05-01T13:52:38.999Z</time></trkpt><trkpt lat="44.16804614894651" lon="9.659519361406115"><ele>580.5999999999999</ele><time>2026-05-01T13:52:39.999Z</time></trkpt><trkpt lat="44.167976912251774" lon="9.659608208024883"><ele>581.8</ele><time>2026-05-01T13:52:40.999Z</time></trkpt><trkpt lat="44.16790234958506" lon="9.65969795733085"><ele>583.0</ele><time>2026-05-01T13:52:41.999Z</time></trkpt><trkpt lat="44.16783011428989" lon="9.659766387724902"><ele>583.0</ele><time>2026-05-01T13:52:42.999Z</time></trkpt><trkpt lat="44.16776090283792" lon="9.659826196197006"><ele>583.0</ele><time>2026-05-01T13:52:43.999Z</time></trkpt><trkpt lat="44.1676951212451" lon="9.659886400949327"><ele>583.0</ele><time>2026-05-01T13:52:44.999Z</time></trkpt><trkpt lat="44.167630653482334" lon="9.659927773705551"><ele>583.0</ele><time>2026-05-01T13:52:45.999Z</time></trkpt><trkpt lat="44.16757267078276" lon="9.659975167723783"><ele>583.0</ele><time>2026-05-01T13:52:47.999Z</time></trkpt><trkpt lat="44.167627714571566" lon="9.660132635677604"><ele>583.0</ele><time>2026-05-01T13:53:15Z</time></trkpt><trkpt lat="44.16770976456121" lon="9.66018840868376"><ele>583.0</ele><time>2026-05-01T13:53:18Z</time></trkpt><trkpt lat="44.1677756656576" lon="9.660226013821774"><ele>583.0</ele><time>2026-05-01T13:53:19Z</time></trkpt><trkpt lat="44.16785434552948" lon="9.660282030038283"><ele>583.0</ele><time>2026-05-01T13:53:20Z</time></trkpt><trkpt lat="44.16793416452967" lon="9.660332766699574"><ele>583.0</ele><time>2026-05-01T13:53:21Z</time></trkpt><trkpt lat="44.16798834393354" lon="9.660397560796781"><ele>583.0</ele><time>2026-05-01T13:53:22Z</time></trkpt><trkpt lat="44.1680290054386" lon="9.660486347565502"><ele>583.0</ele><time>2026-05-01T13:53:23Z</time></trkpt><trkpt lat="44.168060114554464" lon="9.660588395689174"><ele>583.4</ele><time>2026-05-01T13:53:24Z</time></trkpt><trkpt lat="44.16808093867422" lon="9.660694729908856"><ele>583.8</ele><time>2026-05-01T13:53:25Z</time></trkpt><trkpt lat="44.16811120318652" lon="9.660801729647913"><ele>584.2</ele><time>2026-05-01T13:53:26Z</time></trkpt><trkpt lat="44.1681687093757" lon="9.66087943297983"><ele>584.6</ele><time>2026-05-01T13:53:27Z</time></trkpt><trkpt lat="44.16827564348636" lon="9.660934160108408"><ele>585.0</ele><time>2026-05-01T13:53:29Z</time></trkpt><trkpt lat="44.168400896783794" lon="9.660903266100844"><ele>586.8</ele><time>2026-05-01T13:53:31Z</time></trkpt><trkpt lat="44.16854631058923" lon="9.66084035412982"><ele>588.6</ele><time>2026-05-01T13:53:33Z</time></trkpt><trkpt lat="44.16863163683721" lon="9.660805001109274"><ele>590.4</ele><time>2026-05-01T13:53:33.999Z</time></trkpt><trkpt lat="44.168725053023906" lon="9.660782578970341"><ele>592.2</ele><time>2026-05-01T13:53:34.999Z</time></trkpt><trkpt lat="44.16882256496512" lon="9.660774309446689"><ele>594.0</ele><time>2026-05-01T13:53:35.999Z</time></trkpt><trkpt lat="44.16891667260616" lon="9.660805438520875"><ele>594.0</ele><time>2026-05-01T13:53:36.999Z</time></trkpt><trkpt lat="44.16900379743127" lon="9.660871466168624"><ele>594.0</ele><time>2026-05-01T13:53:37.999Z</time></trkpt><trkpt lat="44.16908856626316" lon="9.66095897952245"><ele>594.0</ele><time>2026-05-01T13:53:38.999Z</time></trkpt><trkpt lat="44.169152935618854" lon="9.661098060725966"><ele>594.0</ele><time>2026-05-01T13:53:39.999Z</time></trkpt><trkpt lat="44.16922790545726" lon="9.661220997776823"><ele>594.0</ele><time>2026-05-01T13:53:40.999Z</time></trkpt><trkpt lat="44.169310449247746" lon="9.661331632073036"><ele>587.25</ele><time>2026-05-01T13:53:41.999Z</time></trkpt><trkpt lat="44.16937569688708" lon="9.66145568117266"><ele>580.5</ele><time>2026-05-01T13:53:42.999Z</time></trkpt><trkpt lat="44.16944868848542" lon="9.661573542166943"><ele>573.75</ele><time>2026-05-01T13:53:43.999Z</time></trkpt><trkpt lat="44.1695222303972" lon="9.661692326404223"><ele>567.0</ele><time>2026-05-01T13:53:44.999Z</time></trkpt><trkpt lat="44.16959801414309" lon="9.661814547098237"><ele>564.4</ele><time>2026-05-01T13:53:45.999Z</time></trkpt><trkpt lat="44.16964767724022" lon="9.661962976242403"><ele>561.8000000000001</ele><time>2026-05-01T13:53:46.999Z</time></trkpt><trkpt lat="44.169680660572624" lon="9.662101231748789"><ele>559.2</ele><time>2026-05-01T13:53:47.999Z</time></trkpt><trkpt lat="44.16968879480356" lon="9.662240422190113"><ele>556.6</ele><time>2026-05-01T13:53:48.999Z</time></trkpt><trkpt lat="44.16970060388547" lon="9.66238296884459"><ele>554.0</ele><time>2026-05-01T13:53:49.999Z</time></trkpt><trkpt lat="44.169735924034946" lon="9.662508401853268"><ele>554.0</ele><time>2026-05-01T13:53:50.999Z</time></trkpt><trkpt lat="44.169762632075326" lon="9.662636318828788"><ele>554.0</ele><time>2026-05-01T13:53:51.999Z</time></trkpt><trkpt lat="44.16978832540754" lon="9.662749126514095"><ele>554.0</ele><time>2026-05-01T13:53:52.999Z</time></trkpt><trkpt lat="44.169806340566225" lon="9.662858222358286"><ele>554.0</ele><time>2026-05-01T13:53:53.999Z</time></trkpt><trkpt lat="44.1697982844985" lon="9.662955275971818"><ele>554.0</ele><time>2026-05-01T13:53:54.999Z</time></trkpt><trkpt lat="44.16974742081408" lon="9.663034992712008"><ele>554.0</ele><time>2026-05-01T13:53:55.999Z</time></trkpt><trkpt lat="44.16972168517481" lon="9.663126827655963"><ele>555.2</ele><time>2026-05-01T13:53:56.999Z</time></trkpt><trkpt lat="44.16968417289106" lon="9.663200813892031"><ele>556.4</ele><time>2026-05-01T13:53:57.999Z</time></trkpt><trkpt lat="44.169637898323366" lon="9.663262608020338"><ele>557.6</ele><time>2026-05-01T13:53:58.999Z</time></trkpt><trkpt lat="44.1695743870146" lon="9.663317287268265"><ele>558.8</ele><time>2026-05-01T13:53:59.999Z</time></trkpt><trkpt lat="44.169475252076694" lon="9.663446792889394"><ele>560.0</ele><time>2026-05-01T13:54:01.999Z</time></trkpt><trkpt lat="44.16943672199108" lon="9.66365238113669"><ele>562.3333333333333</ele><time>2026-05-01T13:54:03.999Z</time></trkpt><trkpt lat="44.16944663491581" lon="9.663778999969079"><ele>564.6666666666666</ele><time>2026-05-01T13:54:04.999Z</time></trkpt><trkpt lat="44.16946191748753" lon="9.663889576371247"><ele>567.0</ele><time>2026-05-01T13:54:05.999Z</time></trkpt><trkpt lat="44.16946552418795" lon="9.663983050703601"><ele>569.3333333333334</ele><time>2026-05-01T13:54:06.999Z</time></trkpt><trkpt lat="44.16944041666672" lon="9.664077195198916"><ele>571.6666666666667</ele><time>2026-05-01T13:54:07.999Z</time></trkpt><trkpt lat="44.16937526122491" lon="9.664109935817722"><ele>574.0</ele><time>2026-05-01T13:54:08.999Z</time></trkpt><trkpt lat="44.169313489305" lon="9.664153226998812"><ele>574.0</ele><time>2026-05-01T13:54:09.999Z</time></trkpt><trkpt lat="44.16925857132887" lon="9.664212286444753"><ele>574.0</ele><time>2026-05-01T13:54:10.999Z</time></trkpt><trkpt lat="44.16919258371186" lon="9.664249275633937"><ele>574.0</ele><time>2026-05-01T13:54:11.999Z</time></trkpt><trkpt lat="44.1691273812038" lon="9.664305100404553"><ele>574.0</ele><time>2026-05-01T13:54:12.999Z</time></trkpt><trkpt lat="44.169063310039185" lon="9.664381068802856"><ele>574.0</ele><time>2026-05-01T13:54:13.999Z</time></trkpt><trkpt lat="44.16900747752515" lon="9.664454408307252"><ele>574.0</ele><time>2026-05-01T13:54:14.999Z</time></trkpt><trkpt lat="44.16895413251511" lon="9.664519058914802"><ele>574.0</ele><time>2026-05-01T13:54:15.999Z</time></trkpt><trkpt lat="44.1688777032265" lon="9.664559187188436"><ele>574.2</ele><time>2026-05-01T13:54:16.999Z</time></trkpt><trkpt lat="44.16881178080385" lon="9.664619525018892"><ele>574.4</ele><time>2026-05-01T13:54:17.999Z</time></trkpt><trkpt lat="44.16877688260391" lon="9.664720482778646"><ele>574.6</ele><time>2026-05-01T13:54:18.999Z</time></trkpt><trkpt lat="44.16876015219725" lon="9.664889633979222"><ele>574.8</ele><time>2026-05-01T13:54:20.999Z</time></trkpt><trkpt lat="44.16878645978501" lon="9.665027675402134"><ele>575.0</ele><time>2026-05-01T13:54:22.999Z</time></trkpt><trkpt lat="44.16882243943663" lon="9.665125346371035"><ele>575.0</ele><time>2026-05-01T13:54:24.999Z</time></trkpt><trkpt lat="44.168877771359796" lon="9.665207015803988"><ele>575.0</ele><time>2026-05-01T13:54:26.999Z</time></trkpt><trkpt lat="44.16893475907069" lon="9.665303370874925"><ele>575.0</ele><time>2026-05-01T13:54:28.999Z</time></trkpt><trkpt lat="44.168986791820736" lon="9.665428766614358"><ele>575.0</ele><time>2026-05-01T13:54:30.999Z</time></trkpt><trkpt lat="44.16903003316186" lon="9.66557094462188"><ele>575.0</ele><time>2026-05-01T13:54:32.999Z</time></trkpt><trkpt lat="44.16905738432954" lon="9.6657298864491"><ele>577.4</ele><time>2026-05-01T13:54:34.999Z</time></trkpt><trkpt lat="44.169103898263266" lon="9.665873882882513"><ele>579.8</ele><time>2026-05-01T13:54:36.999Z</time></trkpt><trkpt lat="44.169151338319" lon="9.665937458817128"><ele>582.2</ele><time>2026-05-01T13:54:37.999Z</time></trkpt><trkpt lat="44.169263389713116" lon="9.665990180929795"><ele>584.6</ele><time>2026-05-01T13:54:39.999Z</time></trkpt><trkpt lat="44.1693839877356" lon="9.666037929064661"><ele>587.0</ele><time>2026-05-01T13:54:41.999Z</time></trkpt><trkpt lat="44.16944858035222" lon="9.66602408644454"><ele>587.0</ele><time>2026-05-01T13:54:42.999Z</time></trkpt><trkpt lat="44.169510928849526" lon="9.665997224319327"><ele>587.0</ele><time>2026-05-01T13:54:43.999Z</time></trkpt><trkpt lat="44.169575320045226" lon="9.665974989194686"><ele>587.0</ele><time>2026-05-01T13:54:44.999Z</time></trkpt><trkpt lat="44.169708532829716" lon="9.665965471261591"><ele>587.0</ele><time>2026-05-01T13:54:46.999Z</time></trkpt><trkpt lat="44.16980558500659" lon="9.666043429866146"><ele>587.0</ele><time>2026-05-01T13:54:48.999Z</time></trkpt><trkpt lat="44.169882091578955" lon="9.666191077531922"><ele>588.0</ele><time>2026-05-01T13:54:50.999Z</time></trkpt><trkpt lat="44.16993095056033" lon="9.666255075784036"><ele>589.0</ele><time>2026-05-01T13:54:51.999Z</time></trkpt><trkpt lat="44.1699603423666" lon="9.666339716205954"><ele>590.0</ele><time>2026-05-01T13:54:52.999Z</time></trkpt><trkpt lat="44.16999206305091" lon="9.666415944774133"><ele>591.0</ele><time>2026-05-01T13:54:53.999Z</time></trkpt><trkpt lat="44.170010959425426" lon="9.666503834582214"><ele>592.0</ele><time>2026-05-01T13:54:54.999Z</time></trkpt><trkpt lat="44.16999779504344" lon="9.666595004144712"><ele>593.0</ele><time>2026-05-01T13:54:56Z</time></trkpt><trkpt lat="44.169967142627115" lon="9.666676891602712"><ele>594.0</ele><time>2026-05-01T13:54:57Z</time></trkpt><trkpt lat="44.16993564308232" lon="9.666768551090096"><ele>594.0</ele><time>2026-05-01T13:54:58Z</time></trkpt><trkpt lat="44.16990762733953" lon="9.666867486160088"><ele>594.0</ele><time>2026-05-01T13:54:59Z</time></trkpt><trkpt lat="44.16989613039281" lon="9.666963363928202"><ele>594.0</ele><time>2026-05-01T13:55:00Z</time></trkpt><trkpt lat="44.16990670938383" lon="9.66705714719994"><ele>594.0</ele><time>2026-05-01T13:55:01Z</time></trkpt><trkpt lat="44.16994834856549" lon="9.66713599450679"><ele>594.0</ele><time>2026-05-01T13:55:02Z</time></trkpt><trkpt lat="44.17000983032063" lon="9.667192834692877"><ele>594.0</ele><time>2026-05-01T13:55:03Z</time></trkpt><trkpt lat="44.1701026505874" lon="9.667286841346533"><ele>593.1666666666666</ele><time>2026-05-01T13:55:05Z</time></trkpt><trkpt lat="44.17009479068315" lon="9.667379352117933"><ele>592.3333333333334</ele><time>2026-05-01T13:55:06Z</time></trkpt><trkpt lat="44.17006860437503" lon="9.667478835382916"><ele>591.5</ele><time>2026-05-01T13:55:07Z</time></trkpt><trkpt lat="44.17001902554995" lon="9.667534908918723"><ele>590.6666666666667</ele><time>2026-05-01T13:55:08Z</time></trkpt><trkpt lat="44.16996854624597" lon="9.667683845039083"><ele>589.8333333333334</ele><time>2026-05-01T13:55:10Z</time></trkpt><trkpt lat="44.169941116239116" lon="9.667774536822431"><ele>589.0</ele><time>2026-05-01T13:55:11Z</time></trkpt><trkpt lat="44.16991591256104" lon="9.667856068968801"><ele>588.8333333333334</ele><time>2026-05-01T13:55:12Z</time></trkpt><trkpt lat="44.16990046932283" lon="9.66795153858084"><ele>588.6666666666667</ele><time>2026-05-01T13:55:13Z</time></trkpt><trkpt lat="44.16987594268967" lon="9.668038191866252"><ele>588.5</ele><time>2026-05-01T13:55:14Z</time></trkpt><trkpt lat="44.16994911764884" lon="9.668200346110696"><ele>588.3333333333334</ele><time>2026-05-01T13:55:16Z</time></trkpt><trkpt lat="44.170018726481594" lon="9.668225355186772"><ele>588.1666666666666</ele><time>2026-05-01T13:55:17Z</time></trkpt><trkpt lat="44.170086580347615" lon="9.668333521159035"><ele>588.0</ele><time>2026-05-01T13:55:19Z</time></trkpt><trkpt lat="44.17011175074409" lon="9.66847604121352"><ele>588.0</ele><time>2026-05-01T13:55:21Z</time></trkpt><trkpt lat="44.170065099661144" lon="9.668535464207324"><ele>588.0</ele><time>2026-05-01T13:55:22Z</time></trkpt><trkpt lat="44.170002341621576" lon="9.668672906134118"><ele>588.0</ele><time>2026-05-01T13:55:24Z</time></trkpt><trkpt lat="44.16994915943913" lon="9.668826540371644"><ele>588.0</ele><time>2026-05-01T13:55:26Z</time></trkpt><trkpt lat="44.169865018765215" lon="9.668954854675997"><ele>588.0</ele><time>2026-05-01T13:55:28Z</time></trkpt><trkpt lat="44.16981704272311" lon="9.669020123039683"><ele>584.4285714285714</ele><time>2026-05-01T13:55:29Z</time></trkpt><trkpt lat="44.16978117201057" lon="9.669106480727804"><ele>580.8571428571429</ele><time>2026-05-01T13:55:30Z</time></trkpt><trkpt lat="44.16973767611015" lon="9.66918646793482"><ele>577.2857142857142</ele><time>2026-05-01T13:55:31Z</time></trkpt><trkpt lat="44.1696985727054" lon="9.669274683210011"><ele>573.7142857142858</ele><time>2026-05-01T13:55:32Z</time></trkpt><trkpt lat="44.16968637247967" lon="9.669361024951074"><ele>570.1428571428571</ele><time>2026-05-01T13:55:33Z</time></trkpt><trkpt lat="44.16965718443026" lon="9.669447168743877"><ele>566.5714285714286</ele><time>2026-05-01T13:55:34Z</time></trkpt><trkpt lat="44.16965056631633" lon="9.669579089863628"><ele>563.0</ele><time>2026-05-01T13:55:35Z</time></trkpt><trkpt lat="44.16966283702429" lon="9.669684221741491"><ele>563.0</ele><time>2026-05-01T13:55:36Z</time></trkpt><trkpt lat="44.16969028002248" lon="9.669786310777036"><ele>563.0</ele><time>2026-05-01T13:55:37Z</time></trkpt><trkpt lat="44.16971934811732" lon="9.66987722976832"><ele>563.0</ele><time>2026-05-01T13:55:38Z</time></trkpt><trkpt lat="44.16974991584976" lon="9.669970773992024"><ele>563.0</ele><time>2026-05-01T13:55:39Z</time></trkpt><trkpt lat="44.169775887501125" lon="9.670059408199506"><ele>563.0</ele><time>2026-05-01T13:55:40Z</time></trkpt><trkpt lat="44.16980935148352" lon="9.67015865448343"><ele>563.0</ele><time>2026-05-01T13:55:41Z</time></trkpt><trkpt lat="44.16979859345008" lon="9.670256692567863"><ele>563.0</ele><time>2026-05-01T13:55:42Z</time></trkpt><trkpt lat="44.16980406330363" lon="9.670347358089717"><ele>563.5</ele><time>2026-05-01T13:55:43Z</time></trkpt><trkpt lat="44.16982007563238" lon="9.67046595994689"><ele>564.0</ele><time>2026-05-01T13:55:45Z</time></trkpt><trkpt lat="44.16983392670024" lon="9.670569683064397"><ele>564.5</ele><time>2026-05-01T13:55:48.999Z</time></trkpt><trkpt lat="44.16984203339095" lon="9.67068759766407"><ele>565.0</ele><time>2026-05-01T13:55:50.999Z</time></trkpt><trkpt lat="44.169781501252416" lon="9.670814566435936"><ele>565.5</ele><time>2026-05-01T13:55:52.999Z</time></trkpt><trkpt lat="44.16974149408447" lon="9.670895241271856"><ele>566.0</ele><time>2026-05-01T13:55:53.999Z</time></trkpt><trkpt lat="44.169723631199666" lon="9.67098732945974"><ele>566.0</ele><time>2026-05-01T13:55:54.999Z</time></trkpt><trkpt lat="44.16968655940195" lon="9.671108745660545"><ele>566.0</ele><time>2026-05-01T13:55:55.999Z</time></trkpt><trkpt lat="44.1696416431866" lon="9.671205508921778"><ele>566.0</ele><time>2026-05-01T13:55:56.999Z</time></trkpt><trkpt lat="44.16960738245245" lon="9.671314023322841"><ele>566.0</ele><time>2026-05-01T13:55:57.999Z</time></trkpt><trkpt lat="44.169596497243916" lon="9.671429157780718"><ele>566.0</ele><time>2026-05-01T13:55:58.999Z</time></trkpt><trkpt lat="44.16958860012878" lon="9.671536997426012"><ele>566.0</ele><time>2026-05-01T13:55:59.999Z</time></trkpt><trkpt lat="44.16959029646491" lon="9.671653580869847"><ele>566.0</ele><time>2026-05-01T13:56:00.999Z</time></trkpt><trkpt lat="44.169613938707414" lon="9.671769877751991"><ele>566.0</ele><time>2026-05-01T13:56:01.999Z</time></trkpt><trkpt lat="44.169637667693856" lon="9.671877866526865"><ele>566.0</ele><time>2026-05-01T13:56:02.999Z</time></trkpt><trkpt lat="44.16967924889262" lon="9.672007765996398"><ele>566.0</ele><time>2026-05-01T13:56:03.999Z</time></trkpt><trkpt lat="44.169703051259404" lon="9.67213971556026"><ele>566.0</ele><time>2026-05-01T13:56:04.999Z</time></trkpt><trkpt lat="44.16970278588536" lon="9.672267048030745"><ele>563.2</ele><time>2026-05-01T13:56:05.999Z</time></trkpt><trkpt lat="44.169725729385334" lon="9.672413661731495"><ele>560.4000000000001</ele><time>2026-05-01T13:56:06.999Z</time></trkpt><trkpt lat="44.1697237294605" lon="9.672547759305747"><ele>557.6</ele><time>2026-05-01T13:56:07.999Z</time></trkpt><trkpt lat="44.16967722279515" lon="9.672684738593375"><ele>554.8000000000001</ele><time>2026-05-01T13:56:08.999Z</time></trkpt><trkpt lat="44.16964660406631" lon="9.672814205570821"><ele>552.0</ele><time>2026-05-01T13:56:09.999Z</time></trkpt><trkpt lat="44.16961402086754" lon="9.672940690959617"><ele>552.0</ele><time>2026-05-01T13:56:10.999Z</time></trkpt><trkpt lat="44.16958200709937" lon="9.673061949062498"><ele>552.0</ele><time>2026-05-01T13:56:11.999Z</time></trkpt><trkpt lat="44.16956922424537" lon="9.67317579008824"><ele>552.0</ele><time>2026-05-01T13:56:12.999Z</time></trkpt><trkpt lat="44.16952212008319" lon="9.673308923602802"><ele>552.0</ele><time>2026-05-01T13:56:13.999Z</time></trkpt><trkpt lat="44.169486198898305" lon="9.673423425636539"><ele>552.0</ele><time>2026-05-01T13:56:14.999Z</time></trkpt><trkpt lat="44.16943126339409" lon="9.673531591292843"><ele>554.5</ele><time>2026-05-01T13:56:15.999Z</time></trkpt><trkpt lat="44.16935556529729" lon="9.673607323306822"><ele>557.0</ele><time>2026-05-01T13:56:16.999Z</time></trkpt><trkpt lat="44.16930236671234" lon="9.67370832848583"><ele>559.5</ele><time>2026-05-01T13:56:17.999Z</time></trkpt><trkpt lat="44.169257104106684" lon="9.673815631376147"><ele>562.0</ele><time>2026-05-01T13:56:18.999Z</time></trkpt><trkpt lat="44.16923962889465" lon="9.673930551353843"><ele>564.5</ele><time>2026-05-01T13:56:19.999Z</time></trkpt><trkpt lat="44.1692415583305" lon="9.674039293314861"><ele>567.0</ele><time>2026-05-01T13:56:20.999Z</time></trkpt><trkpt lat="44.169227019296116" lon="9.674152707906277"><ele>567.0</ele><time>2026-05-01T13:56:21.999Z</time></trkpt><trkpt lat="44.169187105219336" lon="9.674264203087303"><ele>567.0</ele><time>2026-05-01T13:56:22.999Z</time></trkpt><trkpt lat="44.16915633338691" lon="9.67436072220992"><ele>567.0</ele><time>2026-05-01T13:56:23.999Z</time></trkpt><trkpt lat="44.16913001173122" lon="9.674479218637845"><ele>567.0</ele><time>2026-05-01T13:56:24.999Z</time></trkpt><trkpt lat="44.16910048153546" lon="9.674614639398358"><ele>567.0</ele><time>2026-05-01T13:56:25.999Z</time></trkpt><trkpt lat="44.16906882013858" lon="9.674740452656101"><ele>568.4</ele><time>2026-05-01T13:56:26.999Z</time></trkpt><trkpt lat="44.16904543352212" lon="9.674859565970344"><ele>569.8000000000001</ele><time>2026-05-01T13:56:27.999Z</time></trkpt><trkpt lat="44.16901468811745" lon="9.674992500389436"><ele>571.2</ele><time>2026-05-01T13:56:28.999Z</time></trkpt><trkpt lat="44.16895531296386" lon="9.675116313975645"><ele>572.6</ele><time>2026-05-01T13:56:29.999Z</time></trkpt><trkpt lat="44.16893428226323" lon="9.675233720906249"><ele>574.0</ele><time>2026-05-01T13:56:30.999Z</time></trkpt><trkpt lat="44.168918864897705" lon="9.675337641707884"><ele>571.1666666666667</ele><time>2026-05-01T13:56:31.999Z</time></trkpt><trkpt lat="44.16892237471992" lon="9.675441028940346"><ele>568.3333333333334</ele><time>2026-05-01T13:56:32.999Z</time></trkpt><trkpt lat="44.1689527919839" lon="9.675546142209793"><ele>565.5</ele><time>2026-05-01T13:56:33.999Z</time></trkpt><trkpt lat="44.16900776199591" lon="9.675634342380699"><ele>562.6666666666666</ele><time>2026-05-01T13:56:34.999Z</time></trkpt><trkpt lat="44.16906094650557" lon="9.675694231374985"><ele>559.8333333333333</ele><time>2026-05-01T13:56:35.999Z</time></trkpt><trkpt lat="44.16912829190128" lon="9.675764902488368"><ele>557.0</ele><time>2026-05-01T13:56:36.999Z</time></trkpt><trkpt lat="44.169196834966996" lon="9.675858191874623"><ele>557.0</ele><time>2026-05-01T13:56:37.999Z</time></trkpt><trkpt lat="44.16925584408559" lon="9.67594802409752"><ele>557.0</ele><time>2026-05-01T13:56:38.999Z</time></trkpt><trkpt lat="44.16930632555398" lon="9.676038662815909"><ele>557.0</ele><time>2026-05-01T13:56:39.999Z</time></trkpt><trkpt lat="44.1693491115779" lon="9.676130499673471"><ele>557.0</ele><time>2026-05-01T13:56:40.999Z</time></trkpt><trkpt lat="44.1693992158013" lon="9.676213940847283"><ele>557.0</ele><time>2026-05-01T13:56:41.999Z</time></trkpt><trkpt lat="44.16943828717074" lon="9.676316422908032"><ele>557.0</ele><time>2026-05-01T13:56:42.999Z</time></trkpt><trkpt lat="44.169470349820514" lon="9.67639791468008"><ele>554.5</ele><time>2026-05-01T13:56:43.999Z</time></trkpt><trkpt lat="44.169506072285984" lon="9.676477183067721"><ele>552.0</ele><time>2026-05-01T13:56:44.999Z</time></trkpt><trkpt lat="44.16958155477235" lon="9.676607581293505"><ele>549.5</ele><time>2026-05-01T13:56:46.999Z</time></trkpt><trkpt lat="44.16966441626877" lon="9.676733560298974"><ele>547.0</ele><time>2026-05-01T13:56:48.999Z</time></trkpt><trkpt lat="44.16967707748456" lon="9.676823128333998"><ele>544.5</ele><time>2026-05-01T13:56:49.999Z</time></trkpt><trkpt lat="44.169707123307916" lon="9.676907353926248"><ele>542.0</ele><time>2026-05-01T13:56:50.999Z</time></trkpt><trkpt lat="44.16970660632176" lon="9.677001001693734"><ele>542.0</ele><time>2026-05-01T13:56:51.999Z</time></trkpt><trkpt lat="44.16966291853568" lon="9.67712509206969"><ele>542.0</ele><time>2026-05-01T13:56:53.999Z</time></trkpt><trkpt lat="44.16958696288847" lon="9.677126982319866"><ele>542.0</ele><time>2026-05-01T13:56:56.999Z</time></trkpt><trkpt lat="44.16948859109804" lon="9.67698402437927"><ele>542.0</ele><time>2026-05-01T13:57:10Z</time></trkpt><trkpt lat="44.16944646889296" lon="9.676877929110326"><ele>542.0</ele><time>2026-05-01T13:57:12Z</time></trkpt><trkpt lat="44.16940620039528" lon="9.676786361790713"><ele>540.8000000000001</ele><time>2026-05-01T13:57:14Z</time></trkpt><trkpt lat="44.16937277845357" lon="9.676675656672101"><ele>539.6</ele><time>2026-05-01T13:57:16Z</time></trkpt><trkpt lat="44.16931708330659" lon="9.676557617191465"><ele>538.4000000000001</ele><time>2026-05-01T13:57:18Z</time></trkpt><trkpt lat="44.169269305075915" lon="9.676428059430313"><ele>537.2</ele><time>2026-05-01T13:57:20Z</time></trkpt><trkpt lat="44.16920344399636" lon="9.676295027741444"><ele>536.0</ele><time>2026-05-01T13:57:22Z</time></trkpt><trkpt lat="44.16910303723908" lon="9.676172254868776"><ele>536.0</ele><time>2026-05-01T13:57:24Z</time></trkpt><trkpt lat="44.16903515935592" lon="9.67613327479456"><ele>536.0</ele><time>2026-05-01T13:57:25Z</time></trkpt><trkpt lat="44.16897383912529" lon="9.676073984263597"><ele>536.0</ele><time>2026-05-01T13:57:26Z</time></trkpt><trkpt lat="44.16890555660337" lon="9.676020775038479"><ele>536.0</ele><time>2026-05-01T13:57:27Z</time></trkpt><trkpt lat="44.168830641087794" lon="9.675979871236807"><ele>536.0</ele><time>2026-05-01T13:57:28Z</time></trkpt><trkpt lat="44.16874265460248" lon="9.675967934822461"><ele>536.0</ele><time>2026-05-01T13:57:29Z</time></trkpt><trkpt lat="44.16865203615421" lon="9.6759711927559"><ele>535.8333333333333</ele><time>2026-05-01T13:57:30Z</time></trkpt><trkpt lat="44.168569776860345" lon="9.675969087495906"><ele>535.6666666666666</ele><time>2026-05-01T13:57:31Z</time></trkpt><trkpt lat="44.16848417666754" lon="9.67597577128373"><ele>535.5</ele><time>2026-05-01T13:57:32Z</time></trkpt><trkpt lat="44.16840665654953" lon="9.675951202069735"><ele>535.3333333333334</ele><time>2026-05-01T13:57:33Z</time></trkpt><trkpt lat="44.16833522437255" lon="9.675904134264618"><ele>535.1666666666667</ele><time>2026-05-01T13:57:34Z</time></trkpt><trkpt lat="44.16826726420095" lon="9.67584556300234"><ele>535.0</ele><time>2026-05-01T13:57:35Z</time></trkpt><trkpt lat="44.16819504226132" lon="9.675784950122937"><ele>530.6</ele><time>2026-05-01T13:57:36Z</time></trkpt><trkpt lat="44.16809957037708" lon="9.675751684794015"><ele>526.2</ele><time>2026-05-01T13:57:37Z</time></trkpt><trkpt lat="44.168005083508625" lon="9.67576373626188"><ele>521.8</ele><time>2026-05-01T13:57:38Z</time></trkpt><trkpt lat="44.1679107839364" lon="9.675795712736152"><ele>517.4</ele><time>2026-05-01T13:57:39Z</time></trkpt><trkpt lat="44.16781524368381" lon="9.675827635062312"><ele>513.0</ele><time>2026-05-01T13:57:40Z</time></trkpt><trkpt lat="44.16773209606906" lon="9.67583841558631"><ele>513.0</ele><time>2026-05-01T13:57:41Z</time></trkpt><trkpt lat="44.167658320584984" lon="9.67583538731786"><ele>513.0</ele><time>2026-05-01T13:57:42Z</time></trkpt><trkpt lat="44.16755256144231" lon="9.675791455465278"><ele>513.0</ele><time>2026-05-01T13:57:44Z</time></trkpt><trkpt lat="44.16754229767176" lon="9.675690045749679"><ele>513.0</ele><time>2026-05-01T13:57:45Z</time></trkpt><trkpt lat="44.16751981213893" lon="9.675556047915618"><ele>513.0</ele><time>2026-05-01T13:57:47Z</time></trkpt><trkpt lat="44.167430401897676" lon="9.67551694974058"><ele>511.0</ele><time>2026-05-01T13:57:49Z</time></trkpt><trkpt lat="44.16732788160175" lon="9.675628424279061"><ele>509.0</ele><time>2026-05-01T13:57:51Z</time></trkpt><trkpt lat="44.167268451987105" lon="9.675678350357494"><ele>507.0</ele><time>2026-05-01T13:57:52Z</time></trkpt><trkpt lat="44.16720912762302" lon="9.675730438972057"><ele>505.0</ele><time>2026-05-01T13:57:53Z</time></trkpt><trkpt lat="44.16713756891751" lon="9.675739804288671"><ele>503.0</ele><time>2026-05-01T13:57:54Z</time></trkpt><trkpt lat="44.16706230395127" lon="9.675704979863017"><ele>501.0</ele><time>2026-05-01T13:57:55Z</time></trkpt><trkpt lat="44.16698266043513" lon="9.675647840259938"><ele>501.0</ele><time>2026-05-01T13:57:56Z</time></trkpt><trkpt lat="44.16688735825776" lon="9.675602659447227"><ele>501.0</ele><time>2026-05-01T13:57:57Z</time></trkpt><trkpt lat="44.16680000133263" lon="9.675553666309067"><ele>501.0</ele><time>2026-05-01T13:57:58Z</time></trkpt><trkpt lat="44.16669383992702" lon="9.675521207384817"><ele>501.0</ele><time>2026-05-01T13:57:59Z</time></trkpt><trkpt lat="44.16659055075755" lon="9.675549745451454"><ele>501.0</ele><time>2026-05-01T13:58:00Z</time></trkpt><trkpt lat="44.166481236933755" lon="9.675553778432821"><ele>499.0</ele><time>2026-05-01T13:58:01Z</time></trkpt><trkpt lat="44.16638388183923" lon="9.675551202755852"><ele>497.0</ele><time>2026-05-01T13:58:01.999Z</time></trkpt><trkpt lat="44.16629096304272" lon="9.675541151997363"><ele>495.0</ele><time>2026-05-01T13:58:02.999Z</time></trkpt><trkpt lat="44.166233559037025" lon="9.675416381309178"><ele>493.0</ele><time>2026-05-01T13:58:03.999Z</time></trkpt><trkpt lat="44.16615149030271" lon="9.675349178189451"><ele>491.0</ele><time>2026-05-01T13:58:04.999Z</time></trkpt><trkpt lat="44.16606488646785" lon="9.675287390087853"><ele>490.6</ele><time>2026-05-01T13:58:05.999Z</time></trkpt><trkpt lat="44.165968958986156" lon="9.675238126226198"><ele>490.20000000000005</ele><time>2026-05-01T13:58:06.999Z</time></trkpt><trkpt lat="44.16588252489437" lon="9.675201838776504"><ele>489.79999999999995</ele><time>2026-05-01T13:58:07.999Z</time></trkpt><trkpt lat="44.16580578039271" lon="9.675180270198059"><ele>489.4</ele><time>2026-05-01T13:58:08.999Z</time></trkpt><trkpt lat="44.16568046658182" lon="9.675270936554812"><ele>489.0</ele><time>2026-05-01T13:58:10.999Z</time></trkpt><trkpt lat="44.16563501866798" lon="9.675368164431902"><ele>484.2</ele><time>2026-05-01T13:58:11.999Z</time></trkpt><trkpt lat="44.165636954331646" lon="9.675506626949954"><ele>479.4</ele><time>2026-05-01T13:58:12.999Z</time></trkpt><trkpt lat="44.165597916368725" lon="9.675605964837983"><ele>474.6</ele><time>2026-05-01T13:58:13.999Z</time></trkpt><trkpt lat="44.165548802153424" lon="9.675687941409521"><ele>469.8</ele><time>2026-05-01T13:58:14.999Z</time></trkpt><trkpt lat="44.165513363999565" lon="9.675852342813057"><ele>465.0</ele><time>2026-05-01T13:58:16.999Z</time></trkpt><trkpt lat="44.165652634910586" lon="9.67593054102963"><ele>470.2</ele><time>2026-05-01T13:58:18.999Z</time></trkpt><trkpt lat="44.165767897739045" lon="9.675884196086805"><ele>475.4</ele><time>2026-05-01T13:58:20.999Z</time></trkpt><trkpt lat="44.16588404506137" lon="9.675905962846414"><ele>480.6</ele><time>2026-05-01T13:58:22.999Z</time></trkpt><trkpt lat="44.16595915726455" lon="9.675921261921173"><ele>485.8</ele><time>2026-05-01T13:58:23.999Z</time></trkpt><trkpt lat="44.16606471325131" lon="9.675958601487425"><ele>491.0</ele><time>2026-05-01T13:58:25.999Z</time></trkpt><trkpt lat="44.16611405794662" lon="9.676023966952453"><ele>487.99999999999994</ele><time>2026-05-01T13:58:27.999Z</time></trkpt><trkpt lat="44.166137527576886" lon="9.676127197516967"><ele>485.0</ele><time>2026-05-01T13:58:30.999Z</time></trkpt><trkpt lat="44.16614386683954" lon="9.676275108992533"><ele>482.0</ele><time>2026-05-01T13:58:33.999Z</time></trkpt><trkpt lat="44.16619635023274" lon="9.67641676862057"><ele>479.0</ele><time>2026-05-01T13:58:35.999Z</time></trkpt><trkpt lat="44.16624133145622" lon="9.676479997905417"><ele>475.99999999999994</ele><time>2026-05-01T13:58:36.999Z</time></trkpt><trkpt lat="44.16629370782416" lon="9.676550223394072"><ele>473.0</ele><time>2026-05-01T13:58:37.999Z</time></trkpt><trkpt lat="44.166352883915934" lon="9.67661352432221"><ele>473.0</ele><time>2026-05-01T13:58:38.999Z</time></trkpt><trkpt lat="44.166417449705015" lon="9.67668151349683"><ele>472.99999999999994</ele><time>2026-05-01T13:58:39.999Z</time></trkpt><trkpt lat="44.16649669490271" lon="9.676711314347848"><ele>472.99999999999994</ele><time>2026-05-01T13:58:40.999Z</time></trkpt><trkpt lat="44.16658314090183" lon="9.67672101452867"><ele>473.0</ele><time>2026-05-01T13:58:41.999Z</time></trkpt><trkpt lat="44.16668105543906" lon="9.676692313091413"><ele>473.0</ele><time>2026-05-01T13:58:42.999Z</time></trkpt><trkpt lat="44.16678710039184" lon="9.676699696564269"><ele>474.59999999999997</ele><time>2026-05-01T13:58:43.999Z</time></trkpt><trkpt lat="44.166890997173205" lon="9.676724595852004"><ele>476.19999999999993</ele><time>2026-05-01T13:58:44.999Z</time></trkpt><trkpt lat="44.16696621099326" lon="9.676829806774128"><ele>477.8</ele><time>2026-05-01T13:58:45.999Z</time></trkpt><trkpt lat="44.167035623531746" lon="9.676943523058728"><ele>479.4</ele><time>2026-05-01T13:58:46.999Z</time></trkpt><trkpt lat="44.16706346312637" lon="9.67708891761701"><ele>481.0</ele><time>2026-05-01T13:58:47.999Z</time></trkpt><trkpt lat="44.167103575839576" lon="9.67721418737758"><ele>477.8</ele><time>2026-05-01T13:58:48.999Z</time></trkpt><trkpt lat="44.167155859531874" lon="9.677281511202667"><ele>474.6</ele><time>2026-05-01T13:58:49.999Z</time></trkpt><trkpt lat="44.167184679078375" lon="9.67742786360894"><ele>471.4</ele><time>2026-05-01T13:58:51.999Z</time></trkpt><trkpt lat="44.16715412334925" lon="9.677516843621929"><ele>468.2</ele><time>2026-05-01T13:58:52.999Z</time></trkpt><trkpt lat="44.16704400981228" lon="9.67756037782203"><ele>465.0</ele><time>2026-05-01T13:58:53.999Z</time></trkpt><trkpt lat="44.166988162009886" lon="9.677742596166661"><ele>465.1666666666667</ele><time>2026-05-01T13:58:55.999Z</time></trkpt><trkpt lat="44.16697801941789" lon="9.677862051667422"><ele>465.33333333333337</ele><time>2026-05-01T13:58:56.999Z</time></trkpt><trkpt lat="44.16695833219988" lon="9.6779756451796"><ele>465.5</ele><time>2026-05-01T13:58:57.999Z</time></trkpt><trkpt lat="44.1669124578749" lon="9.678069819431153"><ele>465.6666666666667</ele><time>2026-05-01T13:58:58.999Z</time></trkpt><trkpt lat="44.16686003658337" lon="9.678176354773965"><ele>465.83333333333337</ele><time>2026-05-01T13:58:59.999Z</time></trkpt><trkpt lat="44.166806256533306" lon="9.67825104356805"><ele>466.0</ele><time>2026-05-01T13:59:00.999Z</time></trkpt><trkpt lat="44.16674797923247" lon="9.678327871080697"><ele>466.0</ele><time>2026-05-01T13:59:01.999Z</time></trkpt><trkpt lat="44.166675793846004" lon="9.67832198433575"><ele>466.0</ele><time>2026-05-01T13:59:02.999Z</time></trkpt><trkpt lat="44.166612175370425" lon="9.678342412247952"><ele>466.0</ele><time>2026-05-01T13:59:03.999Z</time></trkpt><trkpt lat="44.16653759910217" lon="9.678365304810558"><ele>466.0</ele><time>2026-05-01T13:59:04.999Z</time></trkpt><trkpt lat="44.16646813305345" lon="9.678405438781505"><ele>466.0</ele><time>2026-05-01T13:59:05.999Z</time></trkpt><trkpt lat="44.16641003971822" lon="9.678454730950076"><ele>466.0</ele><time>2026-05-01T13:59:06.999Z</time></trkpt><trkpt lat="44.16635655093648" lon="9.67852162108538"><ele>466.0</ele><time>2026-05-01T13:59:08Z</time></trkpt><trkpt lat="44.16631636516144" lon="9.678595110940828"><ele>462.20000000000005</ele><time>2026-05-01T13:59:09Z</time></trkpt><trkpt lat="44.16619933959489" lon="9.678723798474879"><ele>458.40000000000003</ele><time>2026-05-01T13:59:11Z</time></trkpt><trkpt lat="44.16615353285805" lon="9.67884622931935"><ele>454.6</ele><time>2026-05-01T13:59:13Z</time></trkpt><trkpt lat="44.166117076771165" lon="9.678921263305977"><ele>450.8</ele><time>2026-05-01T13:59:14Z</time></trkpt><trkpt lat="44.16604437633947" lon="9.679063413279533"><ele>447.0</ele><time>2026-05-01T13:59:16Z</time></trkpt><trkpt lat="44.165950444054175" lon="9.67918084041665"><ele>447.0</ele><time>2026-05-01T13:59:18Z</time></trkpt><trkpt lat="44.165861642247386" lon="9.679297419952997"><ele>447.00000000000006</ele><time>2026-05-01T13:59:20Z</time></trkpt><trkpt lat="44.16583274142974" lon="9.679489304549628"><ele>447.00000000000006</ele><time>2026-05-01T13:59:22Z</time></trkpt><trkpt lat="44.16585553308964" lon="9.679576602623202"><ele>447.0</ele><time>2026-05-01T13:59:23Z</time></trkpt><trkpt lat="44.165887343197404" lon="9.679659235480601"><ele>447.0</ele><time>2026-05-01T13:59:24Z</time></trkpt><trkpt lat="44.165989425578815" lon="9.679654177963988"><ele>446.5</ele><time>2026-05-01T13:59:25Z</time></trkpt><trkpt lat="44.166066692142245" lon="9.679636695141147"><ele>446.0</ele><time>2026-05-01T13:59:26Z</time></trkpt><trkpt lat="44.16614476837235" lon="9.679653120246734"><ele>445.5</ele><time>2026-05-01T13:59:27Z</time></trkpt><trkpt lat="44.1662258467465" lon="9.67966941951205"><ele>445.0</ele><time>2026-05-01T13:59:28Z</time></trkpt><trkpt lat="44.16631947488807" lon="9.679673029022846"><ele>444.5</ele><time>2026-05-01T13:59:29Z</time></trkpt><trkpt lat="44.16640266010224" lon="9.679666107483508"><ele>444.0</ele><time>2026-05-01T13:59:30Z</time></trkpt><trkpt lat="44.16649822068848" lon="9.679648733109667"><ele>445.6</ele><time>2026-05-01T13:59:31Z</time></trkpt><trkpt lat="44.16658538908422" lon="9.679640829026775"><ele>447.2</ele><time>2026-05-01T13:59:32Z</time></trkpt><trkpt lat="44.166684977528305" lon="9.679632571309353"><ele>448.80000000000007</ele><time>2026-05-01T13:59:33Z</time></trkpt><trkpt lat="44.16676364249092" lon="9.679694553383806"><ele>450.40000000000003</ele><time>2026-05-01T13:59:34Z</time></trkpt><trkpt lat="44.166845677094976" lon="9.679765130988239"><ele>452.0</ele><time>2026-05-01T13:59:35Z</time></trkpt><trkpt lat="44.1669159490436" lon="9.679852941197797"><ele>451.99999999999994</ele><time>2026-05-01T13:59:36Z</time></trkpt><trkpt lat="44.166971172859164" lon="9.67992869310119"><ele>452.0</ele><time>2026-05-01T13:59:37Z</time></trkpt><trkpt lat="44.16699055781829" lon="9.680022601647867"><ele>452.0</ele><time>2026-05-01T13:59:38Z</time></trkpt><trkpt lat="44.167025560660704" lon="9.680115082049662"><ele>452.0</ele><time>2026-05-01T13:59:39Z</time></trkpt><trkpt lat="44.1670068095755" lon="9.68021855427754"><ele>451.99999999999994</ele><time>2026-05-01T13:59:40Z</time></trkpt><trkpt lat="44.1669751632062" lon="9.680313803812759"><ele>452.0</ele><time>2026-05-01T13:59:41Z</time></trkpt><trkpt lat="44.16690579588214" lon="9.680390237219958"><ele>450.0</ele><time>2026-05-01T13:59:42Z</time></trkpt><trkpt lat="44.16679977108278" lon="9.680430659168337"><ele>448.00000000000006</ele><time>2026-05-01T13:59:43Z</time></trkpt><trkpt lat="44.16672504909266" lon="9.680494616258635"><ele>446.00000000000006</ele><time>2026-05-01T13:59:44Z</time></trkpt><trkpt lat="44.16666886846575" lon="9.680582436189658"><ele>444.0</ele><time>2026-05-01T13:59:45Z</time></trkpt><trkpt lat="44.166624654818655" lon="9.68069568367623"><ele>442.0</ele><time>2026-05-01T13:59:46Z</time></trkpt><trkpt lat="44.16661569176575" lon="9.680815170784642"><ele>442.00000000000006</ele><time>2026-05-01T13:59:47Z</time></trkpt><trkpt lat="44.166652130055354" lon="9.68094837427282"><ele>442.0</ele><time>2026-05-01T13:59:48Z</time></trkpt><trkpt lat="44.16667057190141" lon="9.681049106241657"><ele>442.0</ele><time>2026-05-01T13:59:49Z</time></trkpt><trkpt lat="44.16664334710075" lon="9.681170039607318"><ele>442.0</ele><time>2026-05-01T13:59:51Z</time></trkpt><trkpt lat="44.166551428233085" lon="9.681172250080689"><ele>442.00000000000006</ele><time>2026-05-01T13:59:52Z</time></trkpt><trkpt lat="44.16647072720473" lon="9.68115447090932"><ele>442.0</ele><time>2026-05-01T13:59:53Z</time></trkpt><trkpt lat="44.166377638530875" lon="9.681160562044301"><ele>439.50000000000006</ele><time>2026-05-01T13:59:54Z</time></trkpt><trkpt lat="44.166287189473714" lon="9.681131495337334"><ele>437.0</ele><time>2026-05-01T13:59:55Z</time></trkpt><trkpt lat="44.16618739739153" lon="9.681047902653496"><ele>434.5</ele><time>2026-05-01T13:59:57Z</time></trkpt><trkpt lat="44.166165719634776" lon="9.680960456398164"><ele>432.0</ele><time>2026-05-01T13:59:58Z</time></trkpt><trkpt lat="44.1662162661241" lon="9.680860338224873"><ele>429.50000000000006</ele><time>2026-05-01T13:59:59Z</time></trkpt><trkpt lat="44.16628486635341" lon="9.680793112346658"><ele>427.0</ele><time>2026-05-01T14:00:00Z</time></trkpt><trkpt lat="44.16633360033191" lon="9.680727625093246"><ele>427.0</ele><time>2026-05-01T14:00:01Z</time></trkpt><trkpt lat="44.16629417929449" lon="9.680603282050871"><ele>427.00000000000006</ele><time>2026-05-01T14:00:03Z</time></trkpt><trkpt lat="44.16617033628424" lon="9.680655977893506"><ele>427.00000000000006</ele><time>2026-05-01T14:00:05Z</time></trkpt><trkpt lat="44.166047509659805" lon="9.680727520514804"><ele>427.0</ele><time>2026-05-01T14:00:06.999Z</time></trkpt><trkpt lat="44.16598911607009" lon="9.680791313530579"><ele>427.0</ele><time>2026-05-01T14:00:07.999Z</time></trkpt><trkpt lat="44.165923612433794" lon="9.680825211524148"><ele>427.0</ele><time>2026-05-01T14:00:08.999Z</time></trkpt><trkpt lat="44.165866481345724" lon="9.680877713904746"><ele>427.00000000000006</ele><time>2026-05-01T14:00:09.999Z</time></trkpt><trkpt lat="44.16584731731085" lon="9.68099330099871"><ele>427.00000000000006</ele><time>2026-05-01T14:00:10.999Z</time></trkpt><trkpt lat="44.165798871758895" lon="9.681159950255335"><ele>427.0</ele><time>2026-05-01T14:00:11.999Z</time></trkpt><trkpt lat="44.165728911531716" lon="9.681290397674733"><ele>427.0</ele><time>2026-05-01T14:00:12.999Z</time></trkpt><trkpt lat="44.16564498691093" lon="9.681415297566769"><ele>422.6</ele><time>2026-05-01T14:00:13.999Z</time></trkpt><trkpt lat="44.165577572152515" lon="9.681496072016323"><ele>418.20000000000005</ele><time>2026-05-01T14:00:14.999Z</time></trkpt><trkpt lat="44.16550122596671" lon="9.681539674636026"><ele>413.8</ele><time>2026-05-01T14:00:15.999Z</time></trkpt><trkpt lat="44.16536868946171" lon="9.681505212748675"><ele>409.4</ele><time>2026-05-01T14:00:17.999Z</time></trkpt><trkpt lat="44.16528737605053" lon="9.681531254911643"><ele>405.0</ele><time>2026-05-01T14:00:18.999Z</time></trkpt><trkpt lat="44.16486003690577" lon="9.681668150578796"><ele>402.1666666666667</ele><time>2026-05-01T14:00:19.999Z</time></trkpt><trkpt lat="44.16475172147806" lon="9.6817931259733"><ele>399.33333333333337</ele><time>2026-05-01T14:00:20.999Z</time></trkpt><trkpt lat="44.16468285868847" lon="9.68186518114228"><ele>396.5</ele><time>2026-05-01T14:00:21.999Z</time></trkpt><trkpt lat="44.164637146649696" lon="9.68193499177651"><ele>393.6666666666667</ele><time>2026-05-01T14:00:25.999Z</time></trkpt><trkpt lat="44.164592169108104" lon="9.682022412030031"><ele>390.83333333333337</ele><time>2026-05-01T14:00:26.999Z</time></trkpt><trkpt lat="44.16455452292545" lon="9.682114450180256"><ele>388.0</ele><time>2026-05-01T14:00:27.999Z</time></trkpt><trkpt lat="44.164571740755015" lon="9.682238577140359"><ele>387.33333333333337</ele><time>2026-05-01T14:00:28.999Z</time></trkpt><trkpt lat="44.164556489583944" lon="9.682359579263476"><ele>386.66666666666663</ele><time>2026-05-01T14:00:29.999Z</time></trkpt><trkpt lat="44.16464102398544" lon="9.68266879616153"><ele>386.0</ele><time>2026-05-01T14:00:31.999Z</time></trkpt><trkpt lat="44.1645809447353" lon="9.682890179029128"><ele>386.0</ele><time>2026-05-01T14:00:32.999Z</time></trkpt><trkpt lat="44.164325055209964" lon="9.68287734931573"><ele>386.0</ele><time>2026-05-01T14:00:33.999Z</time></trkpt><trkpt lat="44.16440770342" lon="9.683083035832682"><ele>386.0</ele><time>2026-05-01T14:00:34.999Z</time></trkpt><trkpt lat="44.16438846668126" lon="9.683200575294679"><ele>385.99999999999994</ele><time>2026-05-01T14:00:35.999Z</time></trkpt><trkpt lat="44.16435356869011" lon="9.683340334608816"><ele>386.0</ele><time>2026-05-01T14:00:37.999Z</time></trkpt><trkpt lat="44.164440003373294" lon="9.683307051349725"><ele>386.0</ele><time>2026-05-01T14:00:40.999Z</time></trkpt><trkpt lat="44.16444436997221" lon="9.68319814636318"><ele>386.0</ele><time>2026-05-01T14:00:42.999Z</time></trkpt><trkpt lat="44.16444653544294" lon="9.683294730367294"><ele>385.99999999999994</ele><time>2026-05-01T14:00:47.999Z</time></trkpt><trkpt lat="44.16448909228439" lon="9.68319426777078"><ele>386.0</ele><time>2026-05-01T14:02:32.999Z</time></trkpt><trkpt lat="44.164543276523986" lon="9.683096111539971"><ele>386.0</ele><time>2026-05-01T14:02:34.999Z</time></trkpt><trkpt lat="44.164598207633475" lon="9.682975274057137"><ele>386.0</ele><time>2026-05-01T14:02:36.999Z</time></trkpt><trkpt lat="44.16465041196395" lon="9.682826237398935"><ele>386.0</ele><time>2026-05-01T14:02:38.999Z</time></trkpt><trkpt lat="44.16466444850318" lon="9.682738462757039"><ele>386.0</ele><time>2026-05-01T14:02:39.999Z</time></trkpt><trkpt lat="44.164667585412985" lon="9.682548502400124"><ele>386.0</ele><time>2026-05-01T14:02:41.999Z</time></trkpt><trkpt lat="44.16464439710194" lon="9.682360001851444"><ele>386.28571428571433</ele><time>2026-05-01T14:02:43.999Z</time></trkpt><trkpt lat="44.16463370827083" lon="9.682273286376788"><ele>386.57142857142856</ele><time>2026-05-01T14:02:44.999Z</time></trkpt><trkpt lat="44.164614565181694" lon="9.682183595124757"><ele>386.8571428571429</ele><time>2026-05-01T14:02:45.999Z</time></trkpt><trkpt lat="44.16462620680271" lon="9.682089773348114"><ele>387.14285714285717</ele><time>2026-05-01T14:02:46.999Z</time></trkpt><trkpt lat="44.164656653770926" lon="9.682004235666872"><ele>387.42857142857144</ele><time>2026-05-01T14:02:47.999Z</time></trkpt><trkpt lat="44.16469235272108" lon="9.681930587897094"><ele>387.7142857142857</ele><time>2026-05-01T14:02:48.999Z</time></trkpt><trkpt lat="44.16477147907673" lon="9.681832953136553"><ele>388.0</ele><time>2026-05-01T14:02:50.999Z</time></trkpt><trkpt lat="44.1648213602167" lon="9.681743971437715"><ele>391.4</ele><time>2026-05-01T14:02:51.999Z</time></trkpt><trkpt lat="44.164880582270705" lon="9.681694379389901"><ele>394.79999999999995</ele><time>2026-05-01T14:02:52.999Z</time></trkpt><trkpt lat="44.16498260045423" lon="9.681588099881493"><ele>398.2</ele><time>2026-05-01T14:02:54.999Z</time></trkpt><trkpt lat="44.16504260871327" lon="9.681550151594157"><ele>401.6</ele><time>2026-05-01T14:02:55.999Z</time></trkpt><trkpt lat="44.16516977746607" lon="9.681540536782917"><ele>405.0</ele><time>2026-05-01T14:02:57.999Z</time></trkpt><trkpt lat="44.16525718352054" lon="9.681558614199824"><ele>404.99999999999994</ele><time>2026-05-01T14:02:58.999Z</time></trkpt><trkpt lat="44.16532956515594" lon="9.681553733183959"><ele>405.0</ele><time>2026-05-01T14:02:59.999Z</time></trkpt><trkpt lat="44.16539477915505" lon="9.681535382004562"><ele>405.0</ele><time>2026-05-01T14:03:00.999Z</time></trkpt><trkpt lat="44.16545908641826" lon="9.681522378803832"><ele>405.0</ele><time>2026-05-01T14:03:01.999Z</time></trkpt><trkpt lat="44.16553355622497" lon="9.681525696735966"><ele>405.0</ele><time>2026-05-01T14:03:02.999Z</time></trkpt><trkpt lat="44.1656050043441" lon="9.681515664158379"><ele>404.99999999999994</ele><time>2026-05-01T14:03:03.999Z</time></trkpt><trkpt lat="44.1656757150354" lon="9.681466893406911"><ele>405.0</ele><time>2026-05-01T14:03:04.999Z</time></trkpt><trkpt lat="44.16572983560343" lon="9.681408900835327"><ele>407.6</ele><time>2026-05-01T14:03:05.999Z</time></trkpt><trkpt lat="44.165771762473135" lon="9.681326699727396"><ele>410.2</ele><time>2026-05-01T14:03:06.999Z</time></trkpt><trkpt lat="44.16581341675118" lon="9.681239051928593"><ele>412.79999999999995</ele><time>2026-05-01T14:03:07.999Z</time></trkpt><trkpt lat="44.16585909482291" lon="9.681168149558045"><ele>415.4</ele><time>2026-05-01T14:03:08.999Z</time></trkpt><trkpt lat="44.165902059449046" lon="9.68100495407909"><ele>418.0</ele><time>2026-05-01T14:03:10.999Z</time></trkpt><trkpt lat="44.165961285100025" lon="9.680856611078681"><ele>419.50000000000006</ele><time>2026-05-01T14:03:12.999Z</time></trkpt><trkpt lat="44.1660560836122" lon="9.68074816001743"><ele>421.0</ele><time>2026-05-01T14:03:14.999Z</time></trkpt><trkpt lat="44.16611972621072" lon="9.680715538791956"><ele>422.5</ele><time>2026-05-01T14:03:15.999Z</time></trkpt><trkpt lat="44.16618420104453" lon="9.68068174501876"><ele>424.0</ele><time>2026-05-01T14:03:16.999Z</time></trkpt><trkpt lat="44.16624007576964" lon="9.680638156771026"><ele>425.50000000000006</ele><time>2026-05-01T14:03:17.999Z</time></trkpt><trkpt lat="44.16632182482262" lon="9.680688420639225"><ele>427.0</ele><time>2026-05-01T14:03:20Z</time></trkpt><trkpt lat="44.16627293914275" lon="9.680811992166184"><ele>427.0</ele><time>2026-05-01T14:03:22Z</time></trkpt><trkpt lat="44.16618319455226" lon="9.680915034151086"><ele>427.00000000000006</ele><time>2026-05-01T14:03:24Z</time></trkpt><trkpt lat="44.16617256848309" lon="9.68108232516912"><ele>427.00000000000006</ele><time>2026-05-01T14:03:26Z</time></trkpt><trkpt lat="44.16622416208046" lon="9.681155886392428"><ele>427.0</ele><time>2026-05-01T14:03:27Z</time></trkpt><trkpt lat="44.16628673664284" lon="9.681207582071462"><ele>427.0</ele><time>2026-05-01T14:03:28Z</time></trkpt><trkpt lat="44.16636815511844" lon="9.68119480934364"><ele>427.2857142857143</ele><time>2026-05-01T14:03:29Z</time></trkpt><trkpt lat="44.16643791874985" lon="9.68118867148013"><ele>427.57142857142856</ele><time>2026-05-01T14:03:30Z</time></trkpt><trkpt lat="44.166505376817554" lon="9.681190569204501"><ele>427.8571428571429</ele><time>2026-05-01T14:03:31Z</time></trkpt><trkpt lat="44.16657424298295" lon="9.681191459918498"><ele>428.1428571428571</ele><time>2026-05-01T14:03:32Z</time></trkpt><trkpt lat="44.16664253931858" lon="9.6811815093351"><ele>428.42857142857144</ele><time>2026-05-01T14:03:33Z</time></trkpt><trkpt lat="44.166702471337814" lon="9.681126882015748"><ele>428.7142857142857</ele><time>2026-05-01T14:03:34Z</time></trkpt><trkpt lat="44.16673449033613" lon="9.681049695377725"><ele>429.0</ele><time>2026-05-01T14:03:35Z</time></trkpt><trkpt lat="44.16668818033264" lon="9.68092167915577"><ele>431.1666666666667</ele><time>2026-05-01T14:03:36Z</time></trkpt><trkpt lat="44.166646429229566" lon="9.680830721567679"><ele>433.33333333333337</ele><time>2026-05-01T14:03:37Z</time></trkpt><trkpt lat="44.16663812773751" lon="9.680726446571398"><ele>435.5</ele><time>2026-05-01T14:03:38Z</time></trkpt><trkpt lat="44.1666860574536" lon="9.680615963817191"><ele>437.6666666666667</ele><time>2026-05-01T14:03:39Z</time></trkpt><trkpt lat="44.166745201134155" lon="9.680541158681779"><ele>439.83333333333337</ele><time>2026-05-01T14:03:40Z</time></trkpt><trkpt lat="44.16681408153056" lon="9.680480072117295"><ele>442.0</ele><time>2026-05-01T14:03:41Z</time></trkpt><trkpt lat="44.166885932206945" lon="9.680425809248781"><ele>442.00000000000006</ele><time>2026-05-01T14:03:42Z</time></trkpt><trkpt lat="44.16694874564574" lon="9.680365504854532"><ele>442.0</ele><time>2026-05-01T14:03:43Z</time></trkpt><trkpt lat="44.167009115718535" lon="9.680307759187372"><ele>442.0</ele><time>2026-05-01T14:03:44Z</time></trkpt><trkpt lat="44.167034911717515" lon="9.68020092683467"><ele>442.0</ele><time>2026-05-01T14:03:45Z</time></trkpt><trkpt lat="44.167037946467865" lon="9.680089790765242"><ele>442.00000000000006</ele><time>2026-05-01T14:03:46Z</time></trkpt><trkpt lat="44.16702700974057" lon="9.679979142477672"><ele>442.0</ele><time>2026-05-01T14:03:47Z</time></trkpt><trkpt lat="44.16696881677567" lon="9.679877073251216"><ele>442.33333333333337</ele><time>2026-05-01T14:03:48Z</time></trkpt><trkpt lat="44.166905973181564" lon="9.67978356592221"><ele>442.6666666666667</ele><time>2026-05-01T14:03:49Z</time></trkpt><trkpt lat="44.16682819597101" lon="9.679709433379495"><ele>443.0</ele><time>2026-05-01T14:03:50Z</time></trkpt><trkpt lat="44.166754701414" lon="9.679645132926655"><ele>443.33333333333337</ele><time>2026-05-01T14:03:51Z</time></trkpt><trkpt lat="44.166677281782974" lon="9.679602026729123"><ele>443.6666666666667</ele><time>2026-05-01T14:03:52Z</time></trkpt><trkpt lat="44.166596733242876" lon="9.679592711757145"><ele>444.0</ele><time>2026-05-01T14:03:53Z</time></trkpt><trkpt lat="44.16651304052357" lon="9.679596745877216"><ele>444.0</ele><time>2026-05-01T14:03:54Z</time></trkpt><trkpt lat="44.16642886049813" lon="9.679608891540568"><ele>444.0</ele><time>2026-05-01T14:03:55Z</time></trkpt><trkpt lat="44.16635393640763" lon="9.679637502663486"><ele>444.0</ele><time>2026-05-01T14:03:56Z</time></trkpt><trkpt lat="44.16627291470087" lon="9.679647498882716"><ele>444.0</ele><time>2026-05-01T14:03:57Z</time></trkpt><trkpt lat="44.166194927427746" lon="9.679636911324666"><ele>444.0</ele><time>2026-05-01T14:03:58Z</time></trkpt><trkpt lat="44.16611595874625" lon="9.679615834500321"><ele>444.0</ele><time>2026-05-01T14:03:59Z</time></trkpt><trkpt lat="44.16603601957699" lon="9.679603361236087"><ele>444.0</ele><time>2026-05-01T14:04:00Z</time></trkpt><trkpt lat="44.16595913068614" lon="9.679593617479437"><ele>444.0</ele><time>2026-05-01T14:04:01Z</time></trkpt><trkpt lat="44.16589455528919" lon="9.679570337814233"><ele>444.0</ele><time>2026-05-01T14:04:02Z</time></trkpt><trkpt lat="44.16583503903794" lon="9.679421704214116"><ele>444.0</ele><time>2026-05-01T14:04:03.999Z</time></trkpt><trkpt lat="44.165858078749224" lon="9.679338076956466"><ele>444.0</ele><time>2026-05-01T14:04:04.999Z</time></trkpt><trkpt lat="44.16590656070238" lon="9.679245928970694"><ele>444.0</ele><time>2026-05-01T14:04:05.999Z</time></trkpt><trkpt lat="44.16598041534926" lon="9.679186908633575"><ele>444.6</ele><time>2026-05-01T14:04:06.999Z</time></trkpt><trkpt lat="44.166032787850284" lon="9.679094012574875"><ele>445.2</ele><time>2026-05-01T14:04:07.999Z</time></trkpt><trkpt lat="44.16610405376186" lon="9.679006525689491"><ele>445.80000000000007</ele><time>2026-05-01T14:04:08.999Z</time></trkpt><trkpt lat="44.16615407688703" lon="9.678899745835512"><ele>446.40000000000003</ele><time>2026-05-01T14:04:09.999Z</time></trkpt><trkpt lat="44.16620835198531" lon="9.67878450601934"><ele>447.0</ele><time>2026-05-01T14:04:10.999Z</time></trkpt><trkpt lat="44.16627794436327" lon="9.67868850658536"><ele>446.6</ele><time>2026-05-01T14:04:11.999Z</time></trkpt><trkpt lat="44.16634867166465" lon="9.678584258095679"><ele>446.20000000000005</ele><time>2026-05-01T14:04:12.999Z</time></trkpt><trkpt lat="44.16642454216154" lon="9.678488533950047"><ele>445.8</ele><time>2026-05-01T14:04:13.999Z</time></trkpt><trkpt lat="44.16650699844269" lon="9.678416393624696"><ele>445.4</ele><time>2026-05-01T14:04:14.999Z</time></trkpt><trkpt lat="44.16659950945045" lon="9.678361535047815"><ele>445.0</ele><time>2026-05-01T14:04:15.999Z</time></trkpt><trkpt lat="44.16669648925497" lon="9.678342556884921"><ele>449.2</ele><time>2026-05-01T14:04:16.999Z</time></trkpt><trkpt lat="44.16679756335674" lon="9.678323874984414"><ele>453.4</ele><time>2026-05-01T14:04:17.999Z</time></trkpt><trkpt lat="44.16687373708024" lon="9.678251453288242"><ele>457.6</ele><time>2026-05-01T14:04:18.999Z</time></trkpt><trkpt lat="44.166921616892694" lon="9.678148115187877"><ele>461.8</ele><time>2026-05-01T14:04:19.999Z</time></trkpt><trkpt lat="44.166966341568624" lon="9.678042072973513"><ele>466.0</ele><time>2026-05-01T14:04:20.999Z</time></trkpt><trkpt lat="44.16699473844245" lon="9.677931098486125"><ele>466.00000000000006</ele><time>2026-05-01T14:04:21.999Z</time></trkpt><trkpt lat="44.167010380862166" lon="9.67781227010501"><ele>466.0</ele><time>2026-05-01T14:04:22.999Z</time></trkpt><trkpt lat="44.1670299168419" lon="9.677703313319494"><ele>466.0</ele><time>2026-05-01T14:04:23.999Z</time></trkpt><trkpt lat="44.16706930130159" lon="9.677596273491616"><ele>466.0</ele><time>2026-05-01T14:04:24.999Z</time></trkpt><trkpt lat="44.16713192296489" lon="9.677527828836924"><ele>466.00000000000006</ele><time>2026-05-01T14:04:25.999Z</time></trkpt><trkpt lat="44.16719790405212" lon="9.677461662321043"><ele>466.0</ele><time>2026-05-01T14:04:26.999Z</time></trkpt><trkpt lat="44.167215707146255" lon="9.677346813548763"><ele>465.83333333333337</ele><time>2026-05-01T14:04:27.999Z</time></trkpt><trkpt lat="44.16718741943338" lon="9.677227587179704"><ele>465.6666666666667</ele><time>2026-05-01T14:04:28.999Z</time></trkpt><trkpt lat="44.16712695857098" lon="9.677137586029227"><ele>465.5</ele><time>2026-05-01T14:04:29.999Z</time></trkpt><trkpt lat="44.16706675838201" lon="9.67705669897983"><ele>465.33333333333337</ele><time>2026-05-01T14:04:30.999Z</time></trkpt><trkpt lat="44.167043977900256" lon="9.676944245835386"><ele>465.1666666666667</ele><time>2026-05-01T14:04:31.999Z</time></trkpt><trkpt lat="44.16700166764131" lon="9.676834125080402"><ele>465.0</ele><time>2026-05-01T14:04:32.999Z</time></trkpt><trkpt lat="44.16694864868117" lon="9.676751153427901"><ele>466.1428571428571</ele><time>2026-05-01T14:04:33.999Z</time></trkpt><trkpt lat="44.166876014249006" lon="9.676689784467143"><ele>467.28571428571433</ele><time>2026-05-01T14:04:34.999Z</time></trkpt><trkpt lat="44.16679959468156" lon="9.676652008610018"><ele>468.42857142857144</ele><time>2026-05-01T14:04:35.999Z</time></trkpt><trkpt lat="44.16672557306187" lon="9.676643504887737"><ele>469.57142857142856</ele><time>2026-05-01T14:04:36.999Z</time></trkpt><trkpt lat="44.166653728113396" lon="9.676644464521797"><ele>470.71428571428567</ele><time>2026-05-01T14:04:37.999Z</time></trkpt><trkpt lat="44.16658153404758" lon="9.676652495942601"><ele>471.8571428571429</ele><time>2026-05-01T14:04:38.999Z</time></trkpt><trkpt lat="44.16651728040808" lon="9.676657100721226"><ele>473.0</ele><time>2026-05-01T14:04:39.999Z</time></trkpt><trkpt lat="44.16644638941097" lon="9.676653550948243"><ele>473.0</ele><time>2026-05-01T14:04:40.999Z</time></trkpt><trkpt lat="44.16638780996618" lon="9.676594688168041"><ele>473.0</ele><time>2026-05-01T14:04:41.999Z</time></trkpt><trkpt lat="44.166331739951836" lon="9.67654273952393"><ele>473.0</ele><time>2026-05-01T14:04:42.999Z</time></trkpt><trkpt lat="44.16626504594096" lon="9.676490168442559"><ele>473.0</ele><time>2026-05-01T14:04:43.999Z</time></trkpt><trkpt lat="44.16622554899107" lon="9.676398348848696"><ele>473.0</ele><time>2026-05-01T14:04:44.999Z</time></trkpt><trkpt lat="44.16617745782812" lon="9.676316482446838"><ele>473.0</ele><time>2026-05-01T14:04:45.999Z</time></trkpt><trkpt lat="44.16614210820268" lon="9.676221468914816"><ele>473.0</ele><time>2026-05-01T14:04:46.999Z</time></trkpt><trkpt lat="44.16615232121165" lon="9.67611175648698"><ele>476.59999999999997</ele><time>2026-05-01T14:04:47.999Z</time></trkpt><trkpt lat="44.16610946412999" lon="9.676019774569026"><ele>480.19999999999993</ele><time>2026-05-01T14:04:48.999Z</time></trkpt><trkpt lat="44.16606765686753" lon="9.675935423216956"><ele>483.8</ele><time>2026-05-01T14:04:49.999Z</time></trkpt><trkpt lat="44.166024610787005" lon="9.675864751911956"><ele>487.4</ele><time>2026-05-01T14:04:50.999Z</time></trkpt><trkpt lat="44.16588150395736" lon="9.675834381550079"><ele>491.0</ele><time>2026-05-01T14:04:51.999Z</time></trkpt><trkpt lat="44.165798859806216" lon="9.675875279224732"><ele>490.99999999999994</ele><time>2026-05-01T14:04:52.999Z</time></trkpt><trkpt lat="44.16571627692394" lon="9.67587517055478"><ele>491.0</ele><time>2026-05-01T14:04:53.999Z</time></trkpt><trkpt lat="44.16563410516258" lon="9.675872985006464"><ele>491.0</ele><time>2026-05-01T14:04:54.999Z</time></trkpt><trkpt lat="44.16556815317519" lon="9.675825176167523"><ele>491.0</ele><time>2026-05-01T14:04:55.999Z</time></trkpt><trkpt lat="44.16552885016665" lon="9.675724399978806"><ele>490.99999999999994</ele><time>2026-05-01T14:04:57.999Z</time></trkpt><trkpt lat="44.165608143866926" lon="9.675630680784664"><ele>491.0</ele><time>2026-05-01T14:04:59.999Z</time></trkpt><trkpt lat="44.16567113943225" lon="9.675513332287997"><ele>491.0</ele><time>2026-05-01T14:05:01.999Z</time></trkpt><trkpt lat="44.165692911643994" lon="9.675361188786024"><ele>491.0</ele><time>2026-05-01T14:05:03.999Z</time></trkpt><trkpt lat="44.16575488819958" lon="9.675231882852376"><ele>491.0</ele><time>2026-05-01T14:05:05.999Z</time></trkpt><trkpt lat="44.165872181033144" lon="9.675230884711468"><ele>491.0</ele><time>2026-05-01T14:05:07.999Z</time></trkpt><trkpt lat="44.16593692618803" lon="9.675252240182427"><ele>491.0</ele><time>2026-05-01T14:05:08.999Z</time></trkpt><trkpt lat="44.166001123238274" lon="9.675281171824242"><ele>491.0</ele><time>2026-05-01T14:05:09.999Z</time></trkpt><trkpt lat="44.16607332064619" lon="9.675322589656462"><ele>490.99999999999994</ele><time>2026-05-01T14:05:10.999Z</time></trkpt><trkpt lat="44.166138179882246" lon="9.67535921352642"><ele>491.0</ele><time>2026-05-01T14:05:11.999Z</time></trkpt><trkpt lat="44.16619201146096" lon="9.67543055093858"><ele>491.0</ele><time>2026-05-01T14:05:12.999Z</time></trkpt><trkpt lat="44.16624295223309" lon="9.675491474269734"><ele>490.99999999999994</ele><time>2026-05-01T14:05:13.999Z</time></trkpt><trkpt lat="44.16631066754203" lon="9.675541366285522"><ele>491.0</ele><time>2026-05-01T14:05:14.999Z</time></trkpt><trkpt lat="44.16636354662078" lon="9.675606149476831"><ele>491.0</ele><time>2026-05-01T14:05:15.999Z</time></trkpt><trkpt lat="44.166451571007464" lon="9.675592509350007"><ele>492.66666666666663</ele><time>2026-05-01T14:05:16.999Z</time></trkpt><trkpt lat="44.16653829396629" lon="9.675580463759509"><ele>494.3333333333333</ele><time>2026-05-01T14:05:17.999Z</time></trkpt><trkpt lat="44.16661759261328" lon="9.675573649760858"><ele>496.0</ele><time>2026-05-01T14:05:18.999Z</time></trkpt><trkpt lat="44.166694233959134" lon="9.675561603255478"><ele>497.66666666666663</ele><time>2026-05-01T14:05:19.999Z</time></trkpt><trkpt lat="44.16676982158867" lon="9.675565412399498"><ele>499.3333333333333</ele><time>2026-05-01T14:05:20.999Z</time></trkpt><trkpt lat="44.16683897547255" lon="9.675599459372217"><ele>501.0</ele><time>2026-05-01T14:05:21.999Z</time></trkpt><trkpt lat="44.166899224676186" lon="9.675644722662662"><ele>501.0</ele><time>2026-05-01T14:05:22.999Z</time></trkpt><trkpt lat="44.16697059315255" lon="9.675676658775457"><ele>501.0</ele><time>2026-05-01T14:05:23.999Z</time></trkpt><trkpt lat="44.16703473359796" lon="9.675727575288878"><ele>501.0</ele><time>2026-05-01T14:05:24.999Z</time></trkpt><trkpt lat="44.16710242104033" lon="9.67576536871515"><ele>501.0</ele><time>2026-05-01T14:05:26Z</time></trkpt><trkpt lat="44.167167220605755" lon="9.675778223287331"><ele>501.0</ele><time>2026-05-01T14:05:27Z</time></trkpt><trkpt lat="44.1672437065178" lon="9.675755594448058"><ele>501.0</ele><time>2026-05-01T14:05:28Z</time></trkpt><trkpt lat="44.16730397789633" lon="9.675700290743414"><ele>501.0</ele><time>2026-05-01T14:05:29Z</time></trkpt><trkpt lat="44.167353872581224" lon="9.675620784949325"><ele>503.4</ele><time>2026-05-01T14:05:30Z</time></trkpt><trkpt lat="44.16739950405636" lon="9.675553421494953"><ele>505.8</ele><time>2026-05-01T14:05:31Z</time></trkpt><trkpt lat="44.16745995258727" lon="9.6755268554403"><ele>508.19999999999993</ele><time>2026-05-01T14:05:32Z</time></trkpt><trkpt lat="44.16754290278666" lon="9.675634645222626"><ele>510.59999999999997</ele><time>2026-05-01T14:05:34Z</time></trkpt><trkpt lat="44.1675531207556" lon="9.675799242020224"><ele>513.0</ele><time>2026-05-01T14:05:36Z</time></trkpt><trkpt lat="44.16765498563275" lon="9.675892267060664"><ele>513.0000000000001</ele><time>2026-05-01T14:05:38Z</time></trkpt><trkpt lat="44.16772468915298" lon="9.675903464032842"><ele>513.0</ele><time>2026-05-01T14:05:39Z</time></trkpt><trkpt lat="44.1677959317562" lon="9.675887340688838"><ele>513.0</ele><time>2026-05-01T14:05:40Z</time></trkpt><trkpt lat="44.167865003660424" lon="9.675853956932995"><ele>513.0</ele><time>2026-05-01T14:05:41Z</time></trkpt><trkpt lat="44.167928743014436" lon="9.675828286313534"><ele>513.0</ele><time>2026-05-01T14:05:42Z</time></trkpt><trkpt lat="44.16799082080775" lon="9.675806440132297"><ele>513.0000000000001</ele><time>2026-05-01T14:05:43Z</time></trkpt><trkpt lat="44.1680591058309" lon="9.675788765308626"><ele>513.0</ele><time>2026-05-01T14:05:44Z</time></trkpt><trkpt lat="44.16812616046031" lon="9.67578860735657"><ele>516.6666666666666</ele><time>2026-05-01T14:05:45Z</time></trkpt><trkpt lat="44.16819505695361" lon="9.675806754759343"><ele>520.3333333333334</ele><time>2026-05-01T14:05:46Z</time></trkpt><trkpt lat="44.16825218171103" lon="9.675850963006468"><ele>524.0</ele><time>2026-05-01T14:05:47Z</time></trkpt><trkpt lat="44.16836103221221" lon="9.675973445905644"><ele>527.6666666666667</ele><time>2026-05-01T14:05:49Z</time></trkpt><trkpt lat="44.16842861230132" lon="9.676011555470641"><ele>531.3333333333334</ele><time>2026-05-01T14:05:50Z</time></trkpt><trkpt lat="44.168501065907755" lon="9.676017452560872"><ele>535.0</ele><time>2026-05-01T14:05:51Z</time></trkpt><trkpt lat="44.16858560800191" lon="9.676011412354228"><ele>535.0</ele><time>2026-05-01T14:05:52Z</time></trkpt><trkpt lat="44.16866586320927" lon="9.675996033795686"><ele>535.0</ele><time>2026-05-01T14:05:53Z</time></trkpt><trkpt lat="44.16874947215624" lon="9.67598485252026"><ele>535.0</ele><time>2026-05-01T14:05:54Z</time></trkpt><trkpt lat="44.16882657798706" lon="9.675995921905365"><ele>535.0</ele><time>2026-05-01T14:05:55Z</time></trkpt><trkpt lat="44.16890479655594" lon="9.676049554418382"><ele>535.0</ele><time>2026-05-01T14:05:56Z</time></trkpt><trkpt lat="44.1689689498948" lon="9.676097377165014"><ele>535.0</ele><time>2026-05-01T14:05:57Z</time></trkpt><trkpt lat="44.16904199711741" lon="9.676168580971247"><ele>535.1666666666667</ele><time>2026-05-01T14:05:58Z</time></trkpt><trkpt lat="44.16912385737235" lon="9.676223334413988"><ele>535.3333333333334</ele><time>2026-05-01T14:05:59Z</time></trkpt><trkpt lat="44.1691799548693" lon="9.676313847888263"><ele>535.5</ele><time>2026-05-01T14:06:00Z</time></trkpt><trkpt lat="44.16923491550597" lon="9.676410447512346"><ele>535.6666666666666</ele><time>2026-05-01T14:06:01Z</time></trkpt><trkpt lat="44.169281696050085" lon="9.676512287664318"><ele>535.8333333333333</ele><time>2026-05-01T14:06:02Z</time></trkpt><trkpt lat="44.16931734919143" lon="9.676627220518453"><ele>536.0</ele><time>2026-05-01T14:06:03Z</time></trkpt><trkpt lat="44.16937449181843" lon="9.676729254312246"><ele>536.0</ele><time>2026-05-01T14:06:04Z</time></trkpt><trkpt lat="44.16941177473204" lon="9.676846047785336"><ele>536.0</ele><time>2026-05-01T14:06:05Z</time></trkpt><trkpt lat="44.16946125194373" lon="9.676950768948508"><ele>536.0</ele><time>2026-05-01T14:06:06Z</time></trkpt><trkpt lat="44.16950622247452" lon="9.677047834870766"><ele>536.0</ele><time>2026-05-01T14:06:07Z</time></trkpt><trkpt lat="44.16955065065015" lon="9.677130453553543"><ele>536.0</ele><time>2026-05-01T14:06:08Z</time></trkpt><trkpt lat="44.16962112348776" lon="9.677162850080446"><ele>536.0</ele><time>2026-05-01T14:06:09Z</time></trkpt><trkpt lat="44.16973065212297" lon="9.677096608920117"><ele>536.0</ele><time>2026-05-01T14:06:11Z</time></trkpt><trkpt lat="44.169748663205326" lon="9.676998084578754"><ele>536.0</ele><time>2026-05-01T14:06:12Z</time></trkpt><trkpt lat="44.16972970490079" lon="9.676898813087373"><ele>536.0</ele><time>2026-05-01T14:06:13Z</time></trkpt><trkpt lat="44.16968794204783" lon="9.676765870883008"><ele>536.0</ele><time>2026-05-01T14:06:15Z</time></trkpt><trkpt lat="44.169634501295405" lon="9.676653640426336"><ele>536.0</ele><time>2026-05-01T14:06:17Z</time></trkpt><trkpt lat="44.16962197448678" lon="9.676553005913078"><ele>536.0</ele><time>2026-05-01T14:06:18Z</time></trkpt><trkpt lat="44.16955389739913" lon="9.676441499943815"><ele>536.0</ele><time>2026-05-01T14:06:20Z</time></trkpt><trkpt lat="44.169497834656106" lon="9.676319020948593"><ele>536.0</ele><time>2026-05-01T14:06:22Z</time></trkpt><trkpt lat="44.169450241059835" lon="9.676259935891949"><ele>536.0</ele><time>2026-05-01T14:06:23Z</time></trkpt><trkpt lat="44.169379450337495" lon="9.67611936252583"><ele>536.0</ele><time>2026-05-01T14:06:25Z</time></trkpt><trkpt lat="44.16933433177322" lon="9.676048263226877"><ele>536.0</ele><time>2026-05-01T14:06:26Z</time></trkpt><trkpt lat="44.16928415254225" lon="9.675966970180307"><ele>536.0</ele><time>2026-05-01T14:06:27Z</time></trkpt><trkpt lat="44.169239568980444" lon="9.67590054897018"><ele>535.8333333333333</ele><time>2026-05-01T14:06:28Z</time></trkpt><trkpt lat="44.16919336671758" lon="9.675836759171247"><ele>535.6666666666666</ele><time>2026-05-01T14:06:29Z</time></trkpt><trkpt lat="44.1691483806955" lon="9.675770827259605"><ele>535.5</ele><time>2026-05-01T14:06:30Z</time></trkpt><trkpt lat="44.169100693634604" lon="9.675709610503512"><ele>535.3333333333334</ele><time>2026-05-01T14:06:31Z</time></trkpt><trkpt lat="44.16902096770706" lon="9.67560549854551"><ele>535.1666666666667</ele><time>2026-05-01T14:06:33Z</time></trkpt><trkpt lat="44.16893999934968" lon="9.675458059392266"><ele>535.0</ele><time>2026-05-01T14:06:35Z</time></trkpt><trkpt lat="44.168926729852544" lon="9.675278602508197"><ele>536.0</ele><time>2026-05-01T14:06:37Z</time></trkpt><trkpt lat="44.16896678723104" lon="9.67518867012628"><ele>537.0</ele><time>2026-05-01T14:06:38Z</time></trkpt><trkpt lat="44.16902224007541" lon="9.675043367462766"><ele>538.0</ele><time>2026-05-01T14:06:40Z</time></trkpt><trkpt lat="44.169071570708255" lon="9.67486139972974"><ele>539.0</ele><time>2026-05-01T14:06:41.999Z</time></trkpt><trkpt lat="44.16908969115462" lon="9.674775334949885"><ele>540.0</ele><time>2026-05-01T14:06:42.999Z</time></trkpt><trkpt lat="44.169111286007" lon="9.674683063016875"><ele>544.5</ele><time>2026-05-01T14:06:43.999Z</time></trkpt><trkpt lat="44.16912260160542" lon="9.674570854073288"><ele>549.0</ele><time>2026-05-01T14:06:44.999Z</time></trkpt><trkpt lat="44.16915072852686" lon="9.674462347344129"><ele>553.5</ele><time>2026-05-01T14:06:45.999Z</time></trkpt><trkpt lat="44.16918736293286" lon="9.674364811337663"><ele>558.0</ele><time>2026-05-01T14:06:46.999Z</time></trkpt><trkpt lat="44.1692189383591" lon="9.674197697810088"><ele>562.5</ele><time>2026-05-01T14:06:48.999Z</time></trkpt><trkpt lat="44.16924153493486" lon="9.674106120674532"><ele>567.0</ele><time>2026-05-01T14:06:49.999Z</time></trkpt><trkpt lat="44.16926084502645" lon="9.674004935142554"><ele>567.0</ele><time>2026-05-01T14:06:50.999Z</time></trkpt><trkpt lat="44.169266634465494" lon="9.673908835549346"><ele>567.0</ele><time>2026-05-01T14:06:51.999Z</time></trkpt><trkpt lat="44.169299426276616" lon="9.673729609974878"><ele>567.0</ele><time>2026-05-01T14:06:53.999Z</time></trkpt><trkpt lat="44.169347162515926" lon="9.673641374791494"><ele>567.0</ele><time>2026-05-01T14:06:54.999Z</time></trkpt><trkpt lat="44.16939768092931" lon="9.673567264778153"><ele>567.0</ele><time>2026-05-01T14:06:55.999Z</time></trkpt><trkpt lat="44.16946489969796" lon="9.673481902635224"><ele>567.0</ele><time>2026-05-01T14:06:56.999Z</time></trkpt><trkpt lat="44.16951490755597" lon="9.67339472195857"><ele>564.5</ele><time>2026-05-01T14:06:57.999Z</time></trkpt><trkpt lat="44.16953904425592" lon="9.673298878023676"><ele>562.0</ele><time>2026-05-01T14:06:58.999Z</time></trkpt><trkpt lat="44.16957691677749" lon="9.673221965769743"><ele>559.5</ele><time>2026-05-01T14:06:59.999Z</time></trkpt><trkpt lat="44.16959739735087" lon="9.673138956125678"><ele>557.0</ele><time>2026-05-01T14:07:00.999Z</time></trkpt><trkpt lat="44.16964007934781" lon="9.672976318901123"><ele>554.5</ele><time>2026-05-01T14:07:02.999Z</time></trkpt><trkpt lat="44.16966221692232" lon="9.672891453780421"><ele>552.0</ele><time>2026-05-01T14:07:03.999Z</time></trkpt><trkpt lat="44.16968566259719" lon="9.672801889027857"><ele>551.5</ele><time>2026-05-01T14:07:04.999Z</time></trkpt><trkpt lat="44.16972434256819" lon="9.672630609698553"><ele>551.0</ele><time>2026-05-01T14:07:06.999Z</time></trkpt><trkpt lat="44.169739562184745" lon="9.672532911949016"><ele>550.5</ele><time>2026-05-01T14:07:07.999Z</time></trkpt><trkpt lat="44.16974416464012" lon="9.67241951414448"><ele>550.0</ele><time>2026-05-01T14:07:08.999Z</time></trkpt><trkpt lat="44.16972369361268" lon="9.672317937260846"><ele>549.5</ele><time>2026-05-01T14:07:09.999Z</time></trkpt><trkpt lat="44.16973199909942" lon="9.672214193870202"><ele>549.0</ele><time>2026-05-01T14:07:10.999Z</time></trkpt><trkpt lat="44.16972078411658" lon="9.672110904630555"><ele>549.0</ele><time>2026-05-01T14:07:11.999Z</time></trkpt><trkpt lat="44.169688895415625" lon="9.672014676929466"><ele>549.0</ele><time>2026-05-01T14:07:12.999Z</time></trkpt><trkpt lat="44.169657977665935" lon="9.671855229902793"><ele>549.0</ele><time>2026-05-01T14:07:14.999Z</time></trkpt><trkpt lat="44.169635291429124" lon="9.67176858358315"><ele>549.0</ele><time>2026-05-01T14:07:15.999Z</time></trkpt><trkpt lat="44.16963231617729" lon="9.671670852184363"><ele>549.0</ele><time>2026-05-01T14:07:16.999Z</time></trkpt><trkpt lat="44.169618192653935" lon="9.671583172144606"><ele>549.0</ele><time>2026-05-01T14:07:17.999Z</time></trkpt><trkpt lat="44.16959911217755" lon="9.67141637133959"><ele>551.4285714285714</ele><time>2026-05-01T14:07:19.999Z</time></trkpt><trkpt lat="44.16963332597349" lon="9.671340408651265"><ele>553.8571428571429</ele><time>2026-05-01T14:07:20.999Z</time></trkpt><trkpt lat="44.169660807627004" lon="9.671252624648236"><ele>556.2857142857143</ele><time>2026-05-01T14:07:21.999Z</time></trkpt><trkpt lat="44.16968946916242" lon="9.67117426544914"><ele>558.7142857142858</ele><time>2026-05-01T14:07:22.999Z</time></trkpt><trkpt lat="44.169702274221606" lon="9.671085932905772"><ele>561.1428571428572</ele><time>2026-05-01T14:07:23.999Z</time></trkpt><trkpt lat="44.169749832050925" lon="9.670941266293756"><ele>563.5714285714286</ele><time>2026-05-01T14:07:25.999Z</time></trkpt><trkpt lat="44.16978585238967" lon="9.670862671971234"><ele>566.0</ele><time>2026-05-01T14:07:26.999Z</time></trkpt><trkpt lat="44.16984329896059" lon="9.670708660273016"><ele>566.0</ele><time>2026-05-01T14:07:28.999Z</time></trkpt><trkpt lat="44.169855609654476" lon="9.670615483921916"><ele>566.0</ele><time>2026-05-01T14:07:29.999Z</time></trkpt><trkpt lat="44.16984572819143" lon="9.670516028279616"><ele>566.0</ele><time>2026-05-01T14:07:30.999Z</time></trkpt><trkpt lat="44.16983624528537" lon="9.670423102303264"><ele>566.0</ele><time>2026-05-01T14:07:32.001Z</time></trkpt><trkpt lat="44.16982180341974" lon="9.67031784134095"><ele>566.0</ele><time>2026-05-01T14:07:33.001Z</time></trkpt><trkpt lat="44.169816807087436" lon="9.670205652520526"><ele>566.0</ele><time>2026-05-01T14:07:34Z</time></trkpt><trkpt lat="44.16980665662123" lon="9.670091536196253"><ele>566.0</ele><time>2026-05-01T14:07:35Z</time></trkpt><trkpt lat="44.16978091208908" lon="9.669977277919122"><ele>565.4</ele><time>2026-05-01T14:07:36Z</time></trkpt><trkpt lat="44.16974244078308" lon="9.6698676576125"><ele>564.8</ele><time>2026-05-01T14:07:37Z</time></trkpt><trkpt lat="44.16971295396544" lon="9.66973591303741"><ele>564.1999999999999</ele><time>2026-05-01T14:07:38Z</time></trkpt><trkpt lat="44.16968905247967" lon="9.669618214755143"><ele>563.6</ele><time>2026-05-01T14:07:39Z</time></trkpt><trkpt lat="44.16968085723882" lon="9.669488155751782"><ele>563.0</ele><time>2026-05-01T14:07:40Z</time></trkpt><trkpt lat="44.16970408660416" lon="9.669358972107704"><ele>562.1666666666666</ele><time>2026-05-01T14:07:41Z</time></trkpt><trkpt lat="44.16974561667899" lon="9.66923360950964"><ele>561.3333333333333</ele><time>2026-05-01T14:07:42Z</time></trkpt><trkpt lat="44.16978794693946" lon="9.669132948354395"><ele>560.5</ele><time>2026-05-01T14:07:43Z</time></trkpt><trkpt lat="44.169838554047" lon="9.669055132082137"><ele>559.6666666666666</ele><time>2026-05-01T14:07:44Z</time></trkpt><trkpt lat="44.16989160464968" lon="9.668949004778222"><ele>558.8333333333334</ele><time>2026-05-01T14:07:45Z</time></trkpt><trkpt lat="44.16996630920307" lon="9.668866117973524"><ele>558.0</ele><time>2026-05-01T14:07:46Z</time></trkpt><trkpt lat="44.17000549152569" lon="9.668756221656073"><ele>563.0</ele><time>2026-05-01T14:07:47Z</time></trkpt><trkpt lat="44.17004779053678" lon="9.668641566515605"><ele>568.0</ele><time>2026-05-01T14:07:48Z</time></trkpt><trkpt lat="44.17008347931242" lon="9.668539329690052"><ele>573.0</ele><time>2026-05-01T14:07:49Z</time></trkpt><trkpt lat="44.17011271527498" lon="9.66844881107277"><ele>578.0</ele><time>2026-05-01T14:07:50Z</time></trkpt><trkpt lat="44.17011566973158" lon="9.668320760701887"><ele>583.0</ele><time>2026-05-01T14:07:51Z</time></trkpt><trkpt lat="44.17006111773847" lon="9.668208365968814"><ele>588.0</ele><time>2026-05-01T14:07:52Z</time></trkpt><trkpt lat="44.16997318122929" lon="9.668159360402855"><ele>588.0</ele><time>2026-05-01T14:07:53Z</time></trkpt><trkpt lat="44.16991487703698" lon="9.668070467918568"><ele>588.0</ele><time>2026-05-01T14:07:54Z</time></trkpt><trkpt lat="44.169898297344794" lon="9.667971005511795"><ele>588.0</ele><time>2026-05-01T14:07:56Z</time></trkpt><trkpt lat="44.169945620216026" lon="9.667829764685598"><ele>588.0</ele><time>2026-05-01T14:07:58Z</time></trkpt><trkpt lat="44.169997424748686" lon="9.667666319883809"><ele>588.0</ele><time>2026-05-01T14:08:00Z</time></trkpt><trkpt lat="44.17002345288089" lon="9.667571611698033"><ele>588.1666666666666</ele><time>2026-05-01T14:08:01Z</time></trkpt><trkpt lat="44.17005943451329" lon="9.66748204182745"><ele>588.3333333333334</ele><time>2026-05-01T14:08:02Z</time></trkpt><trkpt lat="44.1701036245734" lon="9.667379317256156"><ele>588.5</ele><time>2026-05-01T14:08:03Z</time></trkpt><trkpt lat="44.17012923200195" lon="9.66728731224941"><ele>588.6666666666667</ele><time>2026-05-01T14:08:04Z</time></trkpt><trkpt lat="44.170104129144015" lon="9.667160956273204"><ele>588.8333333333334</ele><time>2026-05-01T14:08:05Z</time></trkpt><trkpt lat="44.170006043463225" lon="9.66708679944998"><ele>589.0</ele><time>2026-05-01T14:08:06Z</time></trkpt><trkpt lat="44.169949084235895" lon="9.667022511341598"><ele>589.0</ele><time>2026-05-01T14:08:07Z</time></trkpt><trkpt lat="44.16991258891723" lon="9.666948480239217"><ele>589.0</ele><time>2026-05-01T14:08:08Z</time></trkpt><trkpt lat="44.16995551975097" lon="9.666795842463147"><ele>589.0</ele><time>2026-05-01T14:08:10Z</time></trkpt><trkpt lat="44.16997888714782" lon="9.666706611469756"><ele>589.0</ele><time>2026-05-01T14:08:11Z</time></trkpt><trkpt lat="44.17000321912678" lon="9.666609312709918"><ele>589.0</ele><time>2026-05-01T14:08:12Z</time></trkpt><trkpt lat="44.17001539843804" lon="9.666503145867907"><ele>589.0</ele><time>2026-05-01T14:08:13Z</time></trkpt><trkpt lat="44.170031055116226" lon="9.666394408800397"><ele>588.6666666666667</ele><time>2026-05-01T14:08:14Z</time></trkpt><trkpt lat="44.16997507887145" lon="9.666290212628285"><ele>588.3333333333334</ele><time>2026-05-01T14:08:15Z</time></trkpt><trkpt lat="44.1699212606526" lon="9.666214629654363"><ele>588.0</ele><time>2026-05-01T14:08:16Z</time></trkpt><trkpt lat="44.16987994743772" lon="9.666099005142394"><ele>587.6666666666666</ele><time>2026-05-01T14:08:17Z</time></trkpt><trkpt lat="44.16983036982228" lon="9.666010267454828"><ele>587.3333333333333</ele><time>2026-05-01T14:08:18Z</time></trkpt><trkpt lat="44.16974912582944" lon="9.665933967606657"><ele>587.0</ele><time>2026-05-01T14:08:19Z</time></trkpt><trkpt lat="44.16965714234097" lon="9.665916721274526"><ele>587.0</ele><time>2026-05-01T14:08:20Z</time></trkpt><trkpt lat="44.169585758578606" lon="9.665893173087548"><ele>587.0</ele><time>2026-05-01T14:08:21Z</time></trkpt><trkpt lat="44.16949881396143" lon="9.665928349428103"><ele>587.0</ele><time>2026-05-01T14:08:22Z</time></trkpt><trkpt lat="44.16942232514349" lon="9.665976511561086"><ele>587.0</ele><time>2026-05-01T14:08:23Z</time></trkpt><trkpt lat="44.16934356229482" lon="9.665965881237712"><ele>587.0</ele><time>2026-05-01T14:08:24Z</time></trkpt><trkpt lat="44.16927079503512" lon="9.665931977251935"><ele>587.0</ele><time>2026-05-01T14:08:25Z</time></trkpt><trkpt lat="44.16919166542142" lon="9.66588795093851"><ele>587.0</ele><time>2026-05-01T14:08:26Z</time></trkpt><trkpt lat="44.16912503916404" lon="9.665834379107341"><ele>587.0</ele><time>2026-05-01T14:08:27Z</time></trkpt><trkpt lat="44.16907369127663" lon="9.665777245841296"><ele>587.0</ele><time>2026-05-01T14:08:28Z</time></trkpt><trkpt lat="44.1690450677784" lon="9.665536913863606"><ele>587.0</ele><time>2026-05-01T14:08:30Z</time></trkpt><trkpt lat="44.16900079001262" lon="9.66542015705342"><ele>587.0</ele><time>2026-05-01T14:08:31Z</time></trkpt><trkpt lat="44.168950298694725" lon="9.665310018448084"><ele>584.6</ele><time>2026-05-01T14:08:32Z</time></trkpt><trkpt lat="44.16889599938021" lon="9.66520498328407"><ele>582.2</ele><time>2026-05-01T14:08:33Z</time></trkpt><trkpt lat="44.16882618207948" lon="9.665107322390575"><ele>579.8</ele><time>2026-05-01T14:08:34Z</time></trkpt><trkpt lat="44.1687699344332" lon="9.66500848385169"><ele>577.4</ele><time>2026-05-01T14:08:35Z</time></trkpt><trkpt lat="44.16879346904454" lon="9.664875683387692"><ele>575.0</ele><time>2026-05-01T14:08:36Z</time></trkpt><trkpt lat="44.168796806694075" lon="9.664748441163924"><ele>575.0</ele><time>2026-05-01T14:08:37Z</time></trkpt><trkpt lat="44.16882372870101" lon="9.664641980715672"><ele>575.0</ele><time>2026-05-01T14:08:38Z</time></trkpt><trkpt lat="44.16888261843715" lon="9.664588248847455"><ele>575.0</ele><time>2026-05-01T14:08:39Z</time></trkpt><trkpt lat="44.168938118994944" lon="9.664544040921733"><ele>575.0</ele><time>2026-05-01T14:08:40Z</time></trkpt><trkpt lat="44.16902233362231" lon="9.664446779132051"><ele>575.0</ele><time>2026-05-01T14:08:41Z</time></trkpt><trkpt lat="44.16908981100863" lon="9.664369059516057"><ele>575.0</ele><time>2026-05-01T14:08:42Z</time></trkpt><trkpt lat="44.1691588983886" lon="9.664294839645574"><ele>574.8333333333333</ele><time>2026-05-01T14:08:42.999Z</time></trkpt><trkpt lat="44.16923589527622" lon="9.664240146799738"><ele>574.6666666666666</ele><time>2026-05-01T14:08:43.999Z</time></trkpt><trkpt lat="44.1693170036932" lon="9.664183888305176"><ele>574.5</ele><time>2026-05-01T14:08:44.999Z</time></trkpt><trkpt lat="44.1693985655611" lon="9.664127776442557"><ele>574.3333333333334</ele><time>2026-05-01T14:08:45.999Z</time></trkpt><trkpt lat="44.16947635889932" lon="9.664057573761067"><ele>574.1666666666667</ele><time>2026-05-01T14:08:46.999Z</time></trkpt><trkpt lat="44.169511870614556" lon="9.663957311900283"><ele>574.0</ele><time>2026-05-01T14:08:47.999Z</time></trkpt><trkpt lat="44.16951050405922" lon="9.663848352031453"><ele>574.0</ele><time>2026-05-01T14:08:48.999Z</time></trkpt><trkpt lat="44.16949464904094" lon="9.66374751792827"><ele>574.0</ele><time>2026-05-01T14:08:49.999Z</time></trkpt><trkpt lat="44.16947979858192" lon="9.663646669904153"><ele>574.0</ele><time>2026-05-01T14:08:50.999Z</time></trkpt><trkpt lat="44.16947819493268" lon="9.66352980043777"><ele>574.0</ele><time>2026-05-01T14:08:51.999Z</time></trkpt><trkpt lat="44.169522625392375" lon="9.663434671169226"><ele>574.0</ele><time>2026-05-01T14:08:52.999Z</time></trkpt><trkpt lat="44.16959062314619" lon="9.663353006871684"><ele>574.0</ele><time>2026-05-01T14:08:53.999Z</time></trkpt><trkpt lat="44.16966571868" lon="9.663276391744501"><ele>571.2</ele><time>2026-05-01T14:08:54.999Z</time></trkpt><trkpt lat="44.169729865928325" lon="9.663193639951565"><ele>568.4</ele><time>2026-05-01T14:08:55.999Z</time></trkpt><trkpt lat="44.16978289195868" lon="9.663076006151917"><ele>565.6</ele><time>2026-05-01T14:08:56.999Z</time></trkpt><trkpt lat="44.169816910888315" lon="9.662949772420868"><ele>562.8</ele><time>2026-05-01T14:08:57.999Z</time></trkpt><trkpt lat="44.16982123567545" lon="9.662785160735986"><ele>560.0</ele><time>2026-05-01T14:08:58.999Z</time></trkpt><trkpt lat="44.16979489576133" lon="9.662639652047122"><ele>558.8</ele><time>2026-05-01T14:08:59.999Z</time></trkpt><trkpt lat="44.16975521505586" lon="9.6624956915911"><ele>557.6</ele><time>2026-05-01T14:09:00.999Z</time></trkpt><trkpt lat="44.1697247974363" lon="9.66234770559679"><ele>556.4</ele><time>2026-05-01T14:09:01.999Z</time></trkpt><trkpt lat="44.16970374089339" lon="9.662199960080343"><ele>555.2</ele><time>2026-05-01T14:09:02.999Z</time></trkpt><trkpt lat="44.16970310917267" lon="9.662056873478436"><ele>554.0</ele><time>2026-05-01T14:09:03.999Z</time></trkpt><trkpt lat="44.169667410021816" lon="9.66192877302994"><ele>556.6</ele><time>2026-05-01T14:09:04.999Z</time></trkpt><trkpt lat="44.16962786418659" lon="9.66182277851634"><ele>559.2</ele><time>2026-05-01T14:09:05.999Z</time></trkpt><trkpt lat="44.16958076698348" lon="9.661717320624138"><ele>561.8000000000001</ele><time>2026-05-01T14:09:06.999Z</time></trkpt><trkpt lat="44.169508289508116" lon="9.66163350965678"><ele>564.4</ele><time>2026-05-01T14:09:07.999Z</time></trkpt><trkpt lat="44.16945436238065" lon="9.661543496341762"><ele>567.0</ele><time>2026-05-01T14:09:08.999Z</time></trkpt><trkpt lat="44.169354444577394" lon="9.661402903366758"><ele>567.0</ele><time>2026-05-01T14:09:10.999Z</time></trkpt><trkpt lat="44.1693103065906" lon="9.661326354617827"><ele>567.0</ele><time>2026-05-01T14:09:11.999Z</time></trkpt><trkpt lat="44.169281943917944" lon="9.66124130338717"><ele>567.0</ele><time>2026-05-01T14:09:12.999Z</time></trkpt><trkpt lat="44.16918935271936" lon="9.66111915955025"><ele>567.0</ele><time>2026-05-01T14:09:14.999Z</time></trkpt><trkpt lat="44.16914877793877" lon="9.661038204360334"><ele>567.0</ele><time>2026-05-01T14:09:15.999Z</time></trkpt><trkpt lat="44.16905524663827" lon="9.660901520185025"><ele>572.4</ele><time>2026-05-01T14:09:17.999Z</time></trkpt><trkpt lat="44.169006464036364" lon="9.660823505740632"><ele>577.8000000000001</ele><time>2026-05-01T14:09:18.999Z</time></trkpt><trkpt lat="44.168948794778956" lon="9.660777515127766"><ele>583.2</ele><time>2026-05-01T14:09:19.999Z</time></trkpt><trkpt lat="44.16882941290588" lon="9.660733274780425"><ele>588.6</ele><time>2026-05-01T14:09:21.999Z</time></trkpt><trkpt lat="44.16871609871866" lon="9.660729571479608"><ele>594.0</ele><time>2026-05-01T14:09:23.999Z</time></trkpt><trkpt lat="44.16859868037782" lon="9.66076622889487"><ele>594.0</ele><time>2026-05-01T14:09:25.999Z</time></trkpt><trkpt lat="44.168500275562394" lon="9.660811092606881"><ele>594.0</ele><time>2026-05-01T14:09:27.999Z</time></trkpt><trkpt lat="44.16841425960283" lon="9.6608446247263"><ele>594.0</ele><time>2026-05-01T14:09:29.999Z</time></trkpt><trkpt lat="44.1683190400869" lon="9.660874080411745"><ele>594.0</ele><time>2026-05-01T14:09:31.999Z</time></trkpt><trkpt lat="44.168220776231" lon="9.66086144416095"><ele>594.0</ele><time>2026-05-01T14:09:33.999Z</time></trkpt><trkpt lat="44.16812026634894" lon="9.660752908986096"><ele>592.5</ele><time>2026-05-01T14:09:35.999Z</time></trkpt><trkpt lat="44.1681085471876" lon="9.660645663545825"><ele>591.0</ele><time>2026-05-01T14:09:36.999Z</time></trkpt><trkpt lat="44.168068785658306" lon="9.66056620034442"><ele>589.5</ele><time>2026-05-01T14:09:38Z</time></trkpt><trkpt lat="44.16803725632361" lon="9.660452978273575"><ele>588.0</ele><time>2026-05-01T14:09:39Z</time></trkpt><trkpt lat="44.16799535913735" lon="9.660353480493821"><ele>586.5</ele><time>2026-05-01T14:09:40Z</time></trkpt><trkpt lat="44.16794138434902" lon="9.66025562524484"><ele>585.0</ele><time>2026-05-01T14:09:41Z</time></trkpt><trkpt lat="44.167849453052455" lon="9.660220372515573"><ele>584.6666666666666</ele><time>2026-05-01T14:09:42Z</time></trkpt><trkpt lat="44.16777792106624" lon="9.660167420305859"><ele>584.3333333333334</ele><time>2026-05-01T14:09:43Z</time></trkpt><trkpt lat="44.16770281347799" lon="9.660112019072873"><ele>584.0</ele><time>2026-05-01T14:09:44Z</time></trkpt><trkpt lat="44.16763629836683" lon="9.660078429696311"><ele>583.6666666666667</ele><time>2026-05-01T14:09:46Z</time></trkpt><trkpt lat="44.16757982793216" lon="9.660025532993087"><ele>583.3333333333334</ele><time>2026-05-01T14:09:48Z</time></trkpt><trkpt lat="44.16769989779609" lon="9.65992809478445"><ele>583.0</ele><time>2026-05-01T14:09:50Z</time></trkpt><trkpt lat="44.16775072291016" lon="9.65986882434135"><ele>583.0</ele><time>2026-05-01T14:09:52Z</time></trkpt><trkpt lat="44.1678128712466" lon="9.659836018956348"><ele>583.0</ele><time>2026-05-01T14:09:54Z</time></trkpt><trkpt lat="44.16789167561325" lon="9.659780498608011"><ele>583.0</ele><time>2026-05-01T14:09:56Z</time></trkpt><trkpt lat="44.167942541451204" lon="9.659724306408846"><ele>583.0</ele><time>2026-05-01T14:09:57Z</time></trkpt><trkpt lat="44.168040855266774" lon="9.659588337488628"><ele>583.0</ele><time>2026-05-01T14:09:59Z</time></trkpt><trkpt lat="44.16809104559541" lon="9.659522036830564"><ele>583.0</ele><time>2026-05-01T14:10:00Z</time></trkpt><trkpt lat="44.16815210350814" lon="9.659460813412277"><ele>582.0</ele><time>2026-05-01T14:10:01Z</time></trkpt><trkpt lat="44.168225632137826" lon="9.659408373932935"><ele>581.0</ele><time>2026-05-01T14:10:02Z</time></trkpt><trkpt lat="44.16830335211762" lon="9.65936788179577"><ele>580.0</ele><time>2026-05-01T14:10:03Z</time></trkpt><trkpt lat="44.16837626374793" lon="9.659344930575072"><ele>579.0</ele><time>2026-05-01T14:10:04Z</time></trkpt><trkpt lat="44.16846874073305" lon="9.659333675142138"><ele>578.0</ele><time>2026-05-01T14:10:05Z</time></trkpt><trkpt lat="44.16855538881586" lon="9.659328949094604"><ele>577.0</ele><time>2026-05-01T14:10:06Z</time></trkpt><trkpt lat="44.16864209824217" lon="9.65933288884249"><ele>577.0</ele><time>2026-05-01T14:10:07Z</time></trkpt><trkpt lat="44.168727813581725" lon="9.659348887553175"><ele>577.0</ele><time>2026-05-01T14:10:08Z</time></trkpt><trkpt lat="44.1688047422894" lon="9.659393712232045"><ele>577.0</ele><time>2026-05-01T14:10:09Z</time></trkpt><trkpt lat="44.16887477169607" lon="9.659465795021"><ele>577.0</ele><time>2026-05-01T14:10:10Z</time></trkpt><trkpt lat="44.1689546108636" lon="9.659515144510634"><ele>577.0</ele><time>2026-05-01T14:10:11Z</time></trkpt><trkpt lat="44.16903248271895" lon="9.659547330994508"><ele>577.0</ele><time>2026-05-01T14:10:12Z</time></trkpt><trkpt lat="44.169113777727034" lon="9.659555184849292"><ele>577.5</ele><time>2026-05-01T14:10:13Z</time></trkpt><trkpt lat="44.16917870435867" lon="9.659510433553617"><ele>578.0</ele><time>2026-05-01T14:10:14Z</time></trkpt><trkpt lat="44.16924436538211" lon="9.659448371582108"><ele>578.5</ele><time>2026-05-01T14:10:15Z</time></trkpt><trkpt lat="44.16928870923878" lon="9.659345605760379"><ele>579.0</ele><time>2026-05-01T14:10:16Z</time></trkpt><trkpt lat="44.169326164190394" lon="9.659244440470474"><ele>579.5</ele><time>2026-05-01T14:10:17Z</time></trkpt><trkpt lat="44.1693683282357" lon="9.659150163255749"><ele>580.0</ele><time>2026-05-01T14:10:18Z</time></trkpt><trkpt lat="44.16942006998455" lon="9.659059572435511"><ele>580.0</ele><time>2026-05-01T14:10:19Z</time></trkpt><trkpt lat="44.16947651187485" lon="9.658979223935487"><ele>580.0</ele><time>2026-05-01T14:10:20Z</time></trkpt><trkpt lat="44.169535433649074" lon="9.658906409610756"><ele>580.0</ele><time>2026-05-01T14:10:21Z</time></trkpt><trkpt lat="44.16960557449794" lon="9.65883817554838"><ele>580.0</ele><time>2026-05-01T14:10:22Z</time></trkpt><trkpt lat="44.16967762292335" lon="9.658763166612422"><ele>580.0</ele><time>2026-05-01T14:10:23Z</time></trkpt><trkpt lat="44.169749520031644" lon="9.658717163982754"><ele>580.0</ele><time>2026-05-01T14:10:24Z</time></trkpt><trkpt lat="44.16982105356849" lon="9.658644508820268"><ele>577.8333333333334</ele><time>2026-05-01T14:10:25Z</time></trkpt><trkpt lat="44.169913420355556" lon="9.65858271795198"><ele>575.6666666666667</ele><time>2026-05-01T14:10:26Z</time></trkpt><trkpt lat="44.16998722260452" lon="9.658523770614469"><ele>573.5</ele><time>2026-05-01T14:10:27Z</time></trkpt><trkpt lat="44.170066388214984" lon="9.65847218289043"><ele>571.3333333333334</ele><time>2026-05-01T14:10:28Z</time></trkpt><trkpt lat="44.17013377014916" lon="9.658416837935048"><ele>569.1666666666666</ele><time>2026-05-01T14:10:29Z</time></trkpt><trkpt lat="44.17022001745685" lon="9.658369149722631"><ele>567.0</ele><time>2026-05-01T14:10:30Z</time></trkpt><trkpt lat="44.17031352376589" lon="9.658325481012064"><ele>567.0</ele><time>2026-05-01T14:10:31Z</time></trkpt><trkpt lat="44.17040545367127" lon="9.65828290696881"><ele>567.0</ele><time>2026-05-01T14:10:32Z</time></trkpt><trkpt lat="44.17045850454981" lon="9.65816886594235"><ele>567.0</ele><time>2026-05-01T14:10:33Z</time></trkpt><trkpt lat="44.17050023623083" lon="9.658072386809684"><ele>567.0</ele><time>2026-05-01T14:10:34Z</time></trkpt><trkpt lat="44.17054333211896" lon="9.657958261148273"><ele>567.0</ele><time>2026-05-01T14:10:35Z</time></trkpt><trkpt lat="44.17060728646716" lon="9.657877123701304"><ele>567.0</ele><time>2026-05-01T14:10:36Z</time></trkpt><trkpt lat="44.17068647367583" lon="9.657825693680554"><ele>567.0</ele><time>2026-05-01T14:10:37Z</time></trkpt><trkpt lat="44.170766056182714" lon="9.657766985987616"><ele>567.0</ele><time>2026-05-01T14:10:38Z</time></trkpt><trkpt lat="44.17084358642937" lon="9.657720182625713"><ele>567.0</ele><time>2026-05-01T14:10:39Z</time></trkpt><trkpt lat="44.17092642105557" lon="9.657704161658613"><ele>567.0</ele><time>2026-05-01T14:10:40Z</time></trkpt><trkpt lat="44.17101411865367" lon="9.657664305816215"><ele>567.0</ele><time>2026-05-01T14:10:41Z</time></trkpt><trkpt lat="44.171097693319346" lon="9.657631653225252"><ele>565.4</ele><time>2026-05-01T14:10:42Z</time></trkpt><trkpt lat="44.17118292774738" lon="9.657547891283745"><ele>563.8000000000001</ele><time>2026-05-01T14:10:42.999Z</time></trkpt><trkpt lat="44.17127137940822" lon="9.6574746465465"><ele>562.2</ele><time>2026-05-01T14:10:43.999Z</time></trkpt><trkpt lat="44.17134374562757" lon="9.657414728239115"><ele>560.6</ele><time>2026-05-01T14:10:44.999Z</time></trkpt><trkpt lat="44.17143884302272" lon="9.657311527830599"><ele>559.0</ele><time>2026-05-01T14:10:45.999Z</time></trkpt><trkpt lat="44.17152804762195" lon="9.65721933250763"><ele>563.0</ele><time>2026-05-01T14:10:46.999Z</time></trkpt><trkpt lat="44.171616896437925" lon="9.657124665563405"><ele>567.0</ele><time>2026-05-01T14:10:47.999Z</time></trkpt><trkpt lat="44.1716906879226" lon="9.657016303439685"><ele>571.0</ele><time>2026-05-01T14:10:48.999Z</time></trkpt><trkpt lat="44.1717801150645" lon="9.656922708923005"><ele>575.0</ele><time>2026-05-01T14:10:49.999Z</time></trkpt><trkpt lat="44.17188821648565" lon="9.656844473623217"><ele>566.75</ele><time>2026-05-01T14:10:50.999Z</time></trkpt><trkpt lat="44.1719875279806" lon="9.656761404565213"><ele>558.5</ele><time>2026-05-01T14:10:51.999Z</time></trkpt><trkpt lat="44.17208684099659" lon="9.656682435418258"><ele>550.25</ele><time>2026-05-01T14:10:52.999Z</time></trkpt><trkpt lat="44.17218228197619" lon="9.656607045258287"><ele>542.0</ele><time>2026-05-01T14:10:53.999Z</time></trkpt><trkpt lat="44.17228272744577" lon="9.656509190639671"><ele>544.5</ele><time>2026-05-01T14:10:54.999Z</time></trkpt><trkpt lat="44.172423029620404" lon="9.656403308324698"><ele>547.0</ele><time>2026-05-01T14:10:55.999Z</time></trkpt><trkpt lat="44.17254357411649" lon="9.656340484573203"><ele>549.5</ele><time>2026-05-01T14:10:56.999Z</time></trkpt><trkpt lat="44.1726567938831" lon="9.656291799407347"><ele>552.0</ele><time>2026-05-01T14:10:57.999Z</time></trkpt><trkpt lat="44.17277106161746" lon="9.656261627230688"><ele>552.0</ele><time>2026-05-01T14:10:58.999Z</time></trkpt><trkpt lat="44.172908188126016" lon="9.656256610701952"><ele>552.0</ele><time>2026-05-01T14:10:59.999Z</time></trkpt><trkpt lat="44.17301073420531" lon="9.656259612017855"><ele>552.0</ele><time>2026-05-01T14:11:00.999Z</time></trkpt><trkpt lat="44.173111358919066" lon="9.656256775929192"><ele>552.0</ele><time>2026-05-01T14:11:02.999Z</time></trkpt><trkpt lat="44.173188318070835" lon="9.656272522268718"><ele>552.0</ele><time>2026-05-01T14:11:03.999Z</time></trkpt><trkpt lat="44.17327503069206" lon="9.656264453896332"><ele>554.0</ele><time>2026-05-01T14:11:04.999Z</time></trkpt><trkpt lat="44.1733749240089" lon="9.656269597656289"><ele>556.0</ele><time>2026-05-01T14:11:05.999Z</time></trkpt><trkpt lat="44.17349652226617" lon="9.656261225876714"><ele>558.0</ele><time>2026-05-01T14:11:07.999Z</time></trkpt><trkpt lat="44.17357566843224" lon="9.656240926186177"><ele>560.0</ele><time>2026-05-01T14:11:09.999Z</time></trkpt><trkpt lat="44.17364675523826" lon="9.656184894684948"><ele>562.0</ele><time>2026-05-01T14:11:10.999Z</time></trkpt><trkpt lat="44.173754049377855" lon="9.656123867553363"><ele>559.0</ele><time>2026-05-01T14:11:12.999Z</time></trkpt><trkpt lat="44.17386718827131" lon="9.656014458351182"><ele>556.0</ele><time>2026-05-01T14:11:14.999Z</time></trkpt><trkpt lat="44.17395526557326" lon="9.655876810778345"><ele>553.0</ele><time>2026-05-01T14:11:16.999Z</time></trkpt><trkpt lat="44.17400527767025" lon="9.655811829433139"><ele>550.0</ele><time>2026-05-01T14:11:17.999Z</time></trkpt><trkpt lat="44.174052690557964" lon="9.655744091172213"><ele>547.0</ele><time>2026-05-01T14:11:18.999Z</time></trkpt><trkpt lat="44.17410451046293" lon="9.655673668433359"><ele>547.0</ele><time>2026-05-01T14:11:19.999Z</time></trkpt><trkpt lat="44.174157441676066" lon="9.655606104108129"><ele>547.0</ele><time>2026-05-01T14:11:20.999Z</time></trkpt><trkpt lat="44.1742157346929" lon="9.655536724618786"><ele>547.0</ele><time>2026-05-01T14:11:21.999Z</time></trkpt><trkpt lat="44.17427933180044" lon="9.655467431282865"><ele>547.0</ele><time>2026-05-01T14:11:22.999Z</time></trkpt><trkpt lat="44.17434427017484" lon="9.655403258813797"><ele>547.0</ele><time>2026-05-01T14:11:23.999Z</time></trkpt><trkpt lat="44.174408302770736" lon="9.655345735553524"><ele>547.0</ele><time>2026-05-01T14:11:24.999Z</time></trkpt><trkpt lat="44.17447705708012" lon="9.655285910515364"><ele>544.8333333333334</ele><time>2026-05-01T14:11:25.999Z</time></trkpt><trkpt lat="44.17454018634284" lon="9.655223685978497"><ele>542.6666666666667</ele><time>2026-05-01T14:11:26.999Z</time></trkpt><trkpt lat="44.174602283377475" lon="9.655158236182219"><ele>540.5</ele><time>2026-05-01T14:11:27.999Z</time></trkpt><trkpt lat="44.17466304754558" lon="9.655091178645732"><ele>538.3333333333334</ele><time>2026-05-01T14:11:28.999Z</time></trkpt><trkpt lat="44.17472286364992" lon="9.655021453019847"><ele>536.1666666666666</ele><time>2026-05-01T14:11:29.999Z</time></trkpt><trkpt lat="44.1747814674133" lon="9.65495301598024"><ele>534.0</ele><time>2026-05-01T14:11:30.999Z</time></trkpt><trkpt lat="44.17484009755753" lon="9.65488342604069"><ele>535.8571428571429</ele><time>2026-05-01T14:11:31.999Z</time></trkpt><trkpt lat="44.174894511853054" lon="9.654814614348338"><ele>537.7142857142858</ele><time>2026-05-01T14:11:32.999Z</time></trkpt><trkpt lat="44.17495256815862" lon="9.654749772911227"><ele>539.5714285714286</ele><time>2026-05-01T14:11:33.999Z</time></trkpt><trkpt lat="44.175006303329866" lon="9.654682827703782"><ele>541.4285714285714</ele><time>2026-05-01T14:11:34.999Z</time></trkpt><trkpt lat="44.1750573520771" lon="9.65461800353375"><ele>543.2857142857142</ele><time>2026-05-01T14:11:35.999Z</time></trkpt><trkpt lat="44.17511097037182" lon="9.654556434062789"><ele>545.1428571428571</ele><time>2026-05-01T14:11:36.999Z</time></trkpt><trkpt lat="44.17516310087866" lon="9.654485709536594"><ele>547.0</ele><time>2026-05-01T14:11:37.999Z</time></trkpt><trkpt lat="44.17521540774598" lon="9.654417640001155"><ele>547.0</ele><time>2026-05-01T14:11:38.999Z</time></trkpt><trkpt lat="44.17527224698203" lon="9.654353712695496"><ele>547.0</ele><time>2026-05-01T14:11:39.999Z</time></trkpt><trkpt lat="44.175333041369754" lon="9.654288635710571"><ele>547.0</ele><time>2026-05-01T14:11:40.999Z</time></trkpt><trkpt lat="44.175389395583274" lon="9.65423063102657"><ele>547.0</ele><time>2026-05-01T14:11:41.999Z</time></trkpt><trkpt lat="44.17544762298617" lon="9.654174263037262"><ele>547.0</ele><time>2026-05-01T14:11:42.999Z</time></trkpt><trkpt lat="44.175508641375735" lon="9.654122773675455"><ele>547.0</ele><time>2026-05-01T14:11:44Z</time></trkpt><trkpt lat="44.17557041264197" lon="9.654069179798839"><ele>547.0</ele><time>2026-05-01T14:11:45Z</time></trkpt><trkpt lat="44.17563462490355" lon="9.654017050295934"><ele>549.7142857142857</ele><time>2026-05-01T14:11:46Z</time></trkpt><trkpt lat="44.175699887777334" lon="9.653961462163455"><ele>552.4285714285713</ele><time>2026-05-01T14:11:47Z</time></trkpt><trkpt lat="44.175761170348736" lon="9.653907279330362"><ele>555.1428571428571</ele><time>2026-05-01T14:11:48Z</time></trkpt><trkpt lat="44.17582238810556" lon="9.653856763697833"><ele>557.8571428571429</ele><time>2026-05-01T14:11:49Z</time></trkpt><trkpt lat="44.17588398508115" lon="9.653800618514172"><ele>560.5714285714287</ele><time>2026-05-01T14:11:50Z</time></trkpt><trkpt lat="44.17594125132537" lon="9.653747644798392"><ele>563.2857142857143</ele><time>2026-05-01T14:11:51Z</time></trkpt><trkpt lat="44.17599943804846" lon="9.65369304968766"><ele>566.0</ele><time>2026-05-01T14:11:52Z</time></trkpt><trkpt lat="44.176060031451144" lon="9.65363802852381"><ele>563.8333333333333</ele><time>2026-05-01T14:11:53Z</time></trkpt><trkpt lat="44.17611830188609" lon="9.653579939941848"><ele>561.6666666666666</ele><time>2026-05-01T14:11:54Z</time></trkpt><trkpt lat="44.17618201063212" lon="9.653529302198253"><ele>559.5</ele><time>2026-05-01T14:11:55Z</time></trkpt><trkpt lat="44.1762521388062" lon="9.653477372039616"><ele>557.3333333333334</ele><time>2026-05-01T14:11:56Z</time></trkpt><trkpt lat="44.17632405604672" lon="9.65342498374754"><ele>555.1666666666667</ele><time>2026-05-01T14:11:57Z</time></trkpt><trkpt lat="44.17639579123254" lon="9.653371248233046"><ele>553.0</ele><time>2026-05-01T14:11:58Z</time></trkpt><trkpt lat="44.1764703198498" lon="9.653316460422372"><ele>556.1666666666667</ele><time>2026-05-01T14:11:59Z</time></trkpt><trkpt lat="44.17654330887402" lon="9.653261602616249"><ele>559.3333333333334</ele><time>2026-05-01T14:12:00Z</time></trkpt><trkpt lat="44.17662364742135" lon="9.653233952366888"><ele>562.5</ele><time>2026-05-01T14:12:01Z</time></trkpt><trkpt lat="44.1767054029657" lon="9.653240299768413"><ele>565.6666666666666</ele><time>2026-05-01T14:12:02Z</time></trkpt><trkpt lat="44.176791505684" lon="9.653280351372324"><ele>568.8333333333333</ele><time>2026-05-01T14:12:03Z</time></trkpt><trkpt lat="44.176874891865054" lon="9.653323664798123"><ele>572.0</ele><time>2026-05-01T14:12:04Z</time></trkpt><trkpt lat="44.17696567994093" lon="9.653339011110724"><ele>572.0</ele><time>2026-05-01T14:12:05Z</time></trkpt><trkpt lat="44.17706063990526" lon="9.653329723889861"><ele>572.0</ele><time>2026-05-01T14:12:06Z</time></trkpt><trkpt lat="44.17715167454443" lon="9.653312766302129"><ele>572.0</ele><time>2026-05-01T14:12:07Z</time></trkpt><trkpt lat="44.17724822381554" lon="9.653316054512668"><ele>572.0</ele><time>2026-05-01T14:12:08Z</time></trkpt><trkpt lat="44.17734818671904" lon="9.6533381139341"><ele>572.0</ele><time>2026-05-01T14:12:09Z</time></trkpt><trkpt lat="44.17744525729981" lon="9.65336493466029"><ele>572.2</ele><time>2026-05-01T14:12:10Z</time></trkpt><trkpt lat="44.17755129080331" lon="9.653377170582102"><ele>572.4000000000001</ele><time>2026-05-01T14:12:11Z</time></trkpt><trkpt lat="44.17764604036167" lon="9.65337601805475"><ele>572.5999999999999</ele><time>2026-05-01T14:12:12Z</time></trkpt><trkpt lat="44.17775047321475" lon="9.653397532324899"><ele>572.8</ele><time>2026-05-01T14:12:13Z</time></trkpt><trkpt lat="44.17785845576736" lon="9.653379227198988"><ele>573.0</ele><time>2026-05-01T14:12:14Z</time></trkpt><trkpt lat="44.17795744126182" lon="9.653393730217779"><ele>573.0</ele><time>2026-05-01T14:12:15Z</time></trkpt><trkpt lat="44.17804994000982" lon="9.653422659984956"><ele>573.0</ele><time>2026-05-01T14:12:16Z</time></trkpt><trkpt lat="44.17813610374504" lon="9.65346937604908"><ele>573.0</ele><time>2026-05-01T14:12:17Z</time></trkpt><trkpt lat="44.17821452824941" lon="9.653533523512376"><ele>573.0</ele><time>2026-05-01T14:12:18Z</time></trkpt><trkpt lat="44.17829208377685" lon="9.653592289827635"><ele>573.0</ele><time>2026-05-01T14:12:19Z</time></trkpt><trkpt lat="44.17836823116977" lon="9.653649526524227"><ele>571.8</ele><time>2026-05-01T14:12:20Z</time></trkpt><trkpt lat="44.17842888157625" lon="9.653696199051053"><ele>570.5999999999999</ele><time>2026-05-01T14:12:21Z</time></trkpt><trkpt lat="44.17852410195473" lon="9.653754849498828"><ele>569.4000000000001</ele><time>2026-05-01T14:12:22Z</time></trkpt><trkpt lat="44.17862063061619" lon="9.653810192998629"><ele>568.2</ele><time>2026-05-01T14:12:23Z</time></trkpt><trkpt lat="44.17870984146493" lon="9.653870664219223"><ele>567.0</ele><time>2026-05-01T14:12:24Z</time></trkpt><trkpt lat="44.17879762598638" lon="9.653945894622032"><ele>567.0</ele><time>2026-05-01T14:12:25Z</time></trkpt><trkpt lat="44.17885820930722" lon="9.654043612936498"><ele>567.0</ele><time>2026-05-01T14:12:26Z</time></trkpt><trkpt lat="44.17886973805941" lon="9.654184731284316"><ele>567.0</ele><time>2026-05-01T14:12:27Z</time></trkpt><trkpt lat="44.17892326402561" lon="9.654270702153138"><ele>567.0</ele><time>2026-05-01T14:12:28Z</time></trkpt><trkpt lat="44.178956137431264" lon="9.65437953592809"><ele>567.0</ele><time>2026-05-01T14:12:29Z</time></trkpt><trkpt lat="44.179014646816235" lon="9.654455985189042"><ele>567.0</ele><time>2026-05-01T14:12:30Z</time></trkpt><trkpt lat="44.17909634739357" lon="9.65449946571924"><ele>566.0</ele><time>2026-05-01T14:12:31Z</time></trkpt><trkpt lat="44.17918148092908" lon="9.65452420738616"><ele>565.0</ele><time>2026-05-01T14:12:32Z</time></trkpt><trkpt lat="44.179266071157286" lon="9.654529077669201"><ele>564.0</ele><time>2026-05-01T14:12:33Z</time></trkpt><trkpt lat="44.17934051248109" lon="9.654526802205087"><ele>563.0</ele><time>2026-05-01T14:12:34Z</time></trkpt><trkpt lat="44.1794359983006" lon="9.654550411638185"><ele>562.0</ele><time>2026-05-01T14:12:35Z</time></trkpt><trkpt lat="44.179525881027935" lon="9.654574760420832"><ele>561.0</ele><time>2026-05-01T14:12:36Z</time></trkpt><trkpt lat="44.179615100034994" lon="9.654596289755029"><ele>561.0</ele><time>2026-05-01T14:12:37Z</time></trkpt><trkpt lat="44.17970174408009" lon="9.654623815204998"><ele>561.0</ele><time>2026-05-01T14:12:38Z</time></trkpt><trkpt lat="44.17979124734449" lon="9.654650118183593"><ele>561.0</ele><time>2026-05-01T14:12:39Z</time></trkpt><trkpt lat="44.17987875970925" lon="9.654690116503604"><ele>561.0</ele><time>2026-05-01T14:12:40Z</time></trkpt><trkpt lat="44.17997580130277" lon="9.65472690063297"><ele>561.0</ele><time>2026-05-01T14:12:41Z</time></trkpt><trkpt lat="44.1800648553043" lon="9.65475885553528"><ele>564.6</ele><time>2026-05-01T14:12:42Z</time></trkpt><trkpt lat="44.18016205798808" lon="9.654784126982634"><ele>568.2</ele><time>2026-05-01T14:12:42.999Z</time></trkpt><trkpt lat="44.18025339894381" lon="9.654789165756434"><ele>571.8</ele><time>2026-05-01T14:12:43.999Z</time></trkpt><trkpt lat="44.180353134987776" lon="9.654771807038907"><ele>575.4</ele><time>2026-05-01T14:12:44.999Z</time></trkpt><trkpt lat="44.180437826565935" lon="9.654714924994725"><ele>579.0</ele><time>2026-05-01T14:12:45.999Z</time></trkpt><trkpt lat="44.18052899317474" lon="9.65466667879005"><ele>579.0</ele><time>2026-05-01T14:12:46.999Z</time></trkpt><trkpt lat="44.180614089212476" lon="9.654602746594842"><ele>579.0</ele><time>2026-05-01T14:12:47.999Z</time></trkpt><trkpt lat="44.180700929314014" lon="9.654543819856208"><ele>579.0</ele><time>2026-05-01T14:12:48.999Z</time></trkpt><trkpt lat="44.18078721697095" lon="9.654466606774658"><ele>579.0</ele><time>2026-05-01T14:12:49.999Z</time></trkpt><trkpt lat="44.180857054054975" lon="9.654341008670468"><ele>579.0</ele><time>2026-05-01T14:12:50.999Z</time></trkpt><trkpt lat="44.18092220891974" lon="9.65421800353942"><ele>582.0</ele><time>2026-05-01T14:12:51.999Z</time></trkpt><trkpt lat="44.180998547584096" lon="9.654105424675505"><ele>585.0</ele><time>2026-05-01T14:12:52.999Z</time></trkpt><trkpt lat="44.181058960817225" lon="9.653957503391204"><ele>588.0</ele><time>2026-05-01T14:12:53.999Z</time></trkpt><trkpt lat="44.181101342189315" lon="9.653836716997136"><ele>591.0</ele><time>2026-05-01T14:12:54.999Z</time></trkpt><trkpt lat="44.18119284133486" lon="9.653754391928473"><ele>594.0</ele><time>2026-05-01T14:12:55.999Z</time></trkpt><trkpt lat="44.1812818967291" lon="9.653670219604576"><ele>592.8</ele><time>2026-05-01T14:12:56.999Z</time></trkpt><trkpt lat="44.18136565973307" lon="9.653577723502366"><ele>591.5999999999999</ele><time>2026-05-01T14:12:57.999Z</time></trkpt><trkpt lat="44.18145854048047" lon="9.653503747520306"><ele>590.4</ele><time>2026-05-01T14:12:58.999Z</time></trkpt><trkpt lat="44.18154302501302" lon="9.653439171432407"><ele>589.1999999999999</ele><time>2026-05-01T14:12:59.999Z</time></trkpt><trkpt lat="44.18162277908099" lon="9.653370662910719"><ele>588.0</ele><time>2026-05-01T14:13:00.999Z</time></trkpt><trkpt lat="44.18170406661906" lon="9.653304313602304"><ele>588.0</ele><time>2026-05-01T14:13:01.999Z</time></trkpt><trkpt lat="44.181785457473794" lon="9.653244734673276"><ele>588.0</ele><time>2026-05-01T14:13:02.999Z</time></trkpt><trkpt lat="44.18186385787851" lon="9.653181158332348"><ele>588.0</ele><time>2026-05-01T14:13:03.999Z</time></trkpt><trkpt lat="44.181945456866515" lon="9.65312931604566"><ele>588.0</ele><time>2026-05-01T14:13:04.999Z</time></trkpt><trkpt lat="44.18202848515291" lon="9.653090195757244"><ele>588.0</ele><time>2026-05-01T14:13:05.999Z</time></trkpt><trkpt lat="44.18211372243576" lon="9.653053741342893"><ele>588.0</ele><time>2026-05-01T14:13:06.999Z</time></trkpt><trkpt lat="44.18220781951314" lon="9.653036214855687"><ele>588.0</ele><time>2026-05-01T14:13:07.999Z</time></trkpt><trkpt lat="44.182300287842764" lon="9.653042820663531"><ele>588.0</ele><time>2026-05-01T14:13:08.999Z</time></trkpt><trkpt lat="44.182390131930966" lon="9.653053581867002"><ele>588.0</ele><time>2026-05-01T14:13:09.999Z</time></trkpt><trkpt lat="44.182485343076586" lon="9.653073909622602"><ele>588.0</ele><time>2026-05-01T14:13:10.999Z</time></trkpt><trkpt lat="44.18257142816099" lon="9.65309579547249"><ele>588.0</ele><time>2026-05-01T14:13:11.999Z</time></trkpt><trkpt lat="44.18264568683029" lon="9.653127080837745"><ele>588.0</ele><time>2026-05-01T14:13:12.999Z</time></trkpt><trkpt lat="44.18272739993773" lon="9.653150786751382"><ele>588.6666666666666</ele><time>2026-05-01T14:13:13.999Z</time></trkpt><trkpt lat="44.18280970338216" lon="9.653178313696197"><ele>589.3333333333334</ele><time>2026-05-01T14:13:14.999Z</time></trkpt><trkpt lat="44.18288318806732" lon="9.65321480451553"><ele>590.0</ele><time>2026-05-01T14:13:15.999Z</time></trkpt><trkpt lat="44.182966198561" lon="9.653238114687992"><ele>590.6666666666667</ele><time>2026-05-01T14:13:16.999Z</time></trkpt><trkpt lat="44.183046935854925" lon="9.653238080334772"><ele>591.3333333333334</ele><time>2026-05-01T14:13:17.999Z</time></trkpt><trkpt lat="44.18312451336737" lon="9.653220436244766"><ele>592.0</ele><time>2026-05-01T14:13:18.999Z</time></trkpt><trkpt lat="44.18319476888496" lon="9.653201085360978"><ele>592.0</ele><time>2026-05-01T14:13:19.999Z</time></trkpt><trkpt lat="44.18326614332557" lon="9.65316348576566"><ele>592.0</ele><time>2026-05-01T14:13:20.999Z</time></trkpt><trkpt lat="44.18334147030322" lon="9.653121437740563"><ele>592.0</ele><time>2026-05-01T14:13:21.999Z</time></trkpt><trkpt lat="44.18341323545184" lon="9.653080653072006"><ele>592.0</ele><time>2026-05-01T14:13:22.999Z</time></trkpt><trkpt lat="44.18349277930268" lon="9.65303839928141"><ele>592.0</ele><time>2026-05-01T14:13:23.999Z</time></trkpt><trkpt lat="44.18358567969512" lon="9.652997054946406"><ele>592.0</ele><time>2026-05-01T14:13:24.999Z</time></trkpt><trkpt lat="44.183663787301256" lon="9.652949013156322"><ele>592.0</ele><time>2026-05-01T14:13:25.999Z</time></trkpt><trkpt lat="44.18374782070991" lon="9.652904957528156"><ele>592.0</ele><time>2026-05-01T14:13:26.999Z</time></trkpt><trkpt lat="44.18382166821971" lon="9.652870791907679"><ele>592.0</ele><time>2026-05-01T14:13:27.999Z</time></trkpt><trkpt lat="44.18390365600509" lon="9.652827389738858"><ele>592.0</ele><time>2026-05-01T14:13:28.999Z</time></trkpt><trkpt lat="44.18400361952501" lon="9.652772922569602"><ele>592.0</ele><time>2026-05-01T14:13:29.999Z</time></trkpt><trkpt lat="44.18410186814755" lon="9.652727313984373"><ele>595.2</ele><time>2026-05-01T14:13:30.999Z</time></trkpt><trkpt lat="44.18420990965003" lon="9.652699820943079"><ele>598.4000000000001</ele><time>2026-05-01T14:13:31.999Z</time></trkpt><trkpt lat="44.18431280938378" lon="9.652680567774416"><ele>601.5999999999999</ele><time>2026-05-01T14:13:32.999Z</time></trkpt><trkpt lat="44.18440490710456" lon="9.652656815897668"><ele>604.8</ele><time>2026-05-01T14:13:33.999Z</time></trkpt><trkpt lat="44.184477980857395" lon="9.652616871731647"><ele>608.0</ele><time>2026-05-01T14:13:34.999Z</time></trkpt><trkpt lat="44.1845448888518" lon="9.652603302814272"><ele>608.0</ele><time>2026-05-01T14:13:35.999Z</time></trkpt><trkpt lat="44.18462060200643" lon="9.65257238965845"><ele>608.0</ele><time>2026-05-01T14:13:36.999Z</time></trkpt><trkpt lat="44.18473523192304" lon="9.652547099016289"><ele>608.0</ele><time>2026-05-01T14:13:37.999Z</time></trkpt><trkpt lat="44.184822443297115" lon="9.65249180085428"><ele>608.0</ele><time>2026-05-01T14:13:38.999Z</time></trkpt><trkpt lat="44.18490313810835" lon="9.652441352575506"><ele>608.0</ele><time>2026-05-01T14:13:39.999Z</time></trkpt><trkpt lat="44.18496856445018" lon="9.652388394881845"><ele>606.8</ele><time>2026-05-01T14:13:40.999Z</time></trkpt><trkpt lat="44.18507004467164" lon="9.652372327775893"><ele>605.5999999999999</ele><time>2026-05-01T14:13:41.999Z</time></trkpt><trkpt lat="44.185178146309156" lon="9.652378456378207"><ele>604.4000000000001</ele><time>2026-05-01T14:13:42.999Z</time></trkpt><trkpt lat="44.18528326394973" lon="9.65238852831212"><ele>603.2</ele><time>2026-05-01T14:13:43.999Z</time></trkpt><trkpt lat="44.18541471177621" lon="9.652383429720961"><ele>602.0</ele><time>2026-05-01T14:13:45.999Z</time></trkpt><trkpt lat="44.185535439410586" lon="9.652291527077994"><ele>602.0</ele><time>2026-05-01T14:13:46.999Z</time></trkpt><trkpt lat="44.18563240926886" lon="9.652187636303097"><ele>602.0</ele><time>2026-05-01T14:13:47.999Z</time></trkpt><trkpt lat="44.18572950360934" lon="9.652079626006662"><ele>602.0</ele><time>2026-05-01T14:13:48.999Z</time></trkpt><trkpt lat="44.1858163844781" lon="9.652030426766158"><ele>602.0</ele><time>2026-05-01T14:13:50Z</time></trkpt><trkpt lat="44.18592226878722" lon="9.65201451126407"><ele>602.0</ele><time>2026-05-01T14:13:51Z</time></trkpt><trkpt lat="44.18600052722195" lon="9.652005536386142"><ele>598.8000000000001</ele><time>2026-05-01T14:13:52Z</time></trkpt><trkpt lat="44.186117237790135" lon="9.652003505849521"><ele>595.6</ele><time>2026-05-01T14:13:53Z</time></trkpt><trkpt lat="44.1862116092429" lon="9.652035941898797"><ele>592.4000000000001</ele><time>2026-05-01T14:13:54Z</time></trkpt><trkpt lat="44.18631375743738" lon="9.652028416394339"><ele>589.2</ele><time>2026-05-01T14:13:55Z</time></trkpt><trkpt lat="44.18642233134729" lon="9.652038341143964"><ele>586.0</ele><time>2026-05-01T14:13:56Z</time></trkpt><trkpt lat="44.18653099201393" lon="9.65202289757706"><ele>585.8</ele><time>2026-05-01T14:13:57Z</time></trkpt><trkpt lat="44.1866347623918" lon="9.651998132794803"><ele>585.6</ele><time>2026-05-01T14:13:58Z</time></trkpt><trkpt lat="44.186750291063156" lon="9.651966862392243"><ele>585.4</ele><time>2026-05-01T14:13:59Z</time></trkpt><trkpt lat="44.18684348431736" lon="9.651928674554522"><ele>585.2</ele><time>2026-05-01T14:14:00Z</time></trkpt><trkpt lat="44.186939958892204" lon="9.651889829363329"><ele>585.0</ele><time>2026-05-01T14:14:01Z</time></trkpt><trkpt lat="44.1870306456783" lon="9.651861170332175"><ele>585.4</ele><time>2026-05-01T14:14:02Z</time></trkpt><trkpt lat="44.187125390396645" lon="9.651886950365972"><ele>585.8</ele><time>2026-05-01T14:14:03Z</time></trkpt><trkpt lat="44.18719694746967" lon="9.651904644485994"><ele>586.2</ele><time>2026-05-01T14:14:05Z</time></trkpt><trkpt lat="44.18726682934238" lon="9.651940645572317"><ele>586.6</ele><time>2026-05-01T14:14:06Z</time></trkpt><trkpt lat="44.18735026567329" lon="9.652073103977798"><ele>587.0</ele><time>2026-05-01T14:14:08Z</time></trkpt><trkpt lat="44.18743514637502" lon="9.652190347886277"><ele>589.1666666666666</ele><time>2026-05-01T14:14:10Z</time></trkpt><trkpt lat="44.18749372215819" lon="9.652239724717262"><ele>591.3333333333333</ele><time>2026-05-01T14:14:11Z</time></trkpt><trkpt lat="44.18754695144384" lon="9.652304409955324"><ele>593.5</ele><time>2026-05-01T14:14:12Z</time></trkpt><trkpt lat="44.187683661685234" lon="9.652369664770916"><ele>595.6666666666666</ele><time>2026-05-01T14:14:14Z</time></trkpt><trkpt lat="44.18776600937335" lon="9.652378756312775"><ele>597.8333333333334</ele><time>2026-05-01T14:14:15Z</time></trkpt><trkpt lat="44.18784228274997" lon="9.652367734292923"><ele>600.0</ele><time>2026-05-01T14:14:16Z</time></trkpt><trkpt lat="44.18794778349068" lon="9.652389007491305"><ele>600.0</ele><time>2026-05-01T14:14:17Z</time></trkpt><trkpt lat="44.18803202794445" lon="9.652417119627756"><ele>600.0</ele><time>2026-05-01T14:14:18Z</time></trkpt><trkpt lat="44.188113606583585" lon="9.652435071636074"><ele>600.0</ele><time>2026-05-01T14:14:19Z</time></trkpt><trkpt lat="44.18819353933258" lon="9.652436961969595"><ele>600.0</ele><time>2026-05-01T14:14:20Z</time></trkpt><trkpt lat="44.188279066608416" lon="9.652455043929232"><ele>600.0</ele><time>2026-05-01T14:14:21Z</time></trkpt><trkpt lat="44.18836075067418" lon="9.65246173417967"><ele>600.0</ele><time>2026-05-01T14:14:22Z</time></trkpt><trkpt lat="44.18844513993866" lon="9.65249646048029"><ele>599.0</ele><time>2026-05-01T14:14:23Z</time></trkpt><trkpt lat="44.1885158053694" lon="9.652511089571915"><ele>598.0</ele><time>2026-05-01T14:14:24Z</time></trkpt><trkpt lat="44.188594516039316" lon="9.652547251868723"><ele>597.0</ele><time>2026-05-01T14:14:25Z</time></trkpt><trkpt lat="44.18866707433288" lon="9.65258542053761"><ele>596.0</ele><time>2026-05-01T14:14:26Z</time></trkpt><trkpt lat="44.1887268255018" lon="9.652726785579592"><ele>595.0</ele><time>2026-05-01T14:14:27Z</time></trkpt><trkpt lat="44.1888086527376" lon="9.65281078474214"><ele>598.0</ele><time>2026-05-01T14:14:28Z</time></trkpt><trkpt lat="44.188906412718026" lon="9.652887280586397"><ele>601.0</ele><time>2026-05-01T14:14:30Z</time></trkpt><trkpt lat="44.18900814639966" lon="9.652863801968735"><ele>604.0</ele><time>2026-05-01T14:14:31Z</time></trkpt><trkpt lat="44.18909190811836" lon="9.65287658880877"><ele>607.0</ele><time>2026-05-01T14:14:32Z</time></trkpt><trkpt lat="44.1891764141968" lon="9.652877370724276"><ele>610.0</ele><time>2026-05-01T14:14:33Z</time></trkpt><trkpt lat="44.18924584567263" lon="9.652885122651966"><ele>610.0</ele><time>2026-05-01T14:14:34Z</time></trkpt><trkpt lat="44.189342036576875" lon="9.652937466307037"><ele>610.0</ele><time>2026-05-01T14:14:36Z</time></trkpt><trkpt lat="44.189383481078586" lon="9.653068666800785"><ele>610.0</ele><time>2026-05-01T14:14:38Z</time></trkpt><trkpt lat="44.18940839291305" lon="9.653153682572402"><ele>610.0</ele><time>2026-05-01T14:14:39Z</time></trkpt><trkpt lat="44.18945995006552" lon="9.653253039691743"><ele>610.0</ele><time>2026-05-01T14:14:39.999Z</time></trkpt><trkpt lat="44.18951053033416" lon="9.653339391980857"><ele>610.0</ele><time>2026-05-01T14:14:40.999Z</time></trkpt><trkpt lat="44.18956863043599" lon="9.653411635711524"><ele>610.0</ele><time>2026-05-01T14:14:41.999Z</time></trkpt><trkpt lat="44.189660153013335" lon="9.653469747280463"><ele>610.0</ele><time>2026-05-01T14:14:42.999Z</time></trkpt><trkpt lat="44.18978114473289" lon="9.653506330060114"><ele>610.0</ele><time>2026-05-01T14:14:43.999Z</time></trkpt><trkpt lat="44.18986726321775" lon="9.653521297346817"><ele>610.0</ele><time>2026-05-01T14:14:44.999Z</time></trkpt><trkpt lat="44.18994320920201" lon="9.653522516732156"><ele>610.0</ele><time>2026-05-01T14:14:45.999Z</time></trkpt><trkpt lat="44.19001328957935" lon="9.653567305031816"><ele>610.5</ele><time>2026-05-01T14:14:46.999Z</time></trkpt><trkpt lat="44.1901186805" lon="9.653634056163707"><ele>611.0</ele><time>2026-05-01T14:14:48.999Z</time></trkpt><trkpt lat="44.19016875861623" lon="9.653688192587712"><ele>611.5</ele><time>2026-05-01T14:14:49.999Z</time></trkpt><trkpt lat="44.190253595067745" lon="9.653802048989132"><ele>612.0</ele><time>2026-05-01T14:14:51.999Z</time></trkpt><trkpt lat="44.19031194956667" lon="9.653872957583259"><ele>612.5</ele><time>2026-05-01T14:14:53.999Z</time></trkpt><trkpt lat="44.19037903423663" lon="9.653898259305238"><ele>613.0</ele><time>2026-05-01T14:14:55.999Z</time></trkpt><trkpt lat="44.19046278522489" lon="9.653914271619488"><ele>613.0</ele><time>2026-05-01T14:16:14Z</time></trkpt><trkpt lat="44.190530627505204" lon="9.653875008369969"><ele>613.0</ele><time>2026-05-01T14:16:16Z</time></trkpt><trkpt lat="44.190602834300265" lon="9.653832944058433"><ele>613.0</ele><time>2026-05-01T14:16:17Z</time></trkpt><trkpt lat="44.19068500568594" lon="9.653788907637535"><ele>613.0</ele><time>2026-05-01T14:16:19Z</time></trkpt><trkpt lat="44.190737280969294" lon="9.653735655086694"><ele>613.0</ele><time>2026-05-01T14:16:21Z</time></trkpt><trkpt lat="44.190804484308025" lon="9.653660456683808"><ele>613.0</ele><time>2026-05-01T14:16:22.999Z</time></trkpt><trkpt lat="44.19089564378158" lon="9.653555071732379"><ele>608.5</ele><time>2026-05-01T14:16:24.999Z</time></trkpt><trkpt lat="44.19095410356299" lon="9.653488692034735"><ele>604.0</ele><time>2026-05-01T14:16:25.999Z</time></trkpt><trkpt lat="44.191014934092486" lon="9.65342931788619"><ele>599.5</ele><time>2026-05-01T14:16:26.999Z</time></trkpt><trkpt lat="44.191087455511784" lon="9.653395114987848"><ele>595.0</ele><time>2026-05-01T14:16:27.999Z</time></trkpt><trkpt lat="44.19117457517149" lon="9.653382023934734"><ele>590.5</ele><time>2026-05-01T14:16:28.999Z</time></trkpt><trkpt lat="44.19126138964725" lon="9.653375503001463"><ele>586.0</ele><time>2026-05-01T14:16:29.999Z</time></trkpt><trkpt lat="44.1913454173159" lon="9.653363956710521"><ele>586.0</ele><time>2026-05-01T14:16:30.999Z</time></trkpt><trkpt lat="44.19143083304386" lon="9.653306114512183"><ele>586.0</ele><time>2026-05-01T14:16:31.999Z</time></trkpt><trkpt lat="44.19149815483594" lon="9.653229093583825"><ele>586.0</ele><time>2026-05-01T14:16:32.999Z</time></trkpt><trkpt lat="44.19155209965107" lon="9.65314161402006"><ele>586.0</ele><time>2026-05-01T14:16:33.999Z</time></trkpt><trkpt lat="44.19161121210406" lon="9.653057246049627"><ele>586.0</ele><time>2026-05-01T14:16:34.999Z</time></trkpt><trkpt lat="44.19169098925375" lon="9.65297621866036"><ele>586.0</ele><time>2026-05-01T14:16:35.999Z</time></trkpt><trkpt lat="44.191778467795764" lon="9.652882214589873"><ele>586.4</ele><time>2026-05-01T14:16:36.999Z</time></trkpt><trkpt lat="44.19188207566363" lon="9.652806136443841"><ele>586.8</ele><time>2026-05-01T14:16:37.999Z</time></trkpt><trkpt lat="44.191965267350724" lon="9.65273985527816"><ele>587.1999999999999</ele><time>2026-05-01T14:16:38.999Z</time></trkpt><trkpt lat="44.19202932540619" lon="9.652642960693978"><ele>587.6</ele><time>2026-05-01T14:16:39.999Z</time></trkpt><trkpt lat="44.19210784728144" lon="9.652564029482356"><ele>588.0</ele><time>2026-05-01T14:16:40.999Z</time></trkpt><trkpt lat="44.192187137553155" lon="9.652477047375875"><ele>588.0</ele><time>2026-05-01T14:16:41.999Z</time></trkpt><trkpt lat="44.192271397497166" lon="9.652382598431707"><ele>588.0</ele><time>2026-05-01T14:16:42.999Z</time></trkpt><trkpt lat="44.19236010451898" lon="9.652309779893956"><ele>588.0</ele><time>2026-05-01T14:16:43.999Z</time></trkpt><trkpt lat="44.19245227288529" lon="9.65225077823312"><ele>588.0</ele><time>2026-05-01T14:16:44.999Z</time></trkpt><trkpt lat="44.192559139879826" lon="9.652215329001216"><ele>588.0</ele><time>2026-05-01T14:16:45.999Z</time></trkpt><trkpt lat="44.19265049545046" lon="9.652177124493843"><ele>586.1999999999999</ele><time>2026-05-01T14:16:46.999Z</time></trkpt><trkpt lat="44.19274344534835" lon="9.652118719078059"><ele>584.4</ele><time>2026-05-01T14:16:47.999Z</time></trkpt><trkpt lat="44.19283214972453" lon="9.65205753214559"><ele>582.5999999999999</ele><time>2026-05-01T14:16:48.999Z</time></trkpt><trkpt lat="44.19290856439686" lon="9.651985002292605"><ele>580.8</ele><time>2026-05-01T14:16:49.999Z</time></trkpt><trkpt lat="44.192974490936564" lon="9.651903065483237"><ele>579.0</ele><time>2026-05-01T14:16:50.999Z</time></trkpt><trkpt lat="44.193034476039365" lon="9.651815903966986"><ele>578.7142857142857</ele><time>2026-05-01T14:16:51.999Z</time></trkpt><trkpt lat="44.193088900491865" lon="9.651738079792386"><ele>578.4285714285714</ele><time>2026-05-01T14:16:52.999Z</time></trkpt><trkpt lat="44.19313802693811" lon="9.651651308134308"><ele>578.1428571428571</ele><time>2026-05-01T14:16:53.999Z</time></trkpt><trkpt lat="44.1931749772766" lon="9.651565502892435"><ele>577.8571428571429</ele><time>2026-05-01T14:16:54.999Z</time></trkpt><trkpt lat="44.19319457665413" lon="9.651469857989381"><ele>577.5714285714286</ele><time>2026-05-01T14:16:55.999Z</time></trkpt><trkpt lat="44.193214084292315" lon="9.651371346117376"><ele>577.2857142857142</ele><time>2026-05-01T14:16:56.999Z</time></trkpt><trkpt lat="44.19325047415088" lon="9.651283163791732"><ele>577.0</ele><time>2026-05-01T14:16:57.999Z</time></trkpt><trkpt lat="44.19326268718675" lon="9.65119138514739"><ele>576.1666666666667</ele><time>2026-05-01T14:16:58.999Z</time></trkpt><trkpt lat="44.19328659632184" lon="9.651106207408617"><ele>575.3333333333334</ele><time>2026-05-01T14:16:59.999Z</time></trkpt><trkpt lat="44.19332331085893" lon="9.651026463814325"><ele>574.5</ele><time>2026-05-01T14:17:00.999Z</time></trkpt><trkpt lat="44.19338783231116" lon="9.650979067120309"><ele>573.6666666666666</ele><time>2026-05-01T14:17:01.999Z</time></trkpt><trkpt lat="44.193463788299596" lon="9.65098283272947"><ele>572.8333333333333</ele><time>2026-05-01T14:17:02.999Z</time></trkpt><trkpt lat="44.19354364010664" lon="9.65096274814895"><ele>572.0</ele><time>2026-05-01T14:17:03.999Z</time></trkpt><trkpt lat="44.19363437455507" lon="9.650980017071607"><ele>572.0</ele><time>2026-05-01T14:17:04.999Z</time></trkpt><trkpt lat="44.193719683817584" lon="9.650998327726624"><ele>572.0</ele><time>2026-05-01T14:17:05.999Z</time></trkpt><trkpt lat="44.193810084170494" lon="9.650984627337548"><ele>572.0</ele><time>2026-05-01T14:17:06.999Z</time></trkpt><trkpt lat="44.19388673454719" lon="9.650929794313585"><ele>572.0</ele><time>2026-05-01T14:17:07.999Z</time></trkpt><trkpt lat="44.193949060875134" lon="9.650763238056452"><ele>572.0</ele><time>2026-05-01T14:17:08.999Z</time></trkpt><trkpt lat="44.1939803049945" lon="9.650663579476017"><ele>572.8571428571428</ele><time>2026-05-01T14:17:09.999Z</time></trkpt><trkpt lat="44.19400839858573" lon="9.650555298817594"><ele>573.7142857142857</ele><time>2026-05-01T14:17:10.999Z</time></trkpt><trkpt lat="44.194061847759706" lon="9.65048982670126"><ele>574.5714285714286</ele><time>2026-05-01T14:17:11.999Z</time></trkpt><trkpt lat="44.19410975802711" lon="9.650427866695885"><ele>575.4285714285713</ele><time>2026-05-01T14:17:12.999Z</time></trkpt><trkpt lat="44.194159911043094" lon="9.650363474158855"><ele>576.2857142857142</ele><time>2026-05-01T14:17:13.999Z</time></trkpt><trkpt lat="44.194211309509924" lon="9.65027233557683"><ele>577.1428571428571</ele><time>2026-05-01T14:17:14.999Z</time></trkpt><trkpt lat="44.19426722384714" lon="9.650204760469931"><ele>578.0</ele><time>2026-05-01T14:17:15.999Z</time></trkpt><trkpt lat="44.194317608793625" lon="9.65013842067501"><ele>578.0</ele><time>2026-05-01T14:17:16.999Z</time></trkpt><trkpt lat="44.194358324251965" lon="9.650052912896426"><ele>578.0</ele><time>2026-05-01T14:17:17.999Z</time></trkpt><trkpt lat="44.19437358767238" lon="9.649964072666876"><ele>578.0</ele><time>2026-05-01T14:17:18.999Z</time></trkpt><trkpt lat="44.194390686176384" lon="9.649851091669658"><ele>578.0</ele><time>2026-05-01T14:17:20.999Z</time></trkpt><trkpt lat="44.19440979364777" lon="9.649749305481684"><ele>578.0</ele><time>2026-05-01T14:17:21.999Z</time></trkpt><trkpt lat="44.19444590927252" lon="9.64964321184667"><ele>578.0</ele><time>2026-05-01T14:17:22.999Z</time></trkpt><trkpt lat="44.194507049965075" lon="9.649587052192384"><ele>578.0</ele><time>2026-05-01T14:17:23.999Z</time></trkpt><trkpt lat="44.194571546188406" lon="9.64956993100332"><ele>578.0</ele><time>2026-05-01T14:17:24.999Z</time></trkpt><trkpt lat="44.19468536963722" lon="9.649548146035027"><ele>578.0</ele><time>2026-05-01T14:17:26.999Z</time></trkpt><trkpt lat="44.194763224831085" lon="9.649514627793671"><ele>578.0</ele><time>2026-05-01T14:17:27.999Z</time></trkpt><trkpt lat="44.19483452906916" lon="9.649451447413373"><ele>578.0</ele><time>2026-05-01T14:17:28.999Z</time></trkpt><trkpt lat="44.19488810087496" lon="9.649366599759178"><ele>578.0</ele><time>2026-05-01T14:17:29.999Z</time></trkpt><trkpt lat="44.19494484764599" lon="9.649301858380422"><ele>580.0</ele><time>2026-05-01T14:17:30.999Z</time></trkpt><trkpt lat="44.194996428199865" lon="9.649219318364453"><ele>582.0</ele><time>2026-05-01T14:17:31.999Z</time></trkpt><trkpt lat="44.19503943009496" lon="9.649111983096281"><ele>584.0</ele><time>2026-05-01T14:17:32.999Z</time></trkpt><trkpt lat="44.195050926867076" lon="9.648990802098965"><ele>586.0</ele><time>2026-05-01T14:17:33.999Z</time></trkpt><trkpt lat="44.1950045870889" lon="9.648858358217733"><ele>588.0</ele><time>2026-05-01T14:17:34.999Z</time></trkpt><trkpt lat="44.194963717375224" lon="9.648768590909265"><ele>590.0</ele><time>2026-05-01T14:17:35.999Z</time></trkpt><trkpt lat="44.194963280490725" lon="9.648630357801023"><ele>588.1666666666666</ele><time>2026-05-01T14:17:36.999Z</time></trkpt><trkpt lat="44.19496194773969" lon="9.648502498151439"><ele>586.3333333333333</ele><time>2026-05-01T14:17:37.999Z</time></trkpt><trkpt lat="44.194976496552776" lon="9.648385461650529"><ele>584.5</ele><time>2026-05-01T14:17:38.999Z</time></trkpt><trkpt lat="44.19500851169979" lon="9.648289489022474"><ele>582.6666666666666</ele><time>2026-05-01T14:17:39.999Z</time></trkpt><trkpt lat="44.19504858764013" lon="9.648174007104796"><ele>580.8333333333334</ele><time>2026-05-01T14:17:40.999Z</time></trkpt><trkpt lat="44.19509402371655" lon="9.64805018181689"><ele>579.0</ele><time>2026-05-01T14:17:41.999Z</time></trkpt><trkpt lat="44.195141514946904" lon="9.647966372510691"><ele>579.0</ele><time>2026-05-01T14:17:42.999Z</time></trkpt><trkpt lat="44.19521671447541" lon="9.647903448981154"><ele>579.0</ele><time>2026-05-01T14:17:43.999Z</time></trkpt><trkpt lat="44.195279387374086" lon="9.64780575476741"><ele>579.0</ele><time>2026-05-01T14:17:44.999Z</time></trkpt><trkpt lat="44.19531075401731" lon="9.647689736823358"><ele>579.0</ele><time>2026-05-01T14:17:45.999Z</time></trkpt><trkpt lat="44.1953422934079" lon="9.647581889381774"><ele>579.0</ele><time>2026-05-01T14:17:46.999Z</time></trkpt><trkpt lat="44.19540291164888" lon="9.647517848820117"><ele>579.0</ele><time>2026-05-01T14:17:47.999Z</time></trkpt><trkpt lat="44.19546701323418" lon="9.647454513152532"><ele>580.1666666666666</ele><time>2026-05-01T14:17:48.999Z</time></trkpt><trkpt lat="44.19553658153665" lon="9.647493748875798"><ele>581.3333333333334</ele><time>2026-05-01T14:17:49.999Z</time></trkpt><trkpt lat="44.19563088356842" lon="9.64761233715271"><ele>582.5</ele><time>2026-05-01T14:17:51.999Z</time></trkpt><trkpt lat="44.19567042278662" lon="9.647681960903194"><ele>583.6666666666667</ele><time>2026-05-01T14:17:52.999Z</time></trkpt><trkpt lat="44.19572453294914" lon="9.64773349401262"><ele>584.8333333333334</ele><time>2026-05-01T14:17:53.998Z</time></trkpt><trkpt lat="44.19580256709573" lon="9.647797575564672"><ele>586.0</ele><time>2026-05-01T14:17:54.998Z</time></trkpt><trkpt lat="44.19585739099349" lon="9.647744001111358"><ele>586.0</ele><time>2026-05-01T14:17:55.998Z</time></trkpt><trkpt lat="44.19589927787501" lon="9.647657706534591"><ele>586.0</ele><time>2026-05-01T14:17:56.998Z</time></trkpt><trkpt lat="44.19594436845457" lon="9.647567825997973"><ele>586.0</ele><time>2026-05-01T14:17:57.998Z</time></trkpt><trkpt lat="44.196010710724245" lon="9.647441413185303"><ele>586.0</ele><time>2026-05-01T14:17:58.998Z</time></trkpt><trkpt lat="44.1960899644447" lon="9.647310141335574"><ele>586.0</ele><time>2026-05-01T14:18:00.998Z</time></trkpt><trkpt lat="44.19620392789221" lon="9.64723796114631"><ele>586.0</ele><time>2026-05-01T14:18:03Z</time></trkpt><trkpt lat="44.19628777151694" lon="9.647180651327751"><ele>586.0</ele><time>2026-05-01T14:18:04Z</time></trkpt><trkpt lat="44.19636234245836" lon="9.647125898173448"><ele>586.0</ele><time>2026-05-01T14:18:05Z</time></trkpt><trkpt lat="44.196474067234234" lon="9.647015006846482"><ele>586.0</ele><time>2026-05-01T14:18:07Z</time></trkpt><trkpt lat="44.196520167930444" lon="9.646916136240126"><ele>586.0</ele><time>2026-05-01T14:18:08Z</time></trkpt><trkpt lat="44.196542545515555" lon="9.646810511412669"><ele>588.0</ele><time>2026-05-01T14:18:09Z</time></trkpt><trkpt lat="44.19656257161102" lon="9.646727120081335"><ele>590.0</ele><time>2026-05-01T14:18:10Z</time></trkpt><trkpt lat="44.19651740271566" lon="9.646649837607704"><ele>592.0</ele><time>2026-05-01T14:18:11Z</time></trkpt><trkpt lat="44.196509450609554" lon="9.646513327347265"><ele>594.0</ele><time>2026-05-01T14:18:12Z</time></trkpt><trkpt lat="44.19650821060856" lon="9.646396070775596"><ele>596.0</ele><time>2026-05-01T14:18:13Z</time></trkpt><trkpt lat="44.19645233457383" lon="9.646224845356677"><ele>588.25</ele><time>2026-05-01T14:18:15Z</time></trkpt><trkpt lat="44.196285258595935" lon="9.646044207773073"><ele>580.5</ele><time>2026-05-01T14:18:17Z</time></trkpt><trkpt lat="44.19622215693802" lon="9.645935174221536"><ele>572.75</ele><time>2026-05-01T14:18:18Z</time></trkpt><trkpt lat="44.19617506684863" lon="9.64583687091964"><ele>565.0</ele><time>2026-05-01T14:18:19Z</time></trkpt><trkpt lat="44.19610424158355" lon="9.645738442278937"><ele>565.0</ele><time>2026-05-01T14:18:20Z</time></trkpt><trkpt lat="44.196037131508355" lon="9.645668311244576"><ele>565.0</ele><time>2026-05-01T14:18:21Z</time></trkpt><trkpt lat="44.19592556531449" lon="9.645528919350976"><ele>565.0</ele><time>2026-05-01T14:18:23Z</time></trkpt><trkpt lat="44.195861369597644" lon="9.645410374573505"><ele>565.0</ele><time>2026-05-01T14:18:24Z</time></trkpt><trkpt lat="44.19580934328041" lon="9.645293907318644"><ele>565.0</ele><time>2026-05-01T14:18:25Z</time></trkpt><trkpt lat="44.19579076452224" lon="9.645181909267036"><ele>568.8</ele><time>2026-05-01T14:18:26Z</time></trkpt><trkpt lat="44.19576713319997" lon="9.64502720068413"><ele>572.6</ele><time>2026-05-01T14:18:27Z</time></trkpt><trkpt lat="44.19573100758359" lon="9.644925703635971"><ele>576.4</ele><time>2026-05-01T14:18:28Z</time></trkpt><trkpt lat="44.19565190074511" lon="9.644825480550082"><ele>580.2</ele><time>2026-05-01T14:18:29Z</time></trkpt><trkpt lat="44.195599007443384" lon="9.64470643732814"><ele>584.0</ele><time>2026-05-01T14:18:30Z</time></trkpt><trkpt lat="44.195564295665484" lon="9.64458731385696"><ele>575.6666666666666</ele><time>2026-05-01T14:18:31Z</time></trkpt><trkpt lat="44.19553727171704" lon="9.644471494371318"><ele>567.3333333333333</ele><time>2026-05-01T14:18:32Z</time></trkpt><trkpt lat="44.19551663461241" lon="9.644373382111946"><ele>559.0</ele><time>2026-05-01T14:18:33Z</time></trkpt><trkpt lat="44.19549375398285" lon="9.644252471433205"><ele>550.6666666666666</ele><time>2026-05-01T14:18:34Z</time></trkpt><trkpt lat="44.19548012899087" lon="9.644127797449425"><ele>542.3333333333334</ele><time>2026-05-01T14:18:35Z</time></trkpt><trkpt lat="44.19545642552887" lon="9.644008091951283"><ele>534.0</ele><time>2026-05-01T14:18:36Z</time></trkpt><trkpt lat="44.19543486801072" lon="9.643893154537427"><ele>534.0</ele><time>2026-05-01T14:18:37Z</time></trkpt><trkpt lat="44.19541226092157" lon="9.643772153073092"><ele>534.0</ele><time>2026-05-01T14:18:38Z</time></trkpt><trkpt lat="44.19539731609326" lon="9.643646055035154"><ele>534.0</ele><time>2026-05-01T14:18:39Z</time></trkpt><trkpt lat="44.195391936308006" lon="9.64351407232468"><ele>534.0</ele><time>2026-05-01T14:18:40Z</time></trkpt><trkpt lat="44.19539281692164" lon="9.643386665207222"><ele>534.0</ele><time>2026-05-01T14:18:41Z</time></trkpt><trkpt lat="44.19539647031424" lon="9.643252336036756"><ele>534.6666666666666</ele><time>2026-05-01T14:18:42Z</time></trkpt><trkpt lat="44.19540114813446" lon="9.643114654353859"><ele>535.3333333333334</ele><time>2026-05-01T14:18:43Z</time></trkpt><trkpt lat="44.195403428802166" lon="9.642967392323667"><ele>536.0</ele><time>2026-05-01T14:18:44Z</time></trkpt><trkpt lat="44.19540174572264" lon="9.642850876259011"><ele>536.6666666666667</ele><time>2026-05-01T14:18:45Z</time></trkpt><trkpt lat="44.19540015240665" lon="9.642727036633872"><ele>537.3333333333334</ele><time>2026-05-01T14:18:46Z</time></trkpt><trkpt lat="44.195408869593265" lon="9.642627311526978"><ele>538.0</ele><time>2026-05-01T14:18:47Z</time></trkpt><trkpt lat="44.19543344074729" lon="9.642526216326951"><ele>538.1666666666667</ele><time>2026-05-01T14:18:48Z</time></trkpt><trkpt lat="44.19548698773566" lon="9.642470925973843"><ele>538.3333333333334</ele><time>2026-05-01T14:18:49Z</time></trkpt><trkpt lat="44.19558912438577" lon="9.64251596667295"><ele>538.5</ele><time>2026-05-01T14:18:50Z</time></trkpt><trkpt lat="44.19563411716945" lon="9.642584178859902"><ele>538.6666666666666</ele><time>2026-05-01T14:18:51Z</time></trkpt><trkpt lat="44.19575836314518" lon="9.642618057206821"><ele>538.8333333333333</ele><time>2026-05-01T14:18:53Z</time></trkpt><trkpt lat="44.195817975256595" lon="9.642654787256369"><ele>539.0</ele><time>2026-05-01T14:18:54Z</time></trkpt><trkpt lat="44.195895494092014" lon="9.642672527105198"><ele>543.0</ele><time>2026-05-01T14:18:54.999Z</time></trkpt><trkpt lat="44.195953914367756" lon="9.642721358056079"><ele>547.0</ele><time>2026-05-01T14:18:55.999Z</time></trkpt><trkpt lat="44.19604274066678" lon="9.64274005869935"><ele>551.0</ele><time>2026-05-01T14:18:56.999Z</time></trkpt><trkpt lat="44.19612319061888" lon="9.642779901499498"><ele>555.0</ele><time>2026-05-01T14:18:57.999Z</time></trkpt><trkpt lat="44.1962002968728" lon="9.642815534551858"><ele>559.0</ele><time>2026-05-01T14:18:58.999Z</time></trkpt><trkpt lat="44.196263722958356" lon="9.642870727591124"><ele>563.0</ele><time>2026-05-01T14:18:59.999Z</time></trkpt><trkpt lat="44.19633833299015" lon="9.642926723159972"><ele>566.4</ele><time>2026-05-01T14:19:00.999Z</time></trkpt><trkpt lat="44.19641826696827" lon="9.642970548880024"><ele>569.8</ele><time>2026-05-01T14:19:01.999Z</time></trkpt><trkpt lat="44.19650501517895" lon="9.642966317511682"><ele>573.2</ele><time>2026-05-01T14:19:02.999Z</time></trkpt><trkpt lat="44.19657896752263" lon="9.6429464708775"><ele>576.6</ele><time>2026-05-01T14:19:03.999Z</time></trkpt><trkpt lat="44.19650859182449" lon="9.642836163245732"><ele>580.0</ele><time>2026-05-01T14:19:04.999Z</time></trkpt><trkpt lat="44.19656466770739" lon="9.642695406431312"><ele>580.0</ele><time>2026-05-01T14:19:05.999Z</time></trkpt><trkpt lat="44.196616362713826" lon="9.642607682034141"><ele>580.0</ele><time>2026-05-01T14:19:06.999Z</time></trkpt><trkpt lat="44.19667939231521" lon="9.642496645498685"><ele>580.0</ele><time>2026-05-01T14:19:07.999Z</time></trkpt><trkpt lat="44.1967161788796" lon="9.642414011946979"><ele>580.0</ele><time>2026-05-01T14:19:08.999Z</time></trkpt><trkpt lat="44.196727439003276" lon="9.642271966788558"><ele>580.0</ele><time>2026-05-01T14:19:09.999Z</time></trkpt><trkpt lat="44.19664511035217" lon="9.642139041653696"><ele>580.0</ele><time>2026-05-01T14:19:10.999Z</time></trkpt><trkpt lat="44.1966064681507" lon="9.642042388741354"><ele>580.0</ele><time>2026-05-01T14:19:11.999Z</time></trkpt><trkpt lat="44.19655735344899" lon="9.641919380831013"><ele>580.0</ele><time>2026-05-01T14:19:12.999Z</time></trkpt><trkpt lat="44.19649503074544" lon="9.641726441673436"><ele>580.0</ele><time>2026-05-01T14:19:14.999Z</time></trkpt><trkpt lat="44.196466788937315" lon="9.641605754984093"><ele>580.0</ele><time>2026-05-01T14:19:15.999Z</time></trkpt><trkpt lat="44.1964418191393" lon="9.641488410440031"><ele>572.0</ele><time>2026-05-01T14:19:16.999Z</time></trkpt><trkpt lat="44.19641458156577" lon="9.641351656183568"><ele>564.0</ele><time>2026-05-01T14:19:17.999Z</time></trkpt><trkpt lat="44.19638497391851" lon="9.641233884095282"><ele>556.0</ele><time>2026-05-01T14:19:18.999Z</time></trkpt><trkpt lat="44.196364362633034" lon="9.641095784371528"><ele>548.0</ele><time>2026-05-01T14:19:19.999Z</time></trkpt><trkpt lat="44.1963306737843" lon="9.64096004479586"><ele>540.0</ele><time>2026-05-01T14:19:20.999Z</time></trkpt><trkpt lat="44.19629883216352" lon="9.640834305917434"><ele>537.8333333333334</ele><time>2026-05-01T14:19:21.999Z</time></trkpt><trkpt lat="44.196283652607804" lon="9.640703078685776"><ele>535.6666666666666</ele><time>2026-05-01T14:19:22.999Z</time></trkpt><trkpt lat="44.19629365407706" lon="9.640571947858183"><ele>533.5</ele><time>2026-05-01T14:19:23.999Z</time></trkpt><trkpt lat="44.19631729680624" lon="9.640447791870248"><ele>531.3333333333333</ele><time>2026-05-01T14:19:24.999Z</time></trkpt><trkpt lat="44.19635508062102" lon="9.640364129879982"><ele>529.1666666666666</ele><time>2026-05-01T14:19:25.999Z</time></trkpt><trkpt lat="44.19641680751116" lon="9.64041320877575"><ele>527.0</ele><time>2026-05-01T14:19:28.999Z</time></trkpt><trkpt lat="44.19647508571972" lon="9.640532201216272"><ele>532.6666666666666</ele><time>2026-05-01T14:19:29.999Z</time></trkpt><trkpt lat="44.19653475269312" lon="9.64057118198591"><ele>538.3333333333333</ele><time>2026-05-01T14:19:30.999Z</time></trkpt><trkpt lat="44.1966044329601" lon="9.64062582396655"><ele>544.0</ele><time>2026-05-01T14:19:31.999Z</time></trkpt><trkpt lat="44.196689729709185" lon="9.640698549175745"><ele>549.6666666666666</ele><time>2026-05-01T14:19:32.999Z</time></trkpt><trkpt lat="44.19676835580674" lon="9.640705761874067"><ele>555.3333333333334</ele><time>2026-05-01T14:19:33.999Z</time></trkpt><trkpt lat="44.196870685221214" lon="9.64066983339425"><ele>561.0</ele><time>2026-05-01T14:19:34.999Z</time></trkpt><trkpt lat="44.19696519824191" lon="9.64052069394477"><ele>561.0</ele><time>2026-05-01T14:19:36.999Z</time></trkpt><trkpt lat="44.19698793652893" lon="9.64040278493956"><ele>561.0</ele><time>2026-05-01T14:19:37.999Z</time></trkpt><trkpt lat="44.19702453458686" lon="9.64024644893688"><ele>561.0</ele><time>2026-05-01T14:19:38.999Z</time></trkpt><trkpt lat="44.197064056804166" lon="9.640146231916692"><ele>561.0</ele><time>2026-05-01T14:19:39.999Z</time></trkpt><trkpt lat="44.19709835677164" lon="9.64005669176399"><ele>561.0</ele><time>2026-05-01T14:19:40.999Z</time></trkpt><trkpt lat="44.19713757442079" lon="9.639930853962985"><ele>556.5</ele><time>2026-05-01T14:19:41.999Z</time></trkpt><trkpt lat="44.19716976683643" lon="9.639799769401248"><ele>552.0</ele><time>2026-05-01T14:19:42.999Z</time></trkpt><trkpt lat="44.19718916810528" lon="9.639686338012384"><ele>547.5</ele><time>2026-05-01T14:19:43.999Z</time></trkpt><trkpt lat="44.19722207037702" lon="9.639585046869437"><ele>543.0</ele><time>2026-05-01T14:19:44.999Z</time></trkpt><trkpt lat="44.19724896329444" lon="9.639483126306361"><ele>538.5</ele><time>2026-05-01T14:19:45.999Z</time></trkpt><trkpt lat="44.19727632501083" lon="9.639390346599436"><ele>534.0</ele><time>2026-05-01T14:19:46.999Z</time></trkpt><trkpt lat="44.197330815419164" lon="9.639326976728427"><ele>536.2</ele><time>2026-05-01T14:19:47.999Z</time></trkpt><trkpt lat="44.19737448256367" lon="9.639226726326285"><ele>538.4</ele><time>2026-05-01T14:19:48.999Z</time></trkpt><trkpt lat="44.197455008977954" lon="9.63913346038453"><ele>540.6</ele><time>2026-05-01T14:19:49.999Z</time></trkpt><trkpt lat="44.19751475899187" lon="9.639050599752656"><ele>542.8</ele><time>2026-05-01T14:19:50.999Z</time></trkpt><trkpt lat="44.19756367378815" lon="9.638957955075117"><ele>545.0</ele><time>2026-05-01T14:19:51.999Z</time></trkpt><trkpt lat="44.197600238825224" lon="9.6388173470888"><ele>545.0</ele><time>2026-05-01T14:19:52.999Z</time></trkpt><trkpt lat="44.19760024396522" lon="9.638713382747838"><ele>545.0</ele><time>2026-05-01T14:19:53.999Z</time></trkpt><trkpt lat="44.19756404905655" lon="9.638584665874466"><ele>545.0</ele><time>2026-05-01T14:19:54.999Z</time></trkpt><trkpt lat="44.19753073717516" lon="9.638428040018166"><ele>545.0</ele><time>2026-05-01T14:19:55.999Z</time></trkpt><trkpt lat="44.19753814783901" lon="9.638300466521248"><ele>545.0</ele><time>2026-05-01T14:19:56.999Z</time></trkpt><trkpt lat="44.19756905890731" lon="9.638193772032647"><ele>541.4</ele><time>2026-05-01T14:19:57.999Z</time></trkpt><trkpt lat="44.19761356963501" lon="9.638110256763769"><ele>537.8</ele><time>2026-05-01T14:19:58.999Z</time></trkpt><trkpt lat="44.197659778206514" lon="9.63800954248248"><ele>534.2</ele><time>2026-05-01T14:19:59.999Z</time></trkpt><trkpt lat="44.197718281719915" lon="9.637887527093586"><ele>530.6</ele><time>2026-05-01T14:20:00.999Z</time></trkpt><trkpt lat="44.197771577149595" lon="9.63773957697187"><ele>527.0</ele><time>2026-05-01T14:20:01.999Z</time></trkpt><trkpt lat="44.19783314713105" lon="9.637623022490274"><ele>523.8000000000001</ele><time>2026-05-01T14:20:02.999Z</time></trkpt><trkpt lat="44.197884703092114" lon="9.637529227269182"><ele>520.6</ele><time>2026-05-01T14:20:03.999Z</time></trkpt><trkpt lat="44.19794516538111" lon="9.637417946265094"><ele>517.4000000000001</ele><time>2026-05-01T14:20:04.999Z</time></trkpt><trkpt lat="44.19802565832153" lon="9.637329276459988"><ele>514.2</ele><time>2026-05-01T14:20:05.999Z</time></trkpt><trkpt lat="44.1980950573238" lon="9.637222806043514"><ele>511.0</ele><time>2026-05-01T14:20:06.999Z</time></trkpt><trkpt lat="44.19813832844427" lon="9.637132498603485"><ele>506.20000000000005</ele><time>2026-05-01T14:20:08Z</time></trkpt><trkpt lat="44.1981725086559" lon="9.637021609417513"><ele>501.40000000000003</ele><time>2026-05-01T14:20:09Z</time></trkpt><trkpt lat="44.1981280054869" lon="9.636833260659062"><ele>496.6</ele><time>2026-05-01T14:20:10Z</time></trkpt><trkpt lat="44.198098120634725" lon="9.636702260937811"><ele>491.8</ele><time>2026-05-01T14:20:11Z</time></trkpt><trkpt lat="44.19807313654952" lon="9.636552122602964"><ele>487.0</ele><time>2026-05-01T14:20:12Z</time></trkpt><trkpt lat="44.19807182825085" lon="9.6364398216532"><ele>487.00000000000006</ele><time>2026-05-01T14:20:13Z</time></trkpt><trkpt lat="44.198080287470944" lon="9.636341410989118"><ele>487.0</ele><time>2026-05-01T14:20:14Z</time></trkpt><trkpt lat="44.198149691316765" lon="9.636212811062734"><ele>487.0</ele><time>2026-05-01T14:20:16Z</time></trkpt><trkpt lat="44.19820500608044" lon="9.636159179314925"><ele>487.0</ele><time>2026-05-01T14:20:17Z</time></trkpt><trkpt lat="44.19826940367774" lon="9.636109540337532"><ele>487.00000000000006</ele><time>2026-05-01T14:20:18Z</time></trkpt><trkpt lat="44.19833837470583" lon="9.636067873645692"><ele>487.0</ele><time>2026-05-01T14:20:19Z</time></trkpt><trkpt lat="44.198401972746815" lon="9.636043099823352"><ele>490.1666666666667</ele><time>2026-05-01T14:20:20Z</time></trkpt><trkpt lat="44.198483586870346" lon="9.636028457480089"><ele>493.33333333333337</ele><time>2026-05-01T14:20:21Z</time></trkpt><trkpt lat="44.19856885496784" lon="9.636017046522229"><ele>496.5</ele><time>2026-05-01T14:20:22Z</time></trkpt><trkpt lat="44.19865471019083" lon="9.636001956788578"><ele>499.66666666666663</ele><time>2026-05-01T14:20:23Z</time></trkpt><trkpt lat="44.19874176920467" lon="9.635972379917856"><ele>502.8333333333333</ele><time>2026-05-01T14:20:24Z</time></trkpt><trkpt lat="44.1988224551322" lon="9.635924043904446"><ele>506.0</ele><time>2026-05-01T14:20:25Z</time></trkpt><trkpt lat="44.198901872288175" lon="9.635863349257642"><ele>506.0</ele><time>2026-05-01T14:20:26Z</time></trkpt><trkpt lat="44.19896429439559" lon="9.635796268396852"><ele>506.0</ele><time>2026-05-01T14:20:27Z</time></trkpt><trkpt lat="44.199001976741386" lon="9.63569414172124"><ele>506.0</ele><time>2026-05-01T14:20:28Z</time></trkpt><trkpt lat="44.198949155049355" lon="9.635542114055731"><ele>506.0</ele><time>2026-05-01T14:20:29Z</time></trkpt><trkpt lat="44.19891714539003" lon="9.63542587466317"><ele>506.0</ele><time>2026-05-01T14:20:30Z</time></trkpt><trkpt lat="44.19886931602304" lon="9.635266710943801"><ele>501.0</ele><time>2026-05-01T14:20:31Z</time></trkpt><trkpt lat="44.19882396789333" lon="9.635137603189884"><ele>496.0</ele><time>2026-05-01T14:20:32Z</time></trkpt><trkpt lat="44.19876019881006" lon="9.635008810794888"><ele>491.0</ele><time>2026-05-01T14:20:33Z</time></trkpt><trkpt lat="44.198729853423806" lon="9.634872202438379"><ele>486.0</ele><time>2026-05-01T14:20:34Z</time></trkpt><trkpt lat="44.19869948287803" lon="9.634727624724976"><ele>481.0</ele><time>2026-05-01T14:20:35Z</time></trkpt><trkpt lat="44.19869341905614" lon="9.634598113833412"><ele>479.20000000000005</ele><time>2026-05-01T14:20:36Z</time></trkpt><trkpt lat="44.198710247668274" lon="9.634467753519669"><ele>477.40000000000003</ele><time>2026-05-01T14:20:37Z</time></trkpt><trkpt lat="44.19871503842814" lon="9.634323078551773"><ele>475.6</ele><time>2026-05-01T14:20:38Z</time></trkpt><trkpt lat="44.1987273505678" lon="9.634185394088265"><ele>473.8</ele><time>2026-05-01T14:20:39Z</time></trkpt><trkpt lat="44.19875200194043" lon="9.63407247587482"><ele>472.0</ele><time>2026-05-01T14:20:40Z</time></trkpt><trkpt lat="44.198839985068304" lon="9.633966245466054"><ele>472.00000000000006</ele><time>2026-05-01T14:20:42Z</time></trkpt><trkpt lat="44.19895853354809" lon="9.63394222130689"><ele>472.0</ele><time>2026-05-01T14:20:44Z</time></trkpt><trkpt lat="44.1990275474088" lon="9.633927042331164"><ele>472.0</ele><time>2026-05-01T14:20:45Z</time></trkpt><trkpt lat="44.199095211642934" lon="9.633917140690926"><ele>472.0</ele><time>2026-05-01T14:20:46Z</time></trkpt><trkpt lat="44.19916494233978" lon="9.633905423255824"><ele>472.00000000000006</ele><time>2026-05-01T14:20:47Z</time></trkpt><trkpt lat="44.19923752073912" lon="9.633893166919966"><ele>472.0</ele><time>2026-05-01T14:20:48Z</time></trkpt><trkpt lat="44.199312488538006" lon="9.633880507083887"><ele>480.75</ele><time>2026-05-01T14:20:49Z</time></trkpt><trkpt lat="44.19943806600665" lon="9.633846829988702"><ele>489.5</ele><time>2026-05-01T14:20:51Z</time></trkpt><trkpt lat="44.199517077743806" lon="9.633850160800748"><ele>498.25</ele><time>2026-05-01T14:20:52Z</time></trkpt><trkpt lat="44.19962131778806" lon="9.633864972238023"><ele>507.0</ele><time>2026-05-01T14:20:53Z</time></trkpt><trkpt lat="44.19976107677243" lon="9.633854804485882"><ele>511.75</ele><time>2026-05-01T14:20:54Z</time></trkpt><trkpt lat="44.1998994668712" lon="9.633771328951386"><ele>516.5</ele><time>2026-05-01T14:20:55Z</time></trkpt><trkpt lat="44.19997318568696" lon="9.633675178089023"><ele>521.25</ele><time>2026-05-01T14:20:56Z</time></trkpt><trkpt lat="44.20004503190699" lon="9.633587021336403"><ele>526.0</ele><time>2026-05-01T14:20:57Z</time></trkpt><trkpt lat="44.20013160063201" lon="9.63344660846942"><ele>517.6</ele><time>2026-05-01T14:20:58Z</time></trkpt><trkpt lat="44.200203789067906" lon="9.633328794131675"><ele>509.20000000000005</ele><time>2026-05-01T14:20:59Z</time></trkpt><trkpt lat="44.200278879019294" lon="9.63319089008788"><ele>500.79999999999995</ele><time>2026-05-01T14:21:00Z</time></trkpt><trkpt lat="44.20034545500199" lon="9.633050118452095"><ele>492.4</ele><time>2026-05-01T14:21:01Z</time></trkpt><trkpt lat="44.20039581817625" lon="9.63297610745748"><ele>484.0</ele><time>2026-05-01T14:21:02Z</time></trkpt><trkpt lat="44.20049058042307" lon="9.632862223626006"><ele>483.4</ele><time>2026-05-01T14:21:03Z</time></trkpt><trkpt lat="44.2005949423363" lon="9.632768958371585"><ele>482.79999999999995</ele><time>2026-05-01T14:21:04Z</time></trkpt><trkpt lat="44.20067308743773" lon="9.632664018368661"><ele>482.20000000000005</ele><time>2026-05-01T14:21:05Z</time></trkpt><trkpt lat="44.20069881797203" lon="9.63252447076013"><ele>481.6</ele><time>2026-05-01T14:21:06Z</time></trkpt><trkpt lat="44.200697186405726" lon="9.632401060678294"><ele>481.0</ele><time>2026-05-01T14:21:07Z</time></trkpt><trkpt lat="44.20072289885621" lon="9.632256752366722"><ele>481.0</ele><time>2026-05-01T14:21:07.999Z</time></trkpt><trkpt lat="44.20077399168919" lon="9.632182793788768"><ele>481.0</ele><time>2026-05-01T14:21:08.999Z</time></trkpt><trkpt lat="44.200824231405285" lon="9.632128198039648"><ele>481.0</ele><time>2026-05-01T14:21:09.999Z</time></trkpt><trkpt lat="44.20094020457431" lon="9.632087836964388"><ele>481.0</ele><time>2026-05-01T14:21:11.999Z</time></trkpt><trkpt lat="44.20105598085908" lon="9.632049074090354"><ele>481.0</ele><time>2026-05-01T14:21:13.999Z</time></trkpt><trkpt lat="44.201169973360386" lon="9.632018847304378"><ele>481.0</ele><time>2026-05-01T14:21:14.999Z</time></trkpt><trkpt lat="44.201240290578596" lon="9.632002978737557"><ele>481.0</ele><time>2026-05-01T14:21:15.999Z</time></trkpt><trkpt lat="44.20134730476891" lon="9.63195635175403"><ele>481.0</ele><time>2026-05-01T14:21:16.999Z</time></trkpt><trkpt lat="44.2014495348756" lon="9.631935325696789"><ele>481.0</ele><time>2026-05-01T14:21:17.999Z</time></trkpt><trkpt lat="44.201543292886754" lon="9.631915502683958"><ele>481.0</ele><time>2026-05-01T14:21:18.999Z</time></trkpt><trkpt lat="44.201661398291066" lon="9.631906266643627"><ele>477.6</ele><time>2026-05-01T14:21:19.999Z</time></trkpt><trkpt lat="44.20178803626805" lon="9.631908518548714"><ele>474.20000000000005</ele><time>2026-05-01T14:21:20.999Z</time></trkpt><trkpt lat="44.20189885938756" lon="9.63185504199038"><ele>470.79999999999995</ele><time>2026-05-01T14:21:21.999Z</time></trkpt><trkpt lat="44.2020028646519" lon="9.63181603898228"><ele>467.4</ele><time>2026-05-01T14:21:22.999Z</time></trkpt><trkpt lat="44.202073073363074" lon="9.631740119132795"><ele>464.0</ele><time>2026-05-01T14:21:23.999Z</time></trkpt><trkpt lat="44.20210140275889" lon="9.631577245680132"><ele>464.0</ele><time>2026-05-01T14:21:24.999Z</time></trkpt><trkpt lat="44.20216288471398" lon="9.631470369040771"><ele>464.0</ele><time>2026-05-01T14:21:25.999Z</time></trkpt><trkpt lat="44.20213046921755" lon="9.631283129204872"><ele>464.0</ele><time>2026-05-01T14:21:26.999Z</time></trkpt><trkpt lat="44.202140544173915" lon="9.63110248666108"><ele>464.0</ele><time>2026-05-01T14:21:27.999Z</time></trkpt><trkpt lat="44.202081428454306" lon="9.630959298915972"><ele>463.2</ele><time>2026-05-01T14:21:28.999Z</time></trkpt><trkpt lat="44.20202636007098" lon="9.630837266874108"><ele>462.4</ele><time>2026-05-01T14:21:29.999Z</time></trkpt><trkpt lat="44.20197006768183" lon="9.630758250361517"><ele>461.6</ele><time>2026-05-01T14:21:30.999Z</time></trkpt><trkpt lat="44.2019211480302" lon="9.630681798505307"><ele>460.8</ele><time>2026-05-01T14:21:31.999Z</time></trkpt><trkpt lat="44.201890478682415" lon="9.63058224312553"><ele>460.0</ele><time>2026-05-01T14:21:32.999Z</time></trkpt><trkpt lat="44.20182405669876" lon="9.630425921492565"><ele>460.00000000000006</ele><time>2026-05-01T14:21:34.999Z</time></trkpt><trkpt lat="44.201790614226226" lon="9.630332263934504"><ele>460.0</ele><time>2026-05-01T14:21:35.999Z</time></trkpt><trkpt lat="44.2017515856304" lon="9.630249570748685"><ele>460.0</ele><time>2026-05-01T14:21:36.999Z</time></trkpt><trkpt lat="44.20174739147443" lon="9.630151759080768"><ele>460.0</ele><time>2026-05-01T14:21:37.999Z</time></trkpt><trkpt lat="44.20179483170933" lon="9.629999231630439"><ele>460.00000000000006</ele><time>2026-05-01T14:21:39.999Z</time></trkpt><trkpt lat="44.20186393026292" lon="9.62996139243861"><ele>460.0</ele><time>2026-05-01T14:21:40.999Z</time></trkpt><trkpt lat="44.20192236243123" lon="9.629902670716774"><ele>460.83333333333337</ele><time>2026-05-01T14:21:41.999Z</time></trkpt><trkpt lat="44.20198459072329" lon="9.629847182064964"><ele>461.6666666666667</ele><time>2026-05-01T14:21:42.999Z</time></trkpt><trkpt lat="44.20204770354243" lon="9.629781833340223"><ele>462.5</ele><time>2026-05-01T14:21:43.999Z</time></trkpt><trkpt lat="44.202111314628645" lon="9.629705885979746"><ele>463.33333333333337</ele><time>2026-05-01T14:21:44.999Z</time></trkpt><trkpt lat="44.2021634492092" lon="9.629601102887461"><ele>464.1666666666667</ele><time>2026-05-01T14:21:45.999Z</time></trkpt><trkpt lat="44.20224816387416" lon="9.629515755561009"><ele>465.0</ele><time>2026-05-01T14:21:46.999Z</time></trkpt><trkpt lat="44.20231904744277" lon="9.629462313940618"><ele>466.6</ele><time>2026-05-01T14:21:47.999Z</time></trkpt><trkpt lat="44.202403022907006" lon="9.629394486266271"><ele>468.2</ele><time>2026-05-01T14:21:48.999Z</time></trkpt><trkpt lat="44.202484986306274" lon="9.629300703168239"><ele>469.79999999999995</ele><time>2026-05-01T14:21:49.999Z</time></trkpt><trkpt lat="44.202544705870636" lon="9.62921254575196"><ele>471.4</ele><time>2026-05-01T14:21:50.999Z</time></trkpt><trkpt lat="44.20257974523337" lon="9.629092895113265"><ele>473.0</ele><time>2026-05-01T14:21:51.999Z</time></trkpt><trkpt lat="44.20256523740431" lon="9.628935629067177"><ele>473.0</ele><time>2026-05-01T14:21:52.999Z</time></trkpt><trkpt lat="44.20257263006212" lon="9.62883099895633"><ele>472.99999999999994</ele><time>2026-05-01T14:21:53.999Z</time></trkpt><trkpt lat="44.20256227919842" lon="9.6287105647817"><ele>472.99999999999994</ele><time>2026-05-01T14:21:54.999Z</time></trkpt><trkpt lat="44.20256066307542" lon="9.628596969477035"><ele>473.0</ele><time>2026-05-01T14:21:55.999Z</time></trkpt><trkpt lat="44.20260328305003" lon="9.628488518311997"><ele>473.0</ele><time>2026-05-01T14:21:56.999Z</time></trkpt><trkpt lat="44.20273758831064" lon="9.628404054410158"><ele>469.59999999999997</ele><time>2026-05-01T14:21:58.999Z</time></trkpt><trkpt lat="44.20280051116982" lon="9.62831982064291"><ele>466.19999999999993</ele><time>2026-05-01T14:21:59.999Z</time></trkpt><trkpt lat="44.20286537508381" lon="9.628231534379132"><ele>462.8</ele><time>2026-05-01T14:22:00.999Z</time></trkpt><trkpt lat="44.20295823026144" lon="9.628061352848993"><ele>459.4</ele><time>2026-05-01T14:22:01.999Z</time></trkpt><trkpt lat="44.203026082281575" lon="9.627979969778252"><ele>456.0</ele><time>2026-05-01T14:22:02.999Z</time></trkpt><trkpt lat="44.203088978454026" lon="9.627884710118279"><ele>459.4</ele><time>2026-05-01T14:22:03.999Z</time></trkpt><trkpt lat="44.20312634083621" lon="9.627774356643085"><ele>462.8</ele><time>2026-05-01T14:22:04.999Z</time></trkpt><trkpt lat="44.20317109408657" lon="9.627646162582582"><ele>466.19999999999993</ele><time>2026-05-01T14:22:05.999Z</time></trkpt><trkpt lat="44.203197205251335" lon="9.62752948941781"><ele>469.59999999999997</ele><time>2026-05-01T14:22:06.999Z</time></trkpt><trkpt lat="44.20320895884591" lon="9.627400820761933"><ele>473.0</ele><time>2026-05-01T14:22:07.999Z</time></trkpt><trkpt lat="44.20322340876469" lon="9.627254864541731"><ele>473.0</ele><time>2026-05-01T14:22:08.999Z</time></trkpt><trkpt lat="44.2032481791656" lon="9.627117523739217"><ele>472.99999999999994</ele><time>2026-05-01T14:22:09.999Z</time></trkpt><trkpt lat="44.20325624835481" lon="9.626991320153596"><ele>472.99999999999994</ele><time>2026-05-01T14:22:10.999Z</time></trkpt><trkpt lat="44.203285471453135" lon="9.62685217835487"><ele>473.0</ele><time>2026-05-01T14:22:11.999Z</time></trkpt><trkpt lat="44.20327194803198" lon="9.626719171535068"><ele>473.0</ele><time>2026-05-01T14:22:12.999Z</time></trkpt><trkpt lat="44.20328038800443" lon="9.626580506226485"><ele>470.0</ele><time>2026-05-01T14:22:14Z</time></trkpt><trkpt lat="44.203310147031615" lon="9.62647246617943"><ele>466.99999999999994</ele><time>2026-05-01T14:22:15Z</time></trkpt><trkpt lat="44.20335731211477" lon="9.62637256459898"><ele>463.99999999999994</ele><time>2026-05-01T14:22:16Z</time></trkpt><trkpt lat="44.20342644944658" lon="9.626277287736121"><ele>461.0</ele><time>2026-05-01T14:22:17Z</time></trkpt><trkpt lat="44.20349300568635" lon="9.626193269920957"><ele>458.0</ele><time>2026-05-01T14:22:18Z</time></trkpt><trkpt lat="44.20356447395807" lon="9.62608225375311"><ele>453.59999999999997</ele><time>2026-05-01T14:22:19Z</time></trkpt><trkpt lat="44.20365181794018" lon="9.625904190631832"><ele>449.19999999999993</ele><time>2026-05-01T14:22:21Z</time></trkpt><trkpt lat="44.203689132457036" lon="9.625788765883467"><ele>444.8</ele><time>2026-05-01T14:22:22Z</time></trkpt><trkpt lat="44.2037386625577" lon="9.62569169577755"><ele>440.4</ele><time>2026-05-01T14:22:23Z</time></trkpt><trkpt lat="44.20385058525699" lon="9.625694488789811"><ele>436.0</ele><time>2026-05-01T14:22:24Z</time></trkpt><trkpt lat="44.203925483744655" lon="9.625618654131902"><ele>436.0</ele><time>2026-05-01T14:22:25Z</time></trkpt><trkpt lat="44.20395493624032" lon="9.625489204441546"><ele>436.0</ele><time>2026-05-01T14:22:26Z</time></trkpt><trkpt lat="44.203957381885985" lon="9.625350435500934"><ele>436.0</ele><time>2026-05-01T14:22:27Z</time></trkpt><trkpt lat="44.20399354144204" lon="9.625236172010084"><ele>436.0</ele><time>2026-05-01T14:22:28Z</time></trkpt><trkpt lat="44.204029823023845" lon="9.625125387661148"><ele>436.0</ele><time>2026-05-01T14:22:29Z</time></trkpt><trkpt lat="44.20408651259896" lon="9.62504148779376"><ele>436.20000000000005</ele><time>2026-05-01T14:22:30Z</time></trkpt><trkpt lat="44.204151644622726" lon="9.624998842519428"><ele>436.40000000000003</ele><time>2026-05-01T14:22:31Z</time></trkpt><trkpt lat="44.20421964636589" lon="9.624922294988279"><ele>436.6</ele><time>2026-05-01T14:22:32Z</time></trkpt><trkpt lat="44.20427688914928" lon="9.624805603525562"><ele>436.8</ele><time>2026-05-01T14:22:33Z</time></trkpt><trkpt lat="44.204334283054735" lon="9.624586416677145"><ele>437.0</ele><time>2026-05-01T14:22:35Z</time></trkpt><trkpt lat="44.204368535373064" lon="9.62446396419936"><ele>437.0</ele><time>2026-05-01T14:22:36Z</time></trkpt><trkpt lat="44.20435439666378" lon="9.624304088261123"><ele>437.00000000000006</ele><time>2026-05-01T14:22:37Z</time></trkpt><trkpt lat="44.204344963279276" lon="9.624184478246972"><ele>437.00000000000006</ele><time>2026-05-01T14:22:38Z</time></trkpt><trkpt lat="44.20436545712521" lon="9.624085244688452"><ele>437.0</ele><time>2026-05-01T14:22:39Z</time></trkpt><trkpt lat="44.204419922435065" lon="9.624003284810547"><ele>437.0</ele><time>2026-05-01T14:22:40Z</time></trkpt><trkpt lat="44.20452470782222" lon="9.623966113937225"><ele>437.0</ele><time>2026-05-01T14:22:41Z</time></trkpt><trkpt lat="44.20460940411902" lon="9.623925914366032"><ele>437.00000000000006</ele><time>2026-05-01T14:22:42Z</time></trkpt><trkpt lat="44.204705039408005" lon="9.623892603525366"><ele>437.00000000000006</ele><time>2026-05-01T14:22:43Z</time></trkpt><trkpt lat="44.20478644516373" lon="9.62383052445989"><ele>437.0</ele><time>2026-05-01T14:22:44Z</time></trkpt><trkpt lat="44.204825485870856" lon="9.623698266056532"><ele>437.0</ele><time>2026-05-01T14:22:45Z</time></trkpt><trkpt lat="44.20486016974293" lon="9.623576081641547"><ele>438.99999999999994</ele><time>2026-05-01T14:22:46Z</time></trkpt><trkpt lat="44.204897804287725" lon="9.62345615411702"><ele>441.0</ele><time>2026-05-01T14:22:47Z</time></trkpt><trkpt lat="44.204930859745375" lon="9.623343796873272"><ele>443.0</ele><time>2026-05-01T14:22:48Z</time></trkpt><trkpt lat="44.20496776863306" lon="9.623245264361723"><ele>445.0</ele><time>2026-05-01T14:22:49Z</time></trkpt><trkpt lat="44.20500554183652" lon="9.623164599924742"><ele>446.99999999999994</ele><time>2026-05-01T14:22:50Z</time></trkpt><trkpt lat="44.205087328311166" lon="9.623121641000441"><ele>449.0</ele><time>2026-05-01T14:22:51Z</time></trkpt><trkpt lat="44.205159238941036" lon="9.623066097400102"><ele>448.99999999999994</ele><time>2026-05-01T14:22:52Z</time></trkpt><trkpt lat="44.20520075314088" lon="9.622968526233343"><ele>449.0</ele><time>2026-05-01T14:22:53Z</time></trkpt><trkpt lat="44.205213810807344" lon="9.622858829197678"><ele>449.0</ele><time>2026-05-01T14:22:54Z</time></trkpt><trkpt lat="44.205207714709935" lon="9.62274264132068"><ele>449.0</ele><time>2026-05-01T14:22:55Z</time></trkpt><trkpt lat="44.20519400328765" lon="9.622635980328845"><ele>448.99999999999994</ele><time>2026-05-01T14:22:56Z</time></trkpt><trkpt lat="44.205224942085046" lon="9.62252890742199"><ele>449.0</ele><time>2026-05-01T14:22:57Z</time></trkpt><trkpt lat="44.2052441830174" lon="9.622427900534747"><ele>446.99999999999994</ele><time>2026-05-01T14:22:58Z</time></trkpt><trkpt lat="44.20527234732694" lon="9.622330938490855"><ele>445.0</ele><time>2026-05-01T14:22:59Z</time></trkpt><trkpt lat="44.205286211081685" lon="9.622224555842527"><ele>443.0</ele><time>2026-05-01T14:23:00Z</time></trkpt><trkpt lat="44.20528733642527" lon="9.622115155589217"><ele>441.0</ele><time>2026-05-01T14:23:01Z</time></trkpt><trkpt lat="44.20530082325059" lon="9.622010272849046"><ele>438.99999999999994</ele><time>2026-05-01T14:23:02Z</time></trkpt><trkpt lat="44.20533092587947" lon="9.621918969291078"><ele>437.0</ele><time>2026-05-01T14:23:03Z</time></trkpt><trkpt lat="44.2054090320752" lon="9.621861373565743"><ele>436.99999999999994</ele><time>2026-05-01T14:23:04Z</time></trkpt><trkpt lat="44.2054428585663" lon="9.621776454564863"><ele>437.0</ele><time>2026-05-01T14:23:05Z</time></trkpt><trkpt lat="44.20546768251086" lon="9.621651313018058"><ele>437.0</ele><time>2026-05-01T14:23:06Z</time></trkpt><trkpt lat="44.20546634255507" lon="9.62154857890102"><ele>437.0</ele><time>2026-05-01T14:23:07Z</time></trkpt><trkpt lat="44.20546516134058" lon="9.621431133418833"><ele>436.99999999999994</ele><time>2026-05-01T14:23:08Z</time></trkpt><trkpt lat="44.20545358694259" lon="9.621291474356399"><ele>437.0</ele><time>2026-05-01T14:23:09Z</time></trkpt><trkpt lat="44.205419195353805" lon="9.621159265867826"><ele>437.16666666666663</ele><time>2026-05-01T14:23:10Z</time></trkpt><trkpt lat="44.20536339803081" lon="9.62105575437105"><ele>437.3333333333333</ele><time>2026-05-01T14:23:11Z</time></trkpt><trkpt lat="44.20529266102375" lon="9.620973365023834"><ele>437.5</ele><time>2026-05-01T14:23:12Z</time></trkpt><trkpt lat="44.20523345825417" lon="9.620889851450674"><ele>437.66666666666663</ele><time>2026-05-01T14:23:13Z</time></trkpt><trkpt lat="44.20519199854326" lon="9.620813601687377"><ele>437.8333333333333</ele><time>2026-05-01T14:23:14Z</time></trkpt><trkpt lat="44.205187584035436" lon="9.620714654541432"><ele>438.0</ele><time>2026-05-01T14:23:15Z</time></trkpt><trkpt lat="44.20524234052439" lon="9.620538685470411"><ele>438.0</ele><time>2026-05-01T14:23:16.999Z</time></trkpt><trkpt lat="44.20527336483015" lon="9.620452097646059"><ele>437.99999999999994</ele><time>2026-05-01T14:23:17.999Z</time></trkpt><trkpt lat="44.20526304417645" lon="9.620338500551807"><ele>437.99999999999994</ele><time>2026-05-01T14:23:18.999Z</time></trkpt><trkpt lat="44.205093594181925" lon="9.620292762970678"><ele>438.0</ele><time>2026-05-01T14:23:19.999Z</time></trkpt><trkpt lat="44.20501280514167" lon="9.620278863224504"><ele>438.0</ele><time>2026-05-01T14:23:20.999Z</time></trkpt><trkpt lat="44.204929602793335" lon="9.620290656459757"><ele>438.0</ele><time>2026-05-01T14:23:21.999Z</time></trkpt><trkpt lat="44.20484241344864" lon="9.620327908980418"><ele>438.0</ele><time>2026-05-01T14:23:22.999Z</time></trkpt><trkpt lat="44.204760378596816" lon="9.620330339207657"><ele>438.0</ele><time>2026-05-01T14:23:23.999Z</time></trkpt><trkpt lat="44.20467500028079" lon="9.620321671546058"><ele>438.0</ele><time>2026-05-01T14:23:24.999Z</time></trkpt><trkpt lat="44.20460316934101" lon="9.62026477028253"><ele>438.0</ele><time>2026-05-01T14:23:25.999Z</time></trkpt><trkpt lat="44.20457922072235" lon="9.620145689797518"><ele>438.0</ele><time>2026-05-01T14:23:26.999Z</time></trkpt><trkpt lat="44.204499000439924" lon="9.620054495027288"><ele>434.1666666666667</ele><time>2026-05-01T14:23:27.999Z</time></trkpt><trkpt lat="44.20442387425834" lon="9.619974280800873"><ele>430.33333333333337</ele><time>2026-05-01T14:23:28.999Z</time></trkpt><trkpt lat="44.20435603400172" lon="9.619902324218112"><ele>426.5</ele><time>2026-05-01T14:23:29.999Z</time></trkpt><trkpt lat="44.20428343834127" lon="9.61983130387416"><ele>422.6666666666667</ele><time>2026-05-01T14:23:30.999Z</time></trkpt><trkpt lat="44.20420797768381" lon="9.619766708333895"><ele>418.83333333333337</ele><time>2026-05-01T14:23:31.999Z</time></trkpt><trkpt lat="44.2041326025565" lon="9.619720341451016"><ele>415.0</ele><time>2026-05-01T14:23:32.999Z</time></trkpt><trkpt lat="44.20404544563187" lon="9.619703266294882"><ele>414.6666666666667</ele><time>2026-05-01T14:23:33.999Z</time></trkpt><trkpt lat="44.203965734065996" lon="9.619665494091201"><ele>414.33333333333337</ele><time>2026-05-01T14:23:34.999Z</time></trkpt><trkpt lat="44.20389312627009" lon="9.619619626310163"><ele>414.0</ele><time>2026-05-01T14:23:35.999Z</time></trkpt><trkpt lat="44.20382096390623" lon="9.619565717493026"><ele>413.66666666666663</ele><time>2026-05-01T14:23:36.999Z</time></trkpt><trkpt lat="44.20376731970078" lon="9.619468721117215"><ele>413.3333333333333</ele><time>2026-05-01T14:23:37.999Z</time></trkpt><trkpt lat="44.20370106274031" lon="9.619386864870423"><ele>413.0</ele><time>2026-05-01T14:23:38.999Z</time></trkpt><trkpt lat="44.20365961029481" lon="9.619272292927848"><ele>413.0</ele><time>2026-05-01T14:23:39.999Z</time></trkpt><trkpt lat="44.203610684758374" lon="9.619173404582142"><ele>413.0</ele><time>2026-05-01T14:23:40.999Z</time></trkpt><trkpt lat="44.20353980018941" lon="9.619077318736007"><ele>413.0</ele><time>2026-05-01T14:23:41.999Z</time></trkpt><trkpt lat="44.20345682525913" lon="9.619006986580084"><ele>413.0</ele><time>2026-05-01T14:23:42.999Z</time></trkpt><trkpt lat="44.20336449448336" lon="9.618967185683733"><ele>413.0</ele><time>2026-05-01T14:23:43.999Z</time></trkpt><trkpt lat="44.20327045051632" lon="9.618948219306882"><ele>413.0</ele><time>2026-05-01T14:23:44.999Z</time></trkpt><trkpt lat="44.203191960401874" lon="9.618934998730827"><ele>413.0</ele><time>2026-05-01T14:23:45.999Z</time></trkpt><trkpt lat="44.20310800408251" lon="9.618872751183345"><ele>413.0</ele><time>2026-05-01T14:23:46.999Z</time></trkpt><trkpt lat="44.20304025911574" lon="9.618777128731569"><ele>413.0</ele><time>2026-05-01T14:23:47.999Z</time></trkpt><trkpt lat="44.2029898010224" lon="9.61866815130671"><ele>413.0</ele><time>2026-05-01T14:23:48.999Z</time></trkpt><trkpt lat="44.202932267582106" lon="9.618571527759022"><ele>412.79999999999995</ele><time>2026-05-01T14:23:49.999Z</time></trkpt><trkpt lat="44.20285216678725" lon="9.618500033779942"><ele>412.6</ele><time>2026-05-01T14:23:50.999Z</time></trkpt><trkpt lat="44.20274849161275" lon="9.61847599270615"><ele>412.4</ele><time>2026-05-01T14:23:51.999Z</time></trkpt><trkpt lat="44.202657456489725" lon="9.618454140284967"><ele>412.20000000000005</ele><time>2026-05-01T14:23:52.999Z</time></trkpt><trkpt lat="44.20257326742926" lon="9.61844061712275"><ele>412.0</ele><time>2026-05-01T14:23:53.999Z</time></trkpt><trkpt lat="44.20249015696439" lon="9.618413935062884"><ele>412.00000000000006</ele><time>2026-05-01T14:23:54.999Z</time></trkpt><trkpt lat="44.2023989067434" lon="9.618407147024765"><ele>412.0</ele><time>2026-05-01T14:23:55.999Z</time></trkpt><trkpt lat="44.20232035453721" lon="9.618394400873644"><ele>412.0</ele><time>2026-05-01T14:23:56.999Z</time></trkpt><trkpt lat="44.20225165862885" lon="9.618368109756805"><ele>412.0</ele><time>2026-05-01T14:23:57.999Z</time></trkpt><trkpt lat="44.202179665125044" lon="9.618309291861673"><ele>412.00000000000006</ele><time>2026-05-01T14:23:58.999Z</time></trkpt><trkpt lat="44.20213760616941" lon="9.618215304771162"><ele>412.0</ele><time>2026-05-01T14:23:59.999Z</time></trkpt><trkpt lat="44.202115444574524" lon="9.618101355720807"><ele>409.83333333333337</ele><time>2026-05-01T14:24:00.999Z</time></trkpt><trkpt lat="44.202102851571105" lon="9.617973219045371"><ele>407.6666666666667</ele><time>2026-05-01T14:24:01.999Z</time></trkpt><trkpt lat="44.20210456327985" lon="9.617861236898491"><ele>405.5</ele><time>2026-05-01T14:24:02.999Z</time></trkpt><trkpt lat="44.20208823232337" lon="9.617744541870886"><ele>403.33333333333337</ele><time>2026-05-01T14:24:03.999Z</time></trkpt><trkpt lat="44.20205920126735" lon="9.617630747044329"><ele>401.1666666666667</ele><time>2026-05-01T14:24:04.999Z</time></trkpt><trkpt lat="44.202011581589005" lon="9.617545471870113"><ele>399.0</ele><time>2026-05-01T14:24:05.999Z</time></trkpt><trkpt lat="44.20194320862952" lon="9.617484200723911"><ele>399.0</ele><time>2026-05-01T14:24:06.999Z</time></trkpt><trkpt lat="44.20185832615629" lon="9.617462042220028"><ele>399.0</ele><time>2026-05-01T14:24:07.999Z</time></trkpt><trkpt lat="44.201769817738075" lon="9.61745303789846"><ele>399.0</ele><time>2026-05-01T14:24:08.999Z</time></trkpt><trkpt lat="44.20169266942284" lon="9.617438751197959"><ele>399.0</ele><time>2026-05-01T14:24:09.999Z</time></trkpt><trkpt lat="44.2016034455209" lon="9.617431312852613"><ele>399.0</ele><time>2026-05-01T14:24:10.999Z</time></trkpt><trkpt lat="44.20152639599509" lon="9.617408163002414"><ele>399.0</ele><time>2026-05-01T14:24:11.999Z</time></trkpt><trkpt lat="44.201440734604766" lon="9.617380910586027"><ele>395.2</ele><time>2026-05-01T14:24:12.999Z</time></trkpt><trkpt lat="44.20136080556896" lon="9.617350495544429"><ele>391.4</ele><time>2026-05-01T14:24:13.999Z</time></trkpt><trkpt lat="44.20126177860761" lon="9.617338088003406"><ele>387.6</ele><time>2026-05-01T14:24:14.999Z</time></trkpt><trkpt lat="44.20116799415718" lon="9.617333023181551"><ele>383.8</ele><time>2026-05-01T14:24:15.999Z</time></trkpt><trkpt lat="44.20106974430788" lon="9.617329056377878"><ele>380.0</ele><time>2026-05-01T14:24:16.999Z</time></trkpt><trkpt lat="44.20097527082279" lon="9.617301803129696"><ele>380.0</ele><time>2026-05-01T14:24:17.999Z</time></trkpt><trkpt lat="44.200892870122544" lon="9.617278092595487"><ele>380.0</ele><time>2026-05-01T14:24:18.999Z</time></trkpt><trkpt lat="44.20080826760981" lon="9.617194852667094"><ele>380.0</ele><time>2026-05-01T14:24:20Z</time></trkpt><trkpt lat="44.20070670409944" lon="9.617139978692652"><ele>380.0</ele><time>2026-05-01T14:24:21Z</time></trkpt><trkpt lat="44.20062317272854" lon="9.61706949742072"><ele>380.0</ele><time>2026-05-01T14:24:22Z</time></trkpt><trkpt lat="44.20052777751482" lon="9.61700487755978"><ele>380.8</ele><time>2026-05-01T14:24:23Z</time></trkpt><trkpt lat="44.20045041857056" lon="9.616915981589248"><ele>381.6</ele><time>2026-05-01T14:24:24Z</time></trkpt><trkpt lat="44.200374971144" lon="9.616876802490014"><ele>382.4</ele><time>2026-05-01T14:24:25Z</time></trkpt><trkpt lat="44.20030037294241" lon="9.616844102030173"><ele>383.2</ele><time>2026-05-01T14:24:26Z</time></trkpt><trkpt lat="44.20022447304707" lon="9.616933738920563"><ele>384.0</ele><time>2026-05-01T14:24:28Z</time></trkpt><trkpt lat="44.20018081478858" lon="9.61709057910994"><ele>384.0</ele><time>2026-05-01T14:24:30Z</time></trkpt><trkpt lat="44.200182118816684" lon="9.617229102093688"><ele>384.0</ele><time>2026-05-01T14:24:32Z</time></trkpt><trkpt lat="44.200178388902934" lon="9.617320428103085"><ele>384.0</ele><time>2026-05-01T14:24:33Z</time></trkpt><trkpt lat="44.20016694767264" lon="9.61741668046211"><ele>384.0</ele><time>2026-05-01T14:24:34Z</time></trkpt><trkpt lat="44.20014378901964" lon="9.617509965367134"><ele>384.0</ele><time>2026-05-01T14:24:35Z</time></trkpt><trkpt lat="44.200129242747906" lon="9.617613614436939"><ele>384.0</ele><time>2026-05-01T14:24:36Z</time></trkpt><trkpt lat="44.20010360450256" lon="9.61772315059"><ele>379.8333333333333</ele><time>2026-05-01T14:24:37Z</time></trkpt><trkpt lat="44.200090508410696" lon="9.61784221059655"><ele>375.6666666666667</ele><time>2026-05-01T14:24:38Z</time></trkpt><trkpt lat="44.20008568062146" lon="9.617953070133648"><ele>371.5</ele><time>2026-05-01T14:24:39Z</time></trkpt><trkpt lat="44.20004888957633" lon="9.618066795856409"><ele>367.33333333333337</ele><time>2026-05-01T14:24:40Z</time></trkpt><trkpt lat="44.200016000992065" lon="9.618153384074215"><ele>363.1666666666667</ele><time>2026-05-01T14:24:41Z</time></trkpt><trkpt lat="44.19997819742577" lon="9.61827461662517"><ele>359.0</ele><time>2026-05-01T14:24:43Z</time></trkpt><trkpt lat="44.20005972536964" lon="9.618324481477327"><ele>359.0</ele><time>2026-05-01T14:24:45Z</time></trkpt><trkpt lat="44.20011908345607" lon="9.618190578459467"><ele>359.0</ele><time>2026-05-01T14:24:47Z</time></trkpt><trkpt lat="44.20014114689565" lon="9.618088638332763"><ele>359.0</ele><time>2026-05-01T14:24:49Z</time></trkpt><trkpt lat="44.20017703842987" lon="9.61798493701754"><ele>359.0</ele><time>2026-05-01T14:24:52Z</time></trkpt><trkpt lat="44.200220505775214" lon="9.617872470286148"><ele>359.0</ele><time>2026-05-01T14:24:54Z</time></trkpt><trkpt lat="44.200265993996325" lon="9.617756574177722"><ele>364.0</ele><time>2026-05-01T14:24:56Z</time></trkpt><trkpt lat="44.20033925041121" lon="9.61762045465875"><ele>369.0</ele><time>2026-05-01T14:24:58Z</time></trkpt><trkpt lat="44.20041305000682" lon="9.617507138751593"><ele>374.0</ele><time>2026-05-01T14:25:00Z</time></trkpt><trkpt lat="44.2005345431948" lon="9.61751187710342"><ele>379.0</ele><time>2026-05-01T14:25:02Z</time></trkpt><trkpt lat="44.200597781136786" lon="9.617573758850249"><ele>384.0</ele><time>2026-05-01T14:25:03Z</time></trkpt><trkpt lat="44.20065275534449" lon="9.617659592487911"><ele>383.3333333333333</ele><time>2026-05-01T14:25:04Z</time></trkpt><trkpt lat="44.200700850436334" lon="9.617754762062523"><ele>382.6666666666667</ele><time>2026-05-01T14:25:05Z</time></trkpt><trkpt lat="44.200748679448125" lon="9.617854085379857"><ele>382.0</ele><time>2026-05-01T14:25:06Z</time></trkpt><trkpt lat="44.20080152616115" lon="9.617948013814734"><ele>381.33333333333337</ele><time>2026-05-01T14:25:07Z</time></trkpt><trkpt lat="44.2008389905265" lon="9.618057820898779"><ele>380.6666666666667</ele><time>2026-05-01T14:25:08Z</time></trkpt><trkpt lat="44.20090511884132" lon="9.618146343121692"><ele>380.0</ele><time>2026-05-01T14:25:09Z</time></trkpt><trkpt lat="44.200960404622705" lon="9.61824129433778"><ele>374.4</ele><time>2026-05-01T14:25:10Z</time></trkpt><trkpt lat="44.201037738004004" lon="9.618305002193564"><ele>368.8</ele><time>2026-05-01T14:25:11Z</time></trkpt><trkpt lat="44.201128878141546" lon="9.618320810705052"><ele>363.20000000000005</ele><time>2026-05-01T14:25:12Z</time></trkpt><trkpt lat="44.20122049925128" lon="9.618312125238187"><ele>357.6</ele><time>2026-05-01T14:25:13Z</time></trkpt><trkpt lat="44.201312669431836" lon="9.618338205733954"><ele>352.0</ele><time>2026-05-01T14:25:14Z</time></trkpt><trkpt lat="44.20139733551892" lon="9.618381982420704"><ele>352.0</ele><time>2026-05-01T14:25:15Z</time></trkpt><trkpt lat="44.201473488034594" lon="9.618441554304713"><ele>352.0</ele><time>2026-05-01T14:25:16Z</time></trkpt><trkpt lat="44.20152152565949" lon="9.618508282200759"><ele>352.0</ele><time>2026-05-01T14:25:17Z</time></trkpt><trkpt lat="44.201529637910475" lon="9.618663545369666"><ele>352.0</ele><time>2026-05-01T14:25:18.999Z</time></trkpt><trkpt lat="44.201491556166474" lon="9.618761600353722"><ele>352.0</ele><time>2026-05-01T14:25:19.999Z</time></trkpt><trkpt lat="44.201479537241426" lon="9.61886034389367"><ele>352.0</ele><time>2026-05-01T14:25:20.999Z</time></trkpt><trkpt lat="44.20147746944108" lon="9.618971456622706"><ele>351.3333333333333</ele><time>2026-05-01T14:25:21.999Z</time></trkpt><trkpt lat="44.20149526151136" lon="9.61907582720511"><ele>350.66666666666663</ele><time>2026-05-01T14:25:22.999Z</time></trkpt><trkpt lat="44.2015422576208" lon="9.619157830373897"><ele>350.0</ele><time>2026-05-01T14:25:23.999Z</time></trkpt><trkpt lat="44.20162824656689" lon="9.619163681816623"><ele>349.3333333333333</ele><time>2026-05-01T14:25:24.999Z</time></trkpt><trkpt lat="44.20171967085906" lon="9.61918893566482"><ele>348.6666666666667</ele><time>2026-05-01T14:25:25.999Z</time></trkpt><trkpt lat="44.20181124798753" lon="9.619221448163557"><ele>348.0</ele><time>2026-05-01T14:25:26.999Z</time></trkpt><trkpt lat="44.20187738334378" lon="9.619332378960008"><ele>348.0</ele><time>2026-05-01T14:25:27.999Z</time></trkpt><trkpt lat="44.201959523369105" lon="9.61940737730153"><ele>348.0</ele><time>2026-05-01T14:25:28.999Z</time></trkpt><trkpt lat="44.20202857424549" lon="9.619485810332904"><ele>348.0</ele><time>2026-05-01T14:25:29.999Z</time></trkpt><trkpt lat="44.202093141120514" lon="9.619558253189497"><ele>348.0</ele><time>2026-05-01T14:25:30.999Z</time></trkpt><trkpt lat="44.202128031878004" lon="9.619640455704698"><ele>348.0</ele><time>2026-05-01T14:25:31.999Z</time></trkpt><trkpt lat="44.20213518305401" lon="9.61975769641198"><ele>348.0</ele><time>2026-05-01T14:25:32.999Z</time></trkpt><trkpt lat="44.20207949105618" lon="9.619885423259792"><ele>343.8333333333333</ele><time>2026-05-01T14:25:33.999Z</time></trkpt><trkpt lat="44.20201521530539" lon="9.619972342318253"><ele>339.6666666666667</ele><time>2026-05-01T14:25:34.999Z</time></trkpt><trkpt lat="44.201970655914856" lon="9.620083434447642"><ele>335.5</ele><time>2026-05-01T14:25:35.999Z</time></trkpt><trkpt lat="44.20194875122655" lon="9.620207584007098"><ele>331.33333333333337</ele><time>2026-05-01T14:25:36.999Z</time></trkpt><trkpt lat="44.20196348029168" lon="9.620299480275104"><ele>327.1666666666667</ele><time>2026-05-01T14:25:37.999Z</time></trkpt><trkpt lat="44.20202051097194" lon="9.620364907340823"><ele>323.0</ele><time>2026-05-01T14:25:38.999Z</time></trkpt><trkpt lat="44.20209879453536" lon="9.620391200251566"><ele>324.5</ele><time>2026-05-01T14:25:39.999Z</time></trkpt><trkpt lat="44.202165550003905" lon="9.620419161906977"><ele>326.0</ele><time>2026-05-01T14:25:40.999Z</time></trkpt><trkpt lat="44.20223399026887" lon="9.620438585326529"><ele>327.5</ele><time>2026-05-01T14:25:41.999Z</time></trkpt><trkpt lat="44.202292819783324" lon="9.620489249369207"><ele>329.0</ele><time>2026-05-01T14:25:42.999Z</time></trkpt><trkpt lat="44.20235454851545" lon="9.620529129966194"><ele>330.5</ele><time>2026-05-01T14:25:43.999Z</time></trkpt><trkpt lat="44.20245341103077" lon="9.620628436649826"><ele>332.0</ele><time>2026-05-01T14:25:45.999Z</time></trkpt><trkpt lat="44.20248823067198" lon="9.620785297168903"><ele>332.0</ele><time>2026-05-01T14:25:47.999Z</time></trkpt><trkpt lat="44.202526943570966" lon="9.620885639279788"><ele>332.0</ele><time>2026-05-01T14:25:48.999Z</time></trkpt><trkpt lat="44.202583209672724" lon="9.620966067891029"><ele>332.0</ele><time>2026-05-01T14:25:49.999Z</time></trkpt><trkpt lat="44.20263037036174" lon="9.621033279435869"><ele>332.0</ele><time>2026-05-01T14:25:50.999Z</time></trkpt><trkpt lat="44.20267833413205" lon="9.621100885913922"><ele>332.0</ele><time>2026-05-01T14:25:51.999Z</time></trkpt><trkpt lat="44.20272795104565" lon="9.621170600064982"><ele>332.0</ele><time>2026-05-01T14:25:52.999Z</time></trkpt><trkpt lat="44.20282396429922" lon="9.62130111102877"><ele>333.83333333333337</ele><time>2026-05-01T14:25:54.999Z</time></trkpt><trkpt lat="44.2028881324581" lon="9.621364047366274"><ele>335.6666666666667</ele><time>2026-05-01T14:25:55.999Z</time></trkpt><trkpt lat="44.20295748970035" lon="9.621410027915298"><ele>337.5</ele><time>2026-05-01T14:25:56.999Z</time></trkpt><trkpt lat="44.203023643838364" lon="9.62145610917696"><ele>339.3333333333333</ele><time>2026-05-01T14:25:57.999Z</time></trkpt><trkpt lat="44.20308167645049" lon="9.621513829898591"><ele>341.16666666666663</ele><time>2026-05-01T14:25:58.999Z</time></trkpt><trkpt lat="44.20318024703921" lon="9.621638587244545"><ele>343.0</ele><time>2026-05-01T14:26:00.999Z</time></trkpt><trkpt lat="44.20322355516012" lon="9.62170618177358"><ele>343.0</ele><time>2026-05-01T14:26:01.999Z</time></trkpt><trkpt lat="44.20326563262116" lon="9.621777439288632"><ele>343.0</ele><time>2026-05-01T14:26:02.999Z</time></trkpt><trkpt lat="44.20325574725143" lon="9.621905494954758"><ele>343.0</ele><time>2026-05-01T14:26:03.999Z</time></trkpt><trkpt lat="44.20320681704343" lon="9.621989844900309"><ele>343.0</ele><time>2026-05-01T14:26:04.999Z</time></trkpt><trkpt lat="44.203134235692296" lon="9.622033316809464"><ele>343.0</ele><time>2026-05-01T14:26:05.999Z</time></trkpt><trkpt lat="44.203022879874815" lon="9.622085442636427"><ele>343.0</ele><time>2026-05-01T14:26:07.999Z</time></trkpt><trkpt lat="44.20294073373656" lon="9.622052071221773"><ele>339.16666666666663</ele><time>2026-05-01T14:26:08.999Z</time></trkpt><trkpt lat="44.20287704865724" lon="9.62204172332893"><ele>335.3333333333333</ele><time>2026-05-01T14:26:09.999Z</time></trkpt><trkpt lat="44.20279689336751" lon="9.622064218821535"><ele>331.5</ele><time>2026-05-01T14:26:10.999Z</time></trkpt><trkpt lat="44.20270467088269" lon="9.622073008057024"><ele>327.6666666666667</ele><time>2026-05-01T14:26:11.999Z</time></trkpt><trkpt lat="44.20262900589512" lon="9.622111760545426"><ele>323.83333333333337</ele><time>2026-05-01T14:26:12.999Z</time></trkpt><trkpt lat="44.202538379840796" lon="9.622148770325218"><ele>320.0</ele><time>2026-05-01T14:26:13.999Z</time></trkpt><trkpt lat="44.20244440259724" lon="9.622183065177946"><ele>320.0</ele><time>2026-05-01T14:26:14.999Z</time></trkpt><trkpt lat="44.20233630193095" lon="9.622211811315863"><ele>320.0</ele><time>2026-05-01T14:26:15.999Z</time></trkpt><trkpt lat="44.20225239754817" lon="9.622289340544429"><ele>320.0</ele><time>2026-05-01T14:26:16.999Z</time></trkpt><trkpt lat="44.20218767100946" lon="9.622350560474631"><ele>320.0</ele><time>2026-05-01T14:26:17.999Z</time></trkpt><trkpt lat="44.202128254919636" lon="9.622497932853701"><ele>320.0</ele><time>2026-05-01T14:26:19.999Z</time></trkpt><trkpt lat="44.202159756158466" lon="9.622620175317108"><ele>322.8</ele><time>2026-05-01T14:26:20.999Z</time></trkpt><trkpt lat="44.20220934212462" lon="9.622686347533934"><ele>325.6</ele><time>2026-05-01T14:26:21.999Z</time></trkpt><trkpt lat="44.20227364909742" lon="9.622806767987692"><ele>328.4</ele><time>2026-05-01T14:26:23.999Z</time></trkpt><trkpt lat="44.202334220755716" lon="9.622918704635623"><ele>331.2</ele><time>2026-05-01T14:26:26Z</time></trkpt><trkpt lat="44.202343212825525" lon="9.623080402951421"><ele>334.0</ele><time>2026-05-01T14:26:28Z</time></trkpt><trkpt lat="44.20227751701461" lon="9.623180176281855"><ele>327.4</ele><time>2026-05-01T14:26:30Z</time></trkpt><trkpt lat="44.20218902461791" lon="9.623210804010505"><ele>320.79999999999995</ele><time>2026-05-01T14:26:31Z</time></trkpt><trkpt lat="44.202078219337004" lon="9.62314285909737"><ele>314.20000000000005</ele><time>2026-05-01T14:26:33Z</time></trkpt><trkpt lat="44.20200581608562" lon="9.623108841248003"><ele>307.6</ele><time>2026-05-01T14:26:34Z</time></trkpt><trkpt lat="44.20192054749814" lon="9.623104083097084"><ele>301.0</ele><time>2026-05-01T14:26:35Z</time></trkpt><trkpt lat="44.2018574936861" lon="9.623167965841665"><ele>301.0</ele><time>2026-05-01T14:26:36Z</time></trkpt><trkpt lat="44.20183139170793" lon="9.623289584863635"><ele>301.0</ele><time>2026-05-01T14:26:37Z</time></trkpt><trkpt lat="44.20183386917174" lon="9.623413055205953"><ele>301.0</ele><time>2026-05-01T14:26:38Z</time></trkpt><trkpt lat="44.20183440446936" lon="9.623539351410185"><ele>301.0</ele><time>2026-05-01T14:26:39Z</time></trkpt><trkpt lat="44.20182169374978" lon="9.623641726352185"><ele>301.0</ele><time>2026-05-01T14:26:40Z</time></trkpt><trkpt lat="44.20172890921071" lon="9.623733319814233"><ele>301.0</ele><time>2026-05-01T14:26:42Z</time></trkpt><trkpt lat="44.20165554748648" lon="9.623717787924855"><ele>301.0</ele><time>2026-05-01T14:26:43Z</time></trkpt><trkpt lat="44.20160321454972" lon="9.623646179001982"><ele>301.0</ele><time>2026-05-01T14:26:44Z</time></trkpt><trkpt lat="44.201527510129004" lon="9.623512379035594"><ele>301.0</ele><time>2026-05-01T14:26:46Z</time></trkpt><trkpt lat="44.201440005909376" lon="9.623447166834966"><ele>301.0</ele><time>2026-05-01T14:26:47Z</time></trkpt><trkpt lat="44.201348436023984" lon="9.623393069423305"><ele>297.0</ele><time>2026-05-01T14:26:48Z</time></trkpt><trkpt lat="44.20128200792003" lon="9.623367677941957"><ele>293.0</ele><time>2026-05-01T14:26:49Z</time></trkpt><trkpt lat="44.20119885958211" lon="9.623397349357594"><ele>289.0</ele><time>2026-05-01T14:26:50Z</time></trkpt><trkpt lat="44.20111885484996" lon="9.623447010736447"><ele>285.0</ele><time>2026-05-01T14:26:51Z</time></trkpt><trkpt lat="44.20103353972884" lon="9.623488656027579"><ele>281.0</ele><time>2026-05-01T14:26:52Z</time></trkpt><trkpt lat="44.200950281224195" lon="9.623516996021836"><ele>277.0</ele><time>2026-05-01T14:26:53Z</time></trkpt><trkpt lat="44.200876863745826" lon="9.623540587462887"><ele>277.0</ele><time>2026-05-01T14:26:54Z</time></trkpt><trkpt lat="44.20079725186638" lon="9.623545297425565"><ele>277.0</ele><time>2026-05-01T14:26:55Z</time></trkpt><trkpt lat="44.200734473349186" lon="9.62357596661665"><ele>277.0</ele><time>2026-05-01T14:26:56Z</time></trkpt><trkpt lat="44.200668371230414" lon="9.62360607762565"><ele>277.0</ele><time>2026-05-01T14:26:57Z</time></trkpt><trkpt lat="44.20057262821186" lon="9.623628183019353"><ele>277.0</ele><time>2026-05-01T14:26:59Z</time></trkpt><trkpt lat="44.20054183066074" lon="9.623725167450594"><ele>277.0</ele><time>2026-05-01T14:27:00Z</time></trkpt><trkpt lat="44.2004690514568" lon="9.623860044376702"><ele>274.16666666666663</ele><time>2026-05-01T14:27:02Z</time></trkpt><trkpt lat="44.200442259671725" lon="9.623942395756615"><ele>271.3333333333333</ele><time>2026-05-01T14:27:04Z</time></trkpt><trkpt lat="44.20040008738876" lon="9.624010983436309"><ele>268.5</ele><time>2026-05-01T14:27:06Z</time></trkpt><trkpt lat="44.20037295286347" lon="9.624119442375415"><ele>265.6666666666667</ele><time>2026-05-01T14:27:08Z</time></trkpt><trkpt lat="44.200377213255805" lon="9.624222538489754"><ele>262.83333333333337</ele><time>2026-05-01T14:27:09Z</time></trkpt><trkpt lat="44.200415815778534" lon="9.624303492357987"><ele>260.0</ele><time>2026-05-01T14:27:10Z</time></trkpt><trkpt lat="44.200502474372534" lon="9.624436262478778"><ele>261.83333333333337</ele><time>2026-05-01T14:27:12Z</time></trkpt><trkpt lat="44.2005755798331" lon="9.624517048681403"><ele>263.6666666666667</ele><time>2026-05-01T14:27:13Z</time></trkpt><trkpt lat="44.200619861202064" lon="9.62461491591155"><ele>265.5</ele><time>2026-05-01T14:27:14Z</time></trkpt><trkpt lat="44.20065512724599" lon="9.62471182130249"><ele>267.3333333333333</ele><time>2026-05-01T14:27:15Z</time></trkpt><trkpt lat="44.200715183649585" lon="9.624795423593818"><ele>269.16666666666663</ele><time>2026-05-01T14:27:16Z</time></trkpt><trkpt lat="44.20076801248317" lon="9.624871158924114"><ele>271.0</ele><time>2026-05-01T14:27:17Z</time></trkpt><trkpt lat="44.20080081877467" lon="9.624956862519166"><ele>271.0</ele><time>2026-05-01T14:27:18Z</time></trkpt><trkpt lat="44.200792849932306" lon="9.625050850860232"><ele>271.0</ele><time>2026-05-01T14:27:19Z</time></trkpt><trkpt lat="44.20062306063044" lon="9.625036148600737"><ele>271.0</ele><time>2026-05-01T14:27:21Z</time></trkpt><trkpt lat="44.20056120970543" lon="9.625056609882176"><ele>271.0</ele><time>2026-05-01T14:27:22Z</time></trkpt><trkpt lat="44.20049765390926" lon="9.625102213703148"><ele>271.0</ele><time>2026-05-01T14:27:23Z</time></trkpt><trkpt lat="44.20041656760423" lon="9.625127444569271"><ele>271.0</ele><time>2026-05-01T14:27:23.999Z</time></trkpt><trkpt lat="44.200333175554846" lon="9.625156958765343"><ele>271.0</ele><time>2026-05-01T14:27:24.999Z</time></trkpt><trkpt lat="44.200241135275064" lon="9.625181272581825"><ele>271.0</ele><time>2026-05-01T14:27:25.999Z</time></trkpt><trkpt lat="44.200169974474456" lon="9.62522296795616"><ele>271.0</ele><time>2026-05-01T14:27:26.999Z</time></trkpt><trkpt lat="44.20009749354121" lon="9.625281973878925"><ele>271.0</ele><time>2026-05-01T14:27:27.999Z</time></trkpt><trkpt lat="44.20003847045707" lon="9.625371642293715"><ele>271.0</ele><time>2026-05-01T14:27:28.999Z</time></trkpt><trkpt lat="44.200013192556966" lon="9.625480332144212"><ele>273.40000000000003</ele><time>2026-05-01T14:27:29.999Z</time></trkpt><trkpt lat="44.19998991695328" lon="9.625627077717603"><ele>275.8</ele><time>2026-05-01T14:27:30.999Z</time></trkpt><trkpt lat="44.19995911276751" lon="9.625746123419503"><ele>278.20000000000005</ele><time>2026-05-01T14:27:31.999Z</time></trkpt><trkpt lat="44.19993069466722" lon="9.62584535510301"><ele>280.6</ele><time>2026-05-01T14:27:32.999Z</time></trkpt><trkpt lat="44.199863435259054" lon="9.6259217136316"><ele>283.0</ele><time>2026-05-01T14:27:33.999Z</time></trkpt><trkpt lat="44.199788844022095" lon="9.625837892136348"><ele>283.0</ele><time>2026-05-01T14:27:34.999Z</time></trkpt><trkpt lat="44.199779072611456" lon="9.625704279380237"><ele>283.0</ele><time>2026-05-01T14:27:35.999Z</time></trkpt><trkpt lat="44.19973270778433" lon="9.625618363506536"><ele>283.0</ele><time>2026-05-01T14:27:36.999Z</time></trkpt><trkpt lat="44.199686327591564" lon="9.625553990659244"><ele>283.0</ele><time>2026-05-01T14:27:37.999Z</time></trkpt><trkpt lat="44.19963853707642" lon="9.625487660497344"><ele>283.0</ele><time>2026-05-01T14:27:38.999Z</time></trkpt><trkpt lat="44.199588233464794" lon="9.625417842336457"><ele>283.0</ele><time>2026-05-01T14:27:39.999Z</time></trkpt><trkpt lat="44.19953777965763" lon="9.625347815703655"><ele>283.0</ele><time>2026-05-01T14:27:40.999Z</time></trkpt><trkpt lat="44.199480168216546" lon="9.625270744561078"><ele>279.0</ele><time>2026-05-01T14:27:41.999Z</time></trkpt><trkpt lat="44.19941636065996" lon="9.625190794119831"><ele>275.0</ele><time>2026-05-01T14:27:42.999Z</time></trkpt><trkpt lat="44.19934478153896" lon="9.6251154220776"><ele>271.0</ele><time>2026-05-01T14:27:43.999Z</time></trkpt><trkpt lat="44.19927170788519" lon="9.625052181279077"><ele>267.0</ele><time>2026-05-01T14:27:44.999Z</time></trkpt><trkpt lat="44.19918777901358" lon="9.625007811776843"><ele>263.0</ele><time>2026-05-01T14:27:45.999Z</time></trkpt><trkpt lat="44.199092215277865" lon="9.624957974195821"><ele>259.6</ele><time>2026-05-01T14:27:46.999Z</time></trkpt><trkpt lat="44.19900057558675" lon="9.62500853631083"><ele>256.20000000000005</ele><time>2026-05-01T14:27:47.999Z</time></trkpt><trkpt lat="44.19892718128649" lon="9.625096012966717"><ele>252.8</ele><time>2026-05-01T14:27:48.999Z</time></trkpt><trkpt lat="44.19886101401564" lon="9.625222936861213"><ele>249.4</ele><time>2026-05-01T14:27:49.999Z</time></trkpt><trkpt lat="44.198790593459044" lon="9.625304939959667"><ele>246.0</ele><time>2026-05-01T14:27:50.999Z</time></trkpt><trkpt lat="44.198717985771545" lon="9.62538742145096"><ele>246.0</ele><time>2026-05-01T14:27:51.999Z</time></trkpt><trkpt lat="44.19865303472161" lon="9.625481221187773"><ele>246.00000000000003</ele><time>2026-05-01T14:27:52.999Z</time></trkpt><trkpt lat="44.198611664764194" lon="9.625587744762635"><ele>246.00000000000003</ele><time>2026-05-01T14:27:53.999Z</time></trkpt><trkpt lat="44.19859262457913" lon="9.625712867207811"><ele>246.0</ele><time>2026-05-01T14:27:54.999Z</time></trkpt><trkpt lat="44.19859692756277" lon="9.625832375706832"><ele>246.0</ele><time>2026-05-01T14:27:55.999Z</time></trkpt><trkpt lat="44.19860387863324" lon="9.625991144826843"><ele>246.0</ele><time>2026-05-01T14:27:56.999Z</time></trkpt><trkpt lat="44.19861823728441" lon="9.626126718301068"><ele>246.00000000000003</ele><time>2026-05-01T14:27:57.999Z</time></trkpt><trkpt lat="44.19863096758392" lon="9.626234540586722"><ele>246.00000000000003</ele><time>2026-05-01T14:27:58.999Z</time></trkpt><trkpt lat="44.198621235831666" lon="9.626328172377454"><ele>246.0</ele><time>2026-05-01T14:27:59.999Z</time></trkpt><trkpt lat="44.19852413534534" lon="9.626452993168035"><ele>246.0</ele><time>2026-05-01T14:28:01.999Z</time></trkpt><trkpt lat="44.198441392234315" lon="9.626401360902301"><ele>244.5</ele><time>2026-05-01T14:28:02.999Z</time></trkpt><trkpt lat="44.198358547910715" lon="9.62641385104415"><ele>243.0</ele><time>2026-05-01T14:28:03.999Z</time></trkpt><trkpt lat="44.198284907020245" lon="9.626441378708563"><ele>241.5</ele><time>2026-05-01T14:28:04.999Z</time></trkpt><trkpt lat="44.198210735136726" lon="9.626462599554246"><ele>240.0</ele><time>2026-05-01T14:28:05.999Z</time></trkpt><trkpt lat="44.19813719962484" lon="9.6265223634135"><ele>238.5</ele><time>2026-05-01T14:28:06.999Z</time></trkpt><trkpt lat="44.19808740804472" lon="9.626617584846851"><ele>237.0</ele><time>2026-05-01T14:28:07.999Z</time></trkpt><trkpt lat="44.19805006323871" lon="9.626708726551824"><ele>237.0</ele><time>2026-05-01T14:28:08.999Z</time></trkpt><trkpt lat="44.19800630560767" lon="9.626779533856878"><ele>237.0</ele><time>2026-05-01T14:28:09.999Z</time></trkpt><trkpt lat="44.197973554615515" lon="9.62685972038013"><ele>237.0</ele><time>2026-05-01T14:28:10.999Z</time></trkpt><trkpt lat="44.19786374569306" lon="9.626874385219581"><ele>237.0</ele><time>2026-05-01T14:28:12.999Z</time></trkpt><trkpt lat="44.19778306993508" lon="9.626864655700437"><ele>237.0</ele><time>2026-05-01T14:28:15.999Z</time></trkpt><trkpt lat="44.19770886515725" lon="9.626936659496701"><ele>237.0</ele><time>2026-05-01T14:28:18.999Z</time></trkpt><trkpt lat="44.19766942789236" lon="9.627040616538862"><ele>237.8</ele><time>2026-05-01T14:28:20.999Z</time></trkpt><trkpt lat="44.19764583541393" lon="9.627211724365043"><ele>238.6</ele><time>2026-05-01T14:28:21.999Z</time></trkpt><trkpt lat="44.1976046573316" lon="9.627302588896828"><ele>239.40000000000003</ele><time>2026-05-01T14:28:22.999Z</time></trkpt><trkpt lat="44.19758951318879" lon="9.627430819702973"><ele>240.20000000000002</ele><time>2026-05-01T14:28:23.999Z</time></trkpt><trkpt lat="44.19759204416993" lon="9.627528013990545"><ele>241.0</ele><time>2026-05-01T14:28:24.999Z</time></trkpt><trkpt lat="44.197598826271445" lon="9.627660537797416"><ele>240.99999999999997</ele><time>2026-05-01T14:28:25.999Z</time></trkpt><trkpt lat="44.19760246387378" lon="9.627764686338818"><ele>241.0</ele><time>2026-05-01T14:28:26.999Z</time></trkpt><trkpt lat="44.19760706568936" lon="9.627875438169593"><ele>241.0</ele><time>2026-05-01T14:28:27.999Z</time></trkpt><trkpt lat="44.197608432424495" lon="9.627985130604033"><ele>241.0</ele><time>2026-05-01T14:28:28.999Z</time></trkpt><trkpt lat="44.197616251914305" lon="9.628107582805455"><ele>240.99999999999997</ele><time>2026-05-01T14:28:29.999Z</time></trkpt><trkpt lat="44.19761857841113" lon="9.628243703351814"><ele>241.0</ele><time>2026-05-01T14:28:31Z</time></trkpt><trkpt lat="44.19760823854912" lon="9.628377616527988"><ele>242.4</ele><time>2026-05-01T14:28:32Z</time></trkpt><trkpt lat="44.19759481015823" lon="9.628495110872738"><ele>243.8</ele><time>2026-05-01T14:28:33Z</time></trkpt><trkpt lat="44.19754238485179" lon="9.62859947419004"><ele>245.20000000000002</ele><time>2026-05-01T14:28:34Z</time></trkpt><trkpt lat="44.197442488311445" lon="9.628669541440823"><ele>246.60000000000002</ele><time>2026-05-01T14:28:35Z</time></trkpt><trkpt lat="44.19734466998671" lon="9.628695566396697"><ele>248.0</ele><time>2026-05-01T14:28:36Z</time></trkpt><trkpt lat="44.19723860187088" lon="9.628643243326806"><ele>242.75</ele><time>2026-05-01T14:28:37Z</time></trkpt><trkpt lat="44.19713260713625" lon="9.62858508905702"><ele>237.5</ele><time>2026-05-01T14:28:38Z</time></trkpt><trkpt lat="44.19702310613855" lon="9.628508122513315"><ele>232.25</ele><time>2026-05-01T14:28:39Z</time></trkpt><trkpt lat="44.196915077993644" lon="9.628448439736049"><ele>227.0</ele><time>2026-05-01T14:28:40Z</time></trkpt><trkpt lat="44.19679674352202" lon="9.628407055221269"><ele>227.0</ele><time>2026-05-01T14:28:41Z</time></trkpt><trkpt lat="44.19668006140409" lon="9.628402970844926"><ele>227.0</ele><time>2026-05-01T14:28:42Z</time></trkpt><trkpt lat="44.19655333233708" lon="9.628394288131396"><ele>227.0</ele><time>2026-05-01T14:28:43Z</time></trkpt><trkpt lat="44.19643983771512" lon="9.628383506149223"><ele>227.0</ele><time>2026-05-01T14:28:44Z</time></trkpt><trkpt lat="44.19631529458033" lon="9.62836265565002"><ele>229.0</ele><time>2026-05-01T14:28:45Z</time></trkpt><trkpt lat="44.196200597006914" lon="9.628347987409304"><ele>231.0</ele><time>2026-05-01T14:28:46Z</time></trkpt><trkpt lat="44.1960764689885" lon="9.62834128335788"><ele>233.0</ele><time>2026-05-01T14:28:47Z</time></trkpt><trkpt lat="44.19596278928465" lon="9.628324390502852"><ele>235.0</ele><time>2026-05-01T14:28:48Z</time></trkpt><trkpt lat="44.195849042808206" lon="9.6282703563372"><ele>235.0</ele><time>2026-05-01T14:28:49Z</time></trkpt><trkpt lat="44.19574855546756" lon="9.628179198619929"><ele>235.0</ele><time>2026-05-01T14:28:50Z</time></trkpt><trkpt lat="44.19566018699172" lon="9.628087182375435"><ele>235.0</ele><time>2026-05-01T14:28:51Z</time></trkpt><trkpt lat="44.195560156746005" lon="9.6279691592073"><ele>235.0</ele><time>2026-05-01T14:28:52Z</time></trkpt><trkpt lat="44.19547390126403" lon="9.627859216229872"><ele>229.0</ele><time>2026-05-01T14:28:53Z</time></trkpt><trkpt lat="44.19538889466536" lon="9.627747566754053"><ele>223.0</ele><time>2026-05-01T14:28:54Z</time></trkpt><trkpt lat="44.19530806014412" lon="9.627623643956673"><ele>217.0</ele><time>2026-05-01T14:28:55Z</time></trkpt><trkpt lat="44.195227447374165" lon="9.627524839155809"><ele>211.0</ele><time>2026-05-01T14:28:56Z</time></trkpt><trkpt lat="44.19513962469105" lon="9.627443106478454"><ele>211.0</ele><time>2026-05-01T14:28:57Z</time></trkpt><trkpt lat="44.19506522519619" lon="9.627371200005141"><ele>211.0</ele><time>2026-05-01T14:28:58Z</time></trkpt><trkpt lat="44.19496434067445" lon="9.627331328358185"><ele>211.0</ele><time>2026-05-01T14:28:59Z</time></trkpt><trkpt lat="44.19486557452419" lon="9.627325040332575"><ele>211.0</ele><time>2026-05-01T14:29:00Z</time></trkpt><trkpt lat="44.194768502212774" lon="9.627376019896712"><ele>211.0</ele><time>2026-05-01T14:29:01Z</time></trkpt><trkpt lat="44.194676308658586" lon="9.627463107994839"><ele>207.4</ele><time>2026-05-01T14:29:02Z</time></trkpt><trkpt lat="44.19458512458644" lon="9.627539720711134"><ele>203.8</ele><time>2026-05-01T14:29:03Z</time></trkpt><trkpt lat="44.194491979831874" lon="9.627591125282617"><ele>200.20000000000002</ele><time>2026-05-01T14:29:04Z</time></trkpt><trkpt lat="44.19439097648736" lon="9.627639435153979"><ele>196.60000000000002</ele><time>2026-05-01T14:29:05Z</time></trkpt><trkpt lat="44.194296869399224" lon="9.627676369492374"><ele>193.0</ele><time>2026-05-01T14:29:06Z</time></trkpt><trkpt lat="44.19419372302695" lon="9.627720806987934"><ele>193.0</ele><time>2026-05-01T14:29:07Z</time></trkpt><trkpt lat="44.19412039850444" lon="9.627788860928986"><ele>193.0</ele><time>2026-05-01T14:29:08Z</time></trkpt><trkpt lat="44.19405223903249" lon="9.627900747584972"><ele>193.0</ele><time>2026-05-01T14:29:09Z</time></trkpt><trkpt lat="44.1939904268508" lon="9.628015156826969"><ele>193.0</ele><time>2026-05-01T14:29:10Z</time></trkpt><trkpt lat="44.19392683022371" lon="9.628136584484942"><ele>193.0</ele><time>2026-05-01T14:29:11Z</time></trkpt><trkpt lat="44.1938813133848" lon="9.62826056382283"><ele>193.2</ele><time>2026-05-01T14:29:12Z</time></trkpt><trkpt lat="44.1938182875451" lon="9.628383573386143"><ele>193.4</ele><time>2026-05-01T14:29:13Z</time></trkpt><trkpt lat="44.193744670992366" lon="9.628489068952055"><ele>193.6</ele><time>2026-05-01T14:29:14Z</time></trkpt><trkpt lat="44.19365964608954" lon="9.628557841911146"><ele>193.79999999999998</ele><time>2026-05-01T14:29:15Z</time></trkpt><trkpt lat="44.19355562719598" lon="9.628584456497356"><ele>194.0</ele><time>2026-05-01T14:29:16Z</time></trkpt><trkpt lat="44.19345733474321" lon="9.62854295439779"><ele>194.0</ele><time>2026-05-01T14:29:17Z</time></trkpt><trkpt lat="44.19337603234335" lon="9.628438306421495"><ele>194.0</ele><time>2026-05-01T14:29:18Z</time></trkpt><trkpt lat="44.19327392180825" lon="9.628368578531981"><ele>194.0</ele><time>2026-05-01T14:29:19Z</time></trkpt><trkpt lat="44.19317598606792" lon="9.628318493751882"><ele>194.0</ele><time>2026-05-01T14:29:20Z</time></trkpt><trkpt lat="44.193073199844186" lon="9.628300838461104"><ele>194.0</ele><time>2026-05-01T14:29:21Z</time></trkpt><trkpt lat="44.19299643841225" lon="9.628344529536928"><ele>192.2</ele><time>2026-05-01T14:29:21.999Z</time></trkpt><trkpt lat="44.192906514257324" lon="9.628372720497463"><ele>190.39999999999998</ele><time>2026-05-01T14:29:22.999Z</time></trkpt><trkpt lat="44.19282362563564" lon="9.62842738684846"><ele>188.6</ele><time>2026-05-01T14:29:23.999Z</time></trkpt><trkpt lat="44.19271921520077" lon="9.628503945031056"><ele>186.8</ele><time>2026-05-01T14:29:24.999Z</time></trkpt><trkpt lat="44.19262497097888" lon="9.6285481822647"><ele>185.0</ele><time>2026-05-01T14:29:25.999Z</time></trkpt><trkpt lat="44.19253300354816" lon="9.62859176766686"><ele>185.0</ele><time>2026-05-01T14:29:26.999Z</time></trkpt><trkpt lat="44.192430450746244" lon="9.628632909455908"><ele>185.0</ele><time>2026-05-01T14:29:27.999Z</time></trkpt><trkpt lat="44.19233150561468" lon="9.628665954523465"><ele>185.0</ele><time>2026-05-01T14:29:28.999Z</time></trkpt><trkpt lat="44.19221969624883" lon="9.628670434962574"><ele>185.0</ele><time>2026-05-01T14:29:29.999Z</time></trkpt><trkpt lat="44.192128823941026" lon="9.628667953535636"><ele>185.0</ele><time>2026-05-01T14:29:30.999Z</time></trkpt><trkpt lat="44.192022770650105" lon="9.628682068171415"><ele>184.6</ele><time>2026-05-01T14:29:31.999Z</time></trkpt><trkpt lat="44.191925507404385" lon="9.628638259709978"><ele>184.2</ele><time>2026-05-01T14:29:32.999Z</time></trkpt><trkpt lat="44.191845826708814" lon="9.628546591074604"><ele>183.8</ele><time>2026-05-01T14:29:33.999Z</time></trkpt><trkpt lat="44.19177670114831" lon="9.628448858721843"><ele>183.4</ele><time>2026-05-01T14:29:34.999Z</time></trkpt><trkpt lat="44.19172003135695" lon="9.62832761399613"><ele>183.0</ele><time>2026-05-01T14:29:35.999Z</time></trkpt><trkpt lat="44.191646306591764" lon="9.628249583715279"><ele>183.0</ele><time>2026-05-01T14:29:36.999Z</time></trkpt><trkpt lat="44.19156100229592" lon="9.628171453343109"><ele>183.0</ele><time>2026-05-01T14:29:37.999Z</time></trkpt><trkpt lat="44.191469654924774" lon="9.628147880462647"><ele>183.0</ele><time>2026-05-01T14:29:38.999Z</time></trkpt><trkpt lat="44.191388768309594" lon="9.62815301073682"><ele>183.0</ele><time>2026-05-01T14:29:39.999Z</time></trkpt><trkpt lat="44.19133678582578" lon="9.628231630619547"><ele>183.0</ele><time>2026-05-01T14:29:40.999Z</time></trkpt><trkpt lat="44.191274413553494" lon="9.628339843917148"><ele>183.2</ele><time>2026-05-01T14:29:41.999Z</time></trkpt><trkpt lat="44.191218619460116" lon="9.628441070184747"><ele>183.4</ele><time>2026-05-01T14:29:42.999Z</time></trkpt><trkpt lat="44.19114285815985" lon="9.62851776440078"><ele>183.6</ele><time>2026-05-01T14:29:43.999Z</time></trkpt><trkpt lat="44.19102958853809" lon="9.628573321055702"><ele>183.79999999999998</ele><time>2026-05-01T14:29:44.999Z</time></trkpt><trkpt lat="44.19094378466357" lon="9.628497003889802"><ele>184.0</ele><time>2026-05-01T14:29:45.999Z</time></trkpt><trkpt lat="44.190859150421076" lon="9.628411940014024"><ele>184.0</ele><time>2026-05-01T14:29:46.999Z</time></trkpt><trkpt lat="44.19078704619129" lon="9.628296281298805"><ele>184.0</ele><time>2026-05-01T14:29:47.999Z</time></trkpt><trkpt lat="44.19069908435321" lon="9.628170136660104"><ele>184.0</ele><time>2026-05-01T14:29:48.999Z</time></trkpt><trkpt lat="44.19063250960374" lon="9.628036069398311"><ele>184.0</ele><time>2026-05-01T14:29:49.999Z</time></trkpt><trkpt lat="44.190559553263604" lon="9.627924619375404"><ele>183.2</ele><time>2026-05-01T14:29:50.999Z</time></trkpt><trkpt lat="44.19047883373713" lon="9.627838102110028"><ele>182.39999999999998</ele><time>2026-05-01T14:29:51.999Z</time></trkpt><trkpt lat="44.19037171483304" lon="9.627816947863977"><ele>181.6</ele><time>2026-05-01T14:29:52.999Z</time></trkpt><trkpt lat="44.19027322706415" lon="9.62785257108662"><ele>180.8</ele><time>2026-05-01T14:29:53.999Z</time></trkpt><trkpt lat="44.19017720249505" lon="9.627921107083928"><ele>180.0</ele><time>2026-05-01T14:29:54.999Z</time></trkpt><trkpt lat="44.190070286559674" lon="9.627964484681517"><ele>180.0</ele><time>2026-05-01T14:29:55.999Z</time></trkpt><trkpt lat="44.18998083327273" lon="9.627980088954304"><ele>180.0</ele><time>2026-05-01T14:29:56.999Z</time></trkpt><trkpt lat="44.189878971203946" lon="9.627930459719062"><ele>180.0</ele><time>2026-05-01T14:29:57.999Z</time></trkpt><trkpt lat="44.18979733235113" lon="9.627789324172642"><ele>180.0</ele><time>2026-05-01T14:29:58.999Z</time></trkpt><trkpt lat="44.189695745554786" lon="9.627705509023134"><ele>180.0</ele><time>2026-05-01T14:29:59.999Z</time></trkpt><trkpt lat="44.18955795231966" lon="9.627650126075377"><ele>178.5</ele><time>2026-05-01T14:30:00.999Z</time></trkpt><trkpt lat="44.189414166987284" lon="9.627606330401003"><ele>177.0</ele><time>2026-05-01T14:30:01.999Z</time></trkpt><trkpt lat="44.18929995168897" lon="9.627504634178049"><ele>175.5</ele><time>2026-05-01T14:30:02.999Z</time></trkpt><trkpt lat="44.189186305688835" lon="9.627348285494492"><ele>174.0</ele><time>2026-05-01T14:30:03.999Z</time></trkpt><trkpt lat="44.18903878412571" lon="9.627189447231828"><ele>176.33333333333334</ele><time>2026-05-01T14:30:04.999Z</time></trkpt><trkpt lat="44.188895488364594" lon="9.627087713504903"><ele>178.66666666666669</ele><time>2026-05-01T14:30:05.999Z</time></trkpt><trkpt lat="44.18874129668189" lon="9.626978968279936"><ele>181.0</ele><time>2026-05-01T14:30:06.999Z</time></trkpt><trkpt lat="44.188598825339895" lon="9.626860225975383"><ele>175.66666666666669</ele><time>2026-05-01T14:30:07.999Z</time></trkpt><trkpt lat="44.188499831409686" lon="9.62670160560446"><ele>170.33333333333334</ele><time>2026-05-01T14:30:08.999Z</time></trkpt><trkpt lat="44.188402260476956" lon="9.626523986476947"><ele>165.0</ele><time>2026-05-01T14:30:09.999Z</time></trkpt><trkpt lat="44.18827814353563" lon="9.626408901003341"><ele>164.25</ele><time>2026-05-01T14:30:10.999Z</time></trkpt><trkpt lat="44.18814529242924" lon="9.62633376749957"><ele>163.5</ele><time>2026-05-01T14:30:11.999Z</time></trkpt><trkpt lat="44.18801477815708" lon="9.626221376350966"><ele>162.75</ele><time>2026-05-01T14:30:12.999Z</time></trkpt><trkpt lat="44.18790104404518" lon="9.626177298863896"><ele>162.0</ele><time>2026-05-01T14:30:13.999Z</time></trkpt><trkpt lat="44.187797277043764" lon="9.62613300417017"><ele>159.83333333333334</ele><time>2026-05-01T14:30:14.999Z</time></trkpt><trkpt lat="44.18770675163766" lon="9.626120250031974"><ele>157.66666666666666</ele><time>2026-05-01T14:30:15.999Z</time></trkpt><trkpt lat="44.187628915219754" lon="9.626098443386734"><ele>155.5</ele><time>2026-05-01T14:30:16.999Z</time></trkpt><trkpt lat="44.187574222766806" lon="9.626052316792975"><ele>153.33333333333331</ele><time>2026-05-01T14:30:17.999Z</time></trkpt><trkpt lat="44.18750885978472" lon="9.62599126776943"><ele>151.16666666666666</ele><time>2026-05-01T14:30:18.999Z</time></trkpt><trkpt lat="44.187417326183194" lon="9.626025688984535"><ele>149.0</ele><time>2026-05-01T14:30:19.999Z</time></trkpt><trkpt lat="44.18732742990795" lon="9.625984377607109"><ele>149.0</ele><time>2026-05-01T14:30:21.999Z</time></trkpt><trkpt lat="44.187264978359835" lon="9.625946127296645"><ele>149.0</ele><time>2026-05-01T14:30:22.999Z</time></trkpt><trkpt lat="44.187160553808475" lon="9.625808746111474"><ele>149.0</ele><time>2026-05-01T14:30:24.999Z</time></trkpt><trkpt lat="44.18707809002388" lon="9.625841860662868"><ele>149.0</ele><time>2026-05-01T14:30:25.999Z</time></trkpt><trkpt lat="44.1870273226415" lon="9.625928478689131"><ele>149.0</ele><time>2026-05-01T14:30:26.999Z</time></trkpt><trkpt lat="44.18697664556476" lon="9.626018168202448"><ele>149.0</ele><time>2026-05-01T14:30:28.999Z</time></trkpt><trkpt lat="44.18695331231498" lon="9.626101942675021"><ele>149.0</ele><time>2026-05-01T14:30:29.999Z</time></trkpt><trkpt lat="44.18694511754192" lon="9.626196863785871"><ele>133.0</ele><time>2026-05-01T14:30:31.998Z</time></trkpt></trkseg><trkseg><trkpt lat="44.18681165171776" lon="9.625514808625846"><ele>149.0</ele><time>2026-05-01T15:06:05.998Z</time></trkpt><trkpt lat="44.18687545672996" lon="9.62556126063236"><ele>149.0</ele><time>2026-05-01T15:06:07.998Z</time></trkpt><trkpt lat="44.18692082708291" lon="9.625636642516241"><ele>149.0</ele><time>2026-05-01T15:06:10Z</time></trkpt><trkpt lat="44.18694068970628" lon="9.625863989817034"><ele>149.0</ele><time>2026-05-01T15:06:15Z</time></trkpt><trkpt lat="44.186972899260226" lon="9.62598516540973"><ele>149.0</ele><time>2026-05-01T15:06:17Z</time></trkpt><trkpt lat="44.186924387760286" lon="9.626052366296276"><ele>149.0</ele><time>2026-05-01T15:06:19Z</time></trkpt><trkpt lat="44.18692341355703" lon="9.626140494217399"><ele>149.0</ele><time>2026-05-01T15:06:22Z</time></trkpt><trkpt lat="44.18693216787781" lon="9.626236406977995"><ele>149.0</ele><time>2026-05-01T15:06:27Z</time></trkpt><trkpt lat="44.186966266652504" lon="9.62614127209513"><ele>149.0</ele><time>2026-05-01T15:06:39Z</time></trkpt><trkpt lat="44.18698952110292" lon="9.625997117868424"><ele>149.0</ele><time>2026-05-01T15:06:41Z</time></trkpt><trkpt lat="44.187002308794746" lon="9.625876946120913"><ele>149.0</ele><time>2026-05-01T15:06:42Z</time></trkpt><trkpt lat="44.18706730167459" lon="9.625815611007587"><ele>149.0</ele><time>2026-05-01T15:06:43Z</time></trkpt><trkpt lat="44.1871586662075" lon="9.625855333881953"><ele>149.0</ele><time>2026-05-01T15:06:44Z</time></trkpt><trkpt lat="44.187251915045415" lon="9.625894084777448"><ele>149.0</ele><time>2026-05-01T15:06:45Z</time></trkpt><trkpt lat="44.18731521631438" lon="9.625944449106663"><ele>149.0</ele><time>2026-05-01T15:06:46Z</time></trkpt><trkpt lat="44.18737075348267" lon="9.62601802742007"><ele>149.0</ele><time>2026-05-01T15:06:47Z</time></trkpt><trkpt lat="44.18744435209676" lon="9.626076547061663"><ele>149.0</ele><time>2026-05-01T15:06:48Z</time></trkpt><trkpt lat="44.1875086428035" lon="9.626118500627376"><ele>149.0</ele><time>2026-05-01T15:06:49Z</time></trkpt><trkpt lat="44.18757732268798" lon="9.62612084701598"><ele>149.0</ele><time>2026-05-01T15:06:51Z</time></trkpt><trkpt lat="44.18756069000083" lon="9.626035439802365"><ele>149.0</ele><time>2026-05-01T15:06:52Z</time></trkpt><trkpt lat="44.18754052083446" lon="9.625948522971736"><ele>149.0</ele><time>2026-05-01T15:06:53Z</time></trkpt><trkpt lat="44.18746941894424" lon="9.625862406935873"><ele>149.0</ele><time>2026-05-01T15:06:53.999Z</time></trkpt><trkpt lat="44.187402564131894" lon="9.62582533332597"><ele>149.0</ele><time>2026-05-01T15:06:54.999Z</time></trkpt><trkpt lat="44.18734445951307" lon="9.625777186780448"><ele>149.0</ele><time>2026-05-01T15:06:55.999Z</time></trkpt><trkpt lat="44.18728923191392" lon="9.62571276538145"><ele>149.0</ele><time>2026-05-01T15:06:56.999Z</time></trkpt><trkpt lat="44.18723836179542" lon="9.625630921831416"><ele>149.0</ele><time>2026-05-01T15:06:57.999Z</time></trkpt><trkpt lat="44.187187755667324" lon="9.625507823758257"><ele>149.0</ele><time>2026-05-01T15:06:58.999Z</time></trkpt><trkpt lat="44.18714181541208" lon="9.625369912396437"><ele>149.0</ele><time>2026-05-01T15:06:59.999Z</time></trkpt><trkpt lat="44.187086555419604" lon="9.625212932365798"><ele>149.0</ele><time>2026-05-01T15:07:00.999Z</time></trkpt><trkpt lat="44.186989530489335" lon="9.625087507180169"><ele>148.2</ele><time>2026-05-01T15:07:01.999Z</time></trkpt><trkpt lat="44.18691072856099" lon="9.624997627169119"><ele>147.4</ele><time>2026-05-01T15:07:02.999Z</time></trkpt><trkpt lat="44.18679689349483" lon="9.624959204374703"><ele>146.6</ele><time>2026-05-01T15:07:03.999Z</time></trkpt><trkpt lat="44.18669411942887" lon="9.624932892168179"><ele>145.8</ele><time>2026-05-01T15:07:04.999Z</time></trkpt><trkpt lat="44.18662730783171" lon="9.624910468421326"><ele>145.0</ele><time>2026-05-01T15:07:05.999Z</time></trkpt><trkpt lat="44.186545072428274" lon="9.624801209436944"><ele>146.5</ele><time>2026-05-01T15:07:06.999Z</time></trkpt><trkpt lat="44.18646272128378" lon="9.62469705313299"><ele>148.0</ele><time>2026-05-01T15:07:07.999Z</time></trkpt><trkpt lat="44.186424685656704" lon="9.624552344984616"><ele>149.5</ele><time>2026-05-01T15:07:08.999Z</time></trkpt><trkpt lat="44.18632702799955" lon="9.62440333806721"><ele>151.0</ele><time>2026-05-01T15:07:09.999Z</time></trkpt><trkpt lat="44.186229845587036" lon="9.62420812265307"><ele>151.0</ele><time>2026-05-01T15:07:10.999Z</time></trkpt><trkpt lat="44.186151037912836" lon="9.624100041579466"><ele>151.0</ele><time>2026-05-01T15:07:11.999Z</time></trkpt><trkpt lat="44.18612867506842" lon="9.62393968566779"><ele>151.0</ele><time>2026-05-01T15:07:12.999Z</time></trkpt><trkpt lat="44.1861336899911" lon="9.623809494958508"><ele>151.0</ele><time>2026-05-01T15:07:13.999Z</time></trkpt><trkpt lat="44.18616649526988" lon="9.623716318369718"><ele>151.0</ele><time>2026-05-01T15:07:14.999Z</time></trkpt><trkpt lat="44.18625696854269" lon="9.62368482697786"><ele>151.0</ele><time>2026-05-01T15:07:16.999Z</time></trkpt><trkpt lat="44.186363864682455" lon="9.62374695802662"><ele>151.0</ele><time>2026-05-01T15:07:18.999Z</time></trkpt><trkpt lat="44.1864168901174" lon="9.623986704607498"><ele>151.0</ele><time>2026-05-01T15:07:19.999Z</time></trkpt><trkpt lat="44.18644758722334" lon="9.624168439151827"><ele>151.0</ele><time>2026-05-01T15:07:20.999Z</time></trkpt><trkpt lat="44.18650886509463" lon="9.624360718722347"><ele>149.0</ele><time>2026-05-01T15:07:21.999Z</time></trkpt><trkpt lat="44.18663156261804" lon="9.624614147071817"><ele>147.0</ele><time>2026-05-01T15:07:22.999Z</time></trkpt><trkpt lat="44.18680523297405" lon="9.624723779722354"><ele>145.0</ele><time>2026-05-01T15:07:23.999Z</time></trkpt><trkpt lat="44.18696974419062" lon="9.624761061377484"><ele>145.0</ele><time>2026-05-01T15:07:24.999Z</time></trkpt><trkpt lat="44.18711456948471" lon="9.624703532315957"><ele>145.0</ele><time>2026-05-01T15:07:25.999Z</time></trkpt><trkpt lat="44.187230122886106" lon="9.624664133744261"><ele>145.0</ele><time>2026-05-01T15:07:26.999Z</time></trkpt><trkpt lat="44.1873565299124" lon="9.624635315896583"><ele>145.0</ele><time>2026-05-01T15:07:27.999Z</time></trkpt><trkpt lat="44.18745964818821" lon="9.624658196469031"><ele>141.8</ele><time>2026-05-01T15:07:28.999Z</time></trkpt><trkpt lat="44.187550399189945" lon="9.624706928800206"><ele>138.6</ele><time>2026-05-01T15:07:29.999Z</time></trkpt><trkpt lat="44.18761699891008" lon="9.624792584099744"><ele>135.4</ele><time>2026-05-01T15:07:30.999Z</time></trkpt><trkpt lat="44.18765419111033" lon="9.624912187893095"><ele>132.2</ele><time>2026-05-01T15:07:31.999Z</time></trkpt><trkpt lat="44.18769740106767" lon="9.625043483126705"><ele>129.0</ele><time>2026-05-01T15:07:32.999Z</time></trkpt><trkpt lat="44.18773568531757" lon="9.625162642646085"><ele>129.0</ele><time>2026-05-01T15:07:33.999Z</time></trkpt><trkpt lat="44.18778662473542" lon="9.625241184914925"><ele>129.0</ele><time>2026-05-01T15:07:34.999Z</time></trkpt><trkpt lat="44.187854803698926" lon="9.625330925502883"><ele>129.0</ele><time>2026-05-01T15:07:35.999Z</time></trkpt><trkpt lat="44.18793472271664" lon="9.625383601938948"><ele>129.0</ele><time>2026-05-01T15:07:36.999Z</time></trkpt><trkpt lat="44.18803541882296" lon="9.625376710338182"><ele>129.0</ele><time>2026-05-01T15:07:37.999Z</time></trkpt><trkpt lat="44.188132550124884" lon="9.625371928245393"><ele>130.8</ele><time>2026-05-01T15:07:38.999Z</time></trkpt><trkpt lat="44.188233419579326" lon="9.625345422185404"><ele>132.60000000000002</ele><time>2026-05-01T15:07:39.999Z</time></trkpt><trkpt lat="44.18833259025584" lon="9.625317103105306"><ele>134.4</ele><time>2026-05-01T15:07:40.999Z</time></trkpt><trkpt lat="44.18846107860263" lon="9.625234430028788"><ele>136.20000000000002</ele><time>2026-05-01T15:07:41.999Z</time></trkpt><trkpt lat="44.18855082738117" lon="9.625190645440414"><ele>138.0</ele><time>2026-05-01T15:07:42.999Z</time></trkpt><trkpt lat="44.18867944247255" lon="9.625191453106666"><ele>138.0</ele><time>2026-05-01T15:07:43.999Z</time></trkpt><trkpt lat="44.18876986337413" lon="9.625236976685562"><ele>138.0</ele><time>2026-05-01T15:07:44.999Z</time></trkpt><trkpt lat="44.18884920978035" lon="9.625285927615653"><ele>138.0</ele><time>2026-05-01T15:07:45.999Z</time></trkpt><trkpt lat="44.18896858874099" lon="9.625432746211153"><ele>138.0</ele><time>2026-05-01T15:07:46.999Z</time></trkpt><trkpt lat="44.18896237995796" lon="9.625593510676625"><ele>138.0</ele><time>2026-05-01T15:07:47.999Z</time></trkpt><trkpt lat="44.18898669447254" lon="9.625743215641451"><ele>138.0</ele><time>2026-05-01T15:07:48.999Z</time></trkpt><trkpt lat="44.18902767368747" lon="9.625872758968848"><ele>138.0</ele><time>2026-05-01T15:07:49.999Z</time></trkpt><trkpt lat="44.18908542057234" lon="9.626007071574858"><ele>138.0</ele><time>2026-05-01T15:07:50.999Z</time></trkpt><trkpt lat="44.18916389484488" lon="9.626099440691442"><ele>138.0</ele><time>2026-05-01T15:07:51.999Z</time></trkpt><trkpt lat="44.189276825619004" lon="9.62617622678253"><ele>138.0</ele><time>2026-05-01T15:07:52.999Z</time></trkpt><trkpt lat="44.189399237812786" lon="9.626208533429754"><ele>138.0</ele><time>2026-05-01T15:07:53.999Z</time></trkpt><trkpt lat="44.189522191842386" lon="9.626198867263005"><ele>138.0</ele><time>2026-05-01T15:07:54.999Z</time></trkpt><trkpt lat="44.189644254963156" lon="9.626212085404472"><ele>138.0</ele><time>2026-05-01T15:07:55.999Z</time></trkpt><trkpt lat="44.18979044935148" lon="9.626174406148813"><ele>124.0</ele><time>2026-05-01T15:07:56.999Z</time></trkpt><trkpt lat="44.18995996827804" lon="9.626131941557986"><ele>110.0</ele><time>2026-05-01T15:07:57.999Z</time></trkpt><trkpt lat="44.190145673207624" lon="9.626129228335554"><ele>96.0</ele><time>2026-05-01T15:07:58.999Z</time></trkpt><trkpt lat="44.190346690660505" lon="9.626108194935968"><ele>96.0</ele><time>2026-05-01T15:07:59.999Z</time></trkpt><trkpt lat="44.190524544014565" lon="9.626099021786397"><ele>96.0</ele><time>2026-05-01T15:08:00.999Z</time></trkpt><trkpt lat="44.19069483224554" lon="9.626121858749201"><ele>96.0</ele><time>2026-05-01T15:08:01.999Z</time></trkpt><trkpt lat="44.19088396852772" lon="9.626143676235658"><ele>95.66666666666667</ele><time>2026-05-01T15:08:02.999Z</time></trkpt><trkpt lat="44.191063506109785" lon="9.626127841845971"><ele>95.33333333333334</ele><time>2026-05-01T15:08:03.999Z</time></trkpt><trkpt lat="44.19127061709897" lon="9.626179630262442"><ele>95.0</ele><time>2026-05-01T15:08:04.999Z</time></trkpt><trkpt lat="44.19143222233492" lon="9.626176702929856"><ele>101.25</ele><time>2026-05-01T15:08:05.999Z</time></trkpt><trkpt lat="44.191607151995996" lon="9.626169498453473"><ele>107.5</ele><time>2026-05-01T15:08:06.999Z</time></trkpt><trkpt lat="44.19176515874587" lon="9.626179807111159"><ele>113.75</ele><time>2026-05-01T15:08:07.999Z</time></trkpt><trkpt lat="44.191846599946864" lon="9.626181568890612"><ele>120.0</ele><time>2026-05-01T15:08:08.998Z</time></trkpt><trkpt lat="44.19192559545467" lon="9.626163673313167"><ele>109.0</ele><time>2026-05-01T15:08:09.998Z</time></trkpt><trkpt lat="44.19201257281306" lon="9.625971926489266"><ele>98.0</ele><time>2026-05-01T15:08:10.998Z</time></trkpt><trkpt lat="44.1917602917707" lon="9.625773022914325"><ele>98.0</ele><time>2026-05-01T15:08:13.998Z</time></trkpt><trkpt lat="44.191644374270766" lon="9.625797588712468"><ele>98.0</ele><time>2026-05-01T15:08:15Z</time></trkpt><trkpt lat="44.191520926003406" lon="9.625843380464948"><ele>98.0</ele><time>2026-05-01T15:08:16Z</time></trkpt><trkpt lat="44.19139173359667" lon="9.62589978252439"><ele>98.0</ele><time>2026-05-01T15:08:17Z</time></trkpt><trkpt lat="44.19124067770979" lon="9.625885208413553"><ele>97.0</ele><time>2026-05-01T15:08:18Z</time></trkpt><trkpt lat="44.19108245124304" lon="9.625856257715633"><ele>96.0</ele><time>2026-05-01T15:08:19Z</time></trkpt><trkpt lat="44.19092548576759" lon="9.625820423378086"><ele>95.0</ele><time>2026-05-01T15:08:20Z</time></trkpt><trkpt lat="44.190760679719595" lon="9.625810508361084"><ele>95.33333333333334</ele><time>2026-05-01T15:08:21Z</time></trkpt><trkpt lat="44.19058956944465" lon="9.625817124939832"><ele>95.66666666666667</ele><time>2026-05-01T15:08:22Z</time></trkpt><trkpt lat="44.1904236773541" lon="9.625780159773608"><ele>96.0</ele><time>2026-05-01T15:08:23Z</time></trkpt><trkpt lat="44.190237903699405" lon="9.62573690178092"><ele>96.0</ele><time>2026-05-01T15:08:24Z</time></trkpt><trkpt lat="44.19007525085113" lon="9.625680342703873"><ele>96.0</ele><time>2026-05-01T15:08:25Z</time></trkpt><trkpt lat="44.18989106143324" lon="9.62563675125662"><ele>96.0</ele><time>2026-05-01T15:08:26Z</time></trkpt><trkpt lat="44.18973153813229" lon="9.625570841505104"><ele>95.0</ele><time>2026-05-01T15:08:27Z</time></trkpt><trkpt lat="44.18958903607772" lon="9.625507017860773"><ele>94.0</ele><time>2026-05-01T15:08:28Z</time></trkpt><trkpt lat="44.18945970465016" lon="9.625420196638407"><ele>93.0</ele><time>2026-05-01T15:08:29Z</time></trkpt><trkpt lat="44.18939150759907" lon="9.62525885782153"><ele>92.0</ele><time>2026-05-01T15:08:30Z</time></trkpt><trkpt lat="44.189349016125014" lon="9.625115704493068"><ele>92.0</ele><time>2026-05-01T15:08:31Z</time></trkpt><trkpt lat="44.189276341355736" lon="9.62496486581084"><ele>92.0</ele><time>2026-05-01T15:08:32Z</time></trkpt><trkpt lat="44.18916425067171" lon="9.624785014083718"><ele>92.0</ele><time>2026-05-01T15:08:33Z</time></trkpt><trkpt lat="44.18902610510069" lon="9.62463684966836"><ele>89.33333333333334</ele><time>2026-05-01T15:08:34Z</time></trkpt><trkpt lat="44.18890627102003" lon="9.624480932473897"><ele>86.66666666666667</ele><time>2026-05-01T15:08:35Z</time></trkpt><trkpt lat="44.188745594990834" lon="9.624317661953848"><ele>84.0</ele><time>2026-05-01T15:08:36Z</time></trkpt><trkpt lat="44.18857565770522" lon="9.624159184530951"><ele>84.0</ele><time>2026-05-01T15:08:37Z</time></trkpt><trkpt lat="44.188413529716" lon="9.624024924465935"><ele>84.0</ele><time>2026-05-01T15:08:38Z</time></trkpt><trkpt lat="44.18831239354333" lon="9.623825555514474"><ele>84.0</ele><time>2026-05-01T15:08:39Z</time></trkpt><trkpt lat="44.18819355857167" lon="9.623627091107894"><ele>86.0</ele><time>2026-05-01T15:08:40Z</time></trkpt><trkpt lat="44.18808565651629" lon="9.623445126042858"><ele>88.0</ele><time>2026-05-01T15:08:41Z</time></trkpt><trkpt lat="44.187975517079686" lon="9.623259690030972"><ele>90.0</ele><time>2026-05-01T15:08:42Z</time></trkpt><trkpt lat="44.18789954732373" lon="9.623124616379107"><ele>90.0</ele><time>2026-05-01T15:08:43Z</time></trkpt><trkpt lat="44.18785219523403" lon="9.62296086427244"><ele>90.0</ele><time>2026-05-01T15:08:44Z</time></trkpt><trkpt lat="44.187809126559365" lon="9.622805328092154"><ele>90.0</ele><time>2026-05-01T15:08:45Z</time></trkpt><trkpt lat="44.18780218098709" lon="9.622607804391775"><ele>90.0</ele><time>2026-05-01T15:08:46Z</time></trkpt><trkpt lat="44.18780257597037" lon="9.622425530888437"><ele>86.25</ele><time>2026-05-01T15:08:47Z</time></trkpt><trkpt lat="44.187790077665504" lon="9.622251020712424"><ele>82.5</ele><time>2026-05-01T15:08:48Z</time></trkpt><trkpt lat="44.18774453878945" lon="9.622101854231996"><ele>78.75</ele><time>2026-05-01T15:08:49Z</time></trkpt><trkpt lat="44.18766336187724" lon="9.621966695506215"><ele>75.0</ele><time>2026-05-01T15:08:50Z</time></trkpt><trkpt lat="44.18752407264536" lon="9.621891372662105"><ele>72.66666666666667</ele><time>2026-05-01T15:08:51Z</time></trkpt><trkpt lat="44.187372072647044" lon="9.621873027879806"><ele>70.33333333333334</ele><time>2026-05-01T15:08:52Z</time></trkpt><trkpt lat="44.18721843954767" lon="9.621828222943732"><ele>68.0</ele><time>2026-05-01T15:08:53Z</time></trkpt><trkpt lat="44.187118194359584" lon="9.62168458457807"><ele>68.0</ele><time>2026-05-01T15:08:54Z</time></trkpt><trkpt lat="44.18701538638914" lon="9.621555768999169"><ele>68.0</ele><time>2026-05-01T15:08:55Z</time></trkpt><trkpt lat="44.18689265960158" lon="9.621403075922906"><ele>68.0</ele><time>2026-05-01T15:08:56Z</time></trkpt><trkpt lat="44.18675632949662" lon="9.621282897655028"><ele>68.0</ele><time>2026-05-01T15:08:57Z</time></trkpt><trkpt lat="44.18661816023984" lon="9.621176747876438"><ele>68.0</ele><time>2026-05-01T15:08:58Z</time></trkpt><trkpt lat="44.18641953116649" lon="9.621178186716065"><ele>68.0</ele><time>2026-05-01T15:08:59Z</time></trkpt><trkpt lat="44.18623137704378" lon="9.621196316689591"><ele>67.66666666666667</ele><time>2026-05-01T15:09:00Z</time></trkpt><trkpt lat="44.18600938106911" lon="9.6212630472036"><ele>67.33333333333333</ele><time>2026-05-01T15:09:01Z</time></trkpt><trkpt lat="44.185821269770244" lon="9.621275160258053"><ele>67.0</ele><time>2026-05-01T15:09:02Z</time></trkpt><trkpt lat="44.185648513879414" lon="9.621310244976181"><ele>67.0</ele><time>2026-05-01T15:09:03Z</time></trkpt><trkpt lat="44.18550125939323" lon="9.621331795753987"><ele>67.0</ele><time>2026-05-01T15:09:04Z</time></trkpt><trkpt lat="44.18535916305381" lon="9.62129098306739"><ele>67.0</ele><time>2026-05-01T15:09:04.999Z</time></trkpt><trkpt lat="44.18523131055218" lon="9.621199838091167"><ele>67.0</ele><time>2026-05-01T15:09:05.999Z</time></trkpt><trkpt lat="44.18509067886852" lon="9.621097812686857"><ele>58.0</ele><time>2026-05-01T15:09:06.999Z</time></trkpt><trkpt lat="44.18491530552358" lon="9.620966997237545"><ele>49.0</ele><time>2026-05-01T15:09:07.999Z</time></trkpt><trkpt lat="44.1847598936731" lon="9.62085891744333"><ele>40.0</ele><time>2026-05-01T15:09:08.999Z</time></trkpt><trkpt lat="44.18456152424008" lon="9.62078361594562"><ele>38.66666666666667</ele><time>2026-05-01T15:09:09.999Z</time></trkpt><trkpt lat="44.184363462376126" lon="9.620757717973715"><ele>37.333333333333336</ele><time>2026-05-01T15:09:10.999Z</time></trkpt><trkpt lat="44.18416902545955" lon="9.62074922131484"><ele>36.0</ele><time>2026-05-01T15:09:11.999Z</time></trkpt><trkpt lat="44.183969155722444" lon="9.620733413670552"><ele>33.666666666666664</ele><time>2026-05-01T15:09:12.999Z</time></trkpt><trkpt lat="44.183758716208864" lon="9.62072751609981"><ele>31.333333333333332</ele><time>2026-05-01T15:09:13.999Z</time></trkpt><trkpt lat="44.18358094288426" lon="9.62071560656793"><ele>29.0</ele><time>2026-05-01T15:09:14.999Z</time></trkpt><trkpt lat="44.183417269801915" lon="9.620716176795773"><ele>29.0</ele><time>2026-05-01T15:09:15.999Z</time></trkpt><trkpt lat="44.183256813843585" lon="9.62078552928471"><ele>29.0</ele><time>2026-05-01T15:09:16.999Z</time></trkpt><trkpt lat="44.183112059234226" lon="9.6209001541321"><ele>29.0</ele><time>2026-05-01T15:09:17.999Z</time></trkpt><trkpt lat="44.182969646017575" lon="9.621032828832378"><ele>28.666666666666664</ele><time>2026-05-01T15:09:18.999Z</time></trkpt><trkpt lat="44.18282730122145" lon="9.621186739421807"><ele>28.333333333333336</ele><time>2026-05-01T15:09:19.999Z</time></trkpt><trkpt lat="44.182718629620744" lon="9.621334066093244"><ele>28.0</ele><time>2026-05-01T15:09:20.999Z</time></trkpt><trkpt lat="44.18260687276046" lon="9.621470534929946"><ele>28.0</ele><time>2026-05-01T15:09:21.999Z</time></trkpt><trkpt lat="44.18253554098811" lon="9.62160345223986"><ele>28.0</ele><time>2026-05-01T15:09:22.999Z</time></trkpt><trkpt lat="44.18244211912132" lon="9.62172079447049"><ele>28.0</ele><time>2026-05-01T15:09:23.999Z</time></trkpt><trkpt lat="44.18233026508042" lon="9.621796297375397"><ele>28.0</ele><time>2026-05-01T15:09:24.999Z</time></trkpt><trkpt lat="44.18221472494628" lon="9.621841854363767"><ele>27.25</ele><time>2026-05-01T15:09:25.999Z</time></trkpt><trkpt lat="44.182099735239106" lon="9.621868109723946"><ele>26.5</ele><time>2026-05-01T15:09:26.999Z</time></trkpt><trkpt lat="44.182000045808074" lon="9.621875898005461"><ele>25.75</ele><time>2026-05-01T15:09:27.999Z</time></trkpt><trkpt lat="44.181870156437725" lon="9.621898705843876"><ele>25.0</ele><time>2026-05-01T15:09:28.999Z</time></trkpt><trkpt lat="44.18175749627625" lon="9.621935032301396"><ele>25.0</ele><time>2026-05-01T15:09:29.999Z</time></trkpt><trkpt lat="44.181645365299" lon="9.621936164982651"><ele>25.0</ele><time>2026-05-01T15:09:30.999Z</time></trkpt><trkpt lat="44.18154834179274" lon="9.621946051804665"><ele>25.0</ele><time>2026-05-01T15:09:31.999Z</time></trkpt><trkpt lat="44.181455947589434" lon="9.621953162984978"><ele>25.0</ele><time>2026-05-01T15:09:32.999Z</time></trkpt><trkpt lat="44.181368652865515" lon="9.621958003917188"><ele>25.0</ele><time>2026-05-01T15:09:33.999Z</time></trkpt><trkpt lat="44.18127675856373" lon="9.621985465961226"><ele>24.5</ele><time>2026-05-01T15:09:34.999Z</time></trkpt><trkpt lat="44.18119475168965" lon="9.621997882491616"><ele>24.0</ele><time>2026-05-01T15:09:35.999Z</time></trkpt><trkpt lat="44.18104104214635" lon="9.622030109044562"><ele>23.5</ele><time>2026-05-01T15:09:37.999Z</time></trkpt><trkpt lat="44.18092572497174" lon="9.622024830882497"><ele>23.0</ele><time>2026-05-01T15:09:38.999Z</time></trkpt><trkpt lat="44.18082959139454" lon="9.622032793640575"><ele>23.0</ele><time>2026-05-01T15:09:39.999Z</time></trkpt><trkpt lat="44.180740011249895" lon="9.622056653431285"><ele>23.0</ele><time>2026-05-01T15:09:40.999Z</time></trkpt><trkpt lat="44.18065406013042" lon="9.62207907374098"><ele>23.0</ele><time>2026-05-01T15:09:41.999Z</time></trkpt><trkpt lat="44.1805671423639" lon="9.622111652678601"><ele>23.0</ele><time>2026-05-01T15:09:42.999Z</time></trkpt><trkpt lat="44.18047717374834" lon="9.622162687307853"><ele>23.0</ele><time>2026-05-01T15:09:43.999Z</time></trkpt><trkpt lat="44.18039528279461" lon="9.622239215629326"><ele>23.0</ele><time>2026-05-01T15:09:44.999Z</time></trkpt><trkpt lat="44.18031782102071" lon="9.622316746214368"><ele>23.0</ele><time>2026-05-01T15:09:45.999Z</time></trkpt><trkpt lat="44.180255734793164" lon="9.622395774336653"><ele>23.0</ele><time>2026-05-01T15:09:46.999Z</time></trkpt><trkpt lat="44.18019207886101" lon="9.622463561194222"><ele>23.0</ele><time>2026-05-01T15:09:47.999Z</time></trkpt><trkpt lat="44.180135967307685" lon="9.622530613530955"><ele>23.0</ele><time>2026-05-01T15:09:48.999Z</time></trkpt><trkpt lat="44.18008991897725" lon="9.62260057105134"><ele>23.0</ele><time>2026-05-01T15:09:49.999Z</time></trkpt><trkpt lat="44.18003228420943" lon="9.622671233596726"><ele>23.0</ele><time>2026-05-01T15:09:50.999Z</time></trkpt><trkpt lat="44.17996466730751" lon="9.622758460064896"><ele>23.0</ele><time>2026-05-01T15:09:52.999Z</time></trkpt><trkpt lat="44.179912865093634" lon="9.622821537287834"><ele>23.0</ele><time>2026-05-01T15:09:53.999Z</time></trkpt><trkpt lat="44.17980419571718" lon="9.62285574859012"><ele>23.0</ele><time>2026-05-01T15:09:55.999Z</time></trkpt><trkpt lat="44.17968046499988" lon="9.622842916989304"><ele>23.0</ele><time>2026-05-01T15:09:57.999Z</time></trkpt><trkpt lat="44.17960329950759" lon="9.622841047014015"><ele>22.5</ele><time>2026-05-01T15:09:58.999Z</time></trkpt><trkpt lat="44.17953530505309" lon="9.622841209675494"><ele>22.0</ele><time>2026-05-01T15:09:59.999Z</time></trkpt><trkpt lat="44.179465394241774" lon="9.622837343465378"><ele>21.5</ele><time>2026-05-01T15:10:00.999Z</time></trkpt><trkpt lat="44.17937729445443" lon="9.622817137526662"><ele>21.0</ele><time>2026-05-01T15:10:01.999Z</time></trkpt><trkpt lat="44.17929470664199" lon="9.622802505004227"><ele>20.5</ele><time>2026-05-01T15:10:02.999Z</time></trkpt><trkpt lat="44.17920517814318" lon="9.62278728832349"><ele>20.0</ele><time>2026-05-01T15:10:03.999Z</time></trkpt><trkpt lat="44.17911645717854" lon="9.622758442919498"><ele>20.0</ele><time>2026-05-01T15:10:04.999Z</time></trkpt><trkpt lat="44.17902912001553" lon="9.622725280612624"><ele>20.0</ele><time>2026-05-01T15:10:05.999Z</time></trkpt><trkpt lat="44.17894046367559" lon="9.622695904179308"><ele>20.0</ele><time>2026-05-01T15:10:06.999Z</time></trkpt><trkpt lat="44.17885922025527" lon="9.622674821975268"><ele>20.0</ele><time>2026-05-01T15:10:07.999Z</time></trkpt><trkpt lat="44.178782565464886" lon="9.622635858637322"><ele>20.0</ele><time>2026-05-01T15:10:08.999Z</time></trkpt><trkpt lat="44.17870849858303" lon="9.622594968552617"><ele>20.0</ele><time>2026-05-01T15:10:09.999Z</time></trkpt><trkpt lat="44.178633775068356" lon="9.622537767321356"><ele>19.5</ele><time>2026-05-01T15:10:10.999Z</time></trkpt><trkpt lat="44.17856048324517" lon="9.622461790194743"><ele>19.0</ele><time>2026-05-01T15:10:11.999Z</time></trkpt><trkpt lat="44.178497273617026" lon="9.622387622741314"><ele>18.5</ele><time>2026-05-01T15:10:12.999Z</time></trkpt><trkpt lat="44.178435371565605" lon="9.62231388550512"><ele>18.0</ele><time>2026-05-01T15:10:13.999Z</time></trkpt><trkpt lat="44.17837453017014" lon="9.622249252432942"><ele>17.5</ele><time>2026-05-01T15:10:14.999Z</time></trkpt><trkpt lat="44.178306876120395" lon="9.622170861864792"><ele>17.0</ele><time>2026-05-01T15:10:15.999Z</time></trkpt><trkpt lat="44.17823276390429" lon="9.622102226811197"><ele>16.5</ele><time>2026-05-01T15:10:16.999Z</time></trkpt><trkpt lat="44.17815562640554" lon="9.621982171849993"><ele>16.0</ele><time>2026-05-01T15:10:17.999Z</time></trkpt><trkpt lat="44.17806147945352" lon="9.621875193348945"><ele>15.5</ele><time>2026-05-01T15:10:18.999Z</time></trkpt><trkpt lat="44.177947822432195" lon="9.62174485059964"><ele>15.0</ele><time>2026-05-01T15:10:19.999Z</time></trkpt><trkpt lat="44.17783149344011" lon="9.62161855478433"><ele>14.666666666666668</ele><time>2026-05-01T15:10:21Z</time></trkpt><trkpt lat="44.17770562406001" lon="9.62146644363502"><ele>14.333333333333334</ele><time>2026-05-01T15:10:22Z</time></trkpt><trkpt lat="44.17756979674277" lon="9.621325212533126"><ele>14.0</ele><time>2026-05-01T15:10:23Z</time></trkpt><trkpt lat="44.177436297171475" lon="9.621172911188406"><ele>14.0</ele><time>2026-05-01T15:10:24Z</time></trkpt><trkpt lat="44.17731836656121" lon="9.621025653592227"><ele>14.0</ele><time>2026-05-01T15:10:25Z</time></trkpt><trkpt lat="44.1772086193758" lon="9.620895895719103"><ele>14.0</ele><time>2026-05-01T15:10:26Z</time></trkpt><trkpt lat="44.177116490257184" lon="9.620767545196525"><ele>14.0</ele><time>2026-05-01T15:10:27Z</time></trkpt><trkpt lat="44.17700494460963" lon="9.620652049458982"><ele>14.0</ele><time>2026-05-01T15:10:28Z</time></trkpt><trkpt lat="44.176906406498894" lon="9.62053252137678"><ele>14.0</ele><time>2026-05-01T15:10:29Z</time></trkpt><trkpt lat="44.176810317604954" lon="9.620413340272176"><ele>14.0</ele><time>2026-05-01T15:10:30Z</time></trkpt><trkpt lat="44.17671646054785" lon="9.620289735608116"><ele>14.0</ele><time>2026-05-01T15:10:31Z</time></trkpt><trkpt lat="44.176613690400394" lon="9.620196369761883"><ele>13.75</ele><time>2026-05-01T15:10:32Z</time></trkpt><trkpt lat="44.176512010397296" lon="9.620102884931349"><ele>13.5</ele><time>2026-05-01T15:10:33Z</time></trkpt><trkpt lat="44.17641704648274" lon="9.62000975923029"><ele>13.25</ele><time>2026-05-01T15:10:34Z</time></trkpt><trkpt lat="44.17632155757844" lon="9.619911225703467"><ele>13.0</ele><time>2026-05-01T15:10:35Z</time></trkpt><trkpt lat="44.17623377525603" lon="9.619828390580007"><ele>12.999999999999998</ele><time>2026-05-01T15:10:36Z</time></trkpt><trkpt lat="44.17614241670852" lon="9.619756784328162"><ele>13.0</ele><time>2026-05-01T15:10:37Z</time></trkpt><trkpt lat="44.17608451022956" lon="9.619699117311523"><ele>13.0</ele><time>2026-05-01T15:10:38Z</time></trkpt><trkpt lat="44.17602822584282" lon="9.619645501843147"><ele>13.0</ele><time>2026-05-01T15:10:39Z</time></trkpt><trkpt lat="44.17594494392041" lon="9.61958285483452"><ele>12.999999999999998</ele><time>2026-05-01T15:10:40Z</time></trkpt><trkpt lat="44.17589119487031" lon="9.619532847376544"><ele>13.0</ele><time>2026-05-01T15:10:41Z</time></trkpt><trkpt lat="44.17580402938458" lon="9.619447307154559"><ele>12.8</ele><time>2026-05-01T15:10:43Z</time></trkpt><trkpt lat="44.17574017518768" lon="9.61938272530589"><ele>12.600000000000001</ele><time>2026-05-01T15:10:45Z</time></trkpt><trkpt lat="44.175680662034445" lon="9.619290493477342"><ele>12.399999999999999</ele><time>2026-05-01T15:10:47Z</time></trkpt><trkpt lat="44.17561017802638" lon="9.619213341403276"><ele>12.2</ele><time>2026-05-01T15:10:49Z</time></trkpt><trkpt lat="44.1754866138558" lon="9.619163959882998"><ele>12.0</ele><time>2026-05-01T15:10:51Z</time></trkpt><trkpt lat="44.175406783420094" lon="9.619107312298787"><ele>12.0</ele><time>2026-05-01T15:10:52Z</time></trkpt><trkpt lat="44.17532402279322" lon="9.619009938771104"><ele>12.0</ele><time>2026-05-01T15:10:53Z</time></trkpt><trkpt lat="44.17522430322627" lon="9.618894434806247"><ele>12.0</ele><time>2026-05-01T15:10:54Z</time></trkpt><trkpt lat="44.17510520017142" lon="9.618762477850748"><ele>12.0</ele><time>2026-05-01T15:10:55Z</time></trkpt><trkpt lat="44.175002173881865" lon="9.618636381576945"><ele>11.75</ele><time>2026-05-01T15:10:56Z</time></trkpt><trkpt lat="44.174903949187666" lon="9.618506115527476"><ele>11.5</ele><time>2026-05-01T15:10:57Z</time></trkpt><trkpt lat="44.17480139458132" lon="9.618407840435838"><ele>11.25</ele><time>2026-05-01T15:10:58Z</time></trkpt><trkpt lat="44.174702022746324" lon="9.618304997208766"><ele>11.0</ele><time>2026-05-01T15:10:59Z</time></trkpt><trkpt lat="44.17461071752067" lon="9.618199658488162"><ele>11.0</ele><time>2026-05-01T15:11:00Z</time></trkpt><trkpt lat="44.17452140272856" lon="9.618090012028713"><ele>11.0</ele><time>2026-05-01T15:11:01Z</time></trkpt><trkpt lat="44.17441868823427" lon="9.617997400885097"><ele>11.0</ele><time>2026-05-01T15:11:02Z</time></trkpt><trkpt lat="44.17432053308599" lon="9.617892510349979"><ele>11.0</ele><time>2026-05-01T15:11:03Z</time></trkpt><trkpt lat="44.17423672138241" lon="9.61778193454248"><ele>11.0</ele><time>2026-05-01T15:11:04Z</time></trkpt><trkpt lat="44.17415072684297" lon="9.617675228767835"><ele>11.0</ele><time>2026-05-01T15:11:05Z</time></trkpt><trkpt lat="44.17406461427606" lon="9.61756201876725"><ele>11.0</ele><time>2026-05-01T15:11:06Z</time></trkpt><trkpt lat="44.17399240501466" lon="9.61743354264176"><ele>11.0</ele><time>2026-05-01T15:11:07Z</time></trkpt><trkpt lat="44.17392785726507" lon="9.61728826609912"><ele>11.333333333333332</ele><time>2026-05-01T15:11:08Z</time></trkpt><trkpt lat="44.17386485225051" lon="9.61716606438414"><ele>11.666666666666666</ele><time>2026-05-01T15:11:09Z</time></trkpt><trkpt lat="44.17381716973338" lon="9.617066386433955"><ele>12.0</ele><time>2026-05-01T15:11:10Z</time></trkpt><trkpt lat="44.17378668811892" lon="9.616964882821025"><ele>12.333333333333332</ele><time>2026-05-01T15:11:11Z</time></trkpt><trkpt lat="44.17374314208809" lon="9.61686677442405"><ele>12.666666666666666</ele><time>2026-05-01T15:11:12Z</time></trkpt><trkpt lat="44.17372184154161" lon="9.616765139375548"><ele>13.0</ele><time>2026-05-01T15:11:13Z</time></trkpt><trkpt lat="44.173705166687775" lon="9.616671409738162"><ele>12.333333333333332</ele><time>2026-05-01T15:11:14Z</time></trkpt><trkpt lat="44.17370885037297" lon="9.616551778215646"><ele>11.666666666666666</ele><time>2026-05-01T15:11:15Z</time></trkpt><trkpt lat="44.17370488924785" lon="9.616444681536253"><ele>11.0</ele><time>2026-05-01T15:11:16Z</time></trkpt><trkpt lat="44.17369179782084" lon="9.616350694529242"><ele>10.333333333333332</ele><time>2026-05-01T15:11:17Z</time></trkpt><trkpt lat="44.17368387205778" lon="9.616226001841778"><ele>9.666666666666666</ele><time>2026-05-01T15:11:18Z</time></trkpt><trkpt lat="44.17367075908983" lon="9.61613999357582"><ele>9.0</ele><time>2026-05-01T15:11:18.999Z</time></trkpt><trkpt lat="44.17363782726366" lon="9.616042347792106"><ele>8.833333333333334</ele><time>2026-05-01T15:11:19.999Z</time></trkpt><trkpt lat="44.173618847441475" lon="9.615897029093345"><ele>8.666666666666666</ele><time>2026-05-01T15:11:20.999Z</time></trkpt><trkpt lat="44.173594417992035" lon="9.615800669963722"><ele>8.5</ele><time>2026-05-01T15:11:21.999Z</time></trkpt><trkpt lat="44.173557145485404" lon="9.615703597731882"><ele>8.333333333333332</ele><time>2026-05-01T15:11:22.999Z</time></trkpt><trkpt lat="44.17353499479437" lon="9.615616217710146"><ele>8.166666666666666</ele><time>2026-05-01T15:11:23.999Z</time></trkpt><trkpt lat="44.17350181527702" lon="9.615523454763295"><ele>8.0</ele><time>2026-05-01T15:11:24.999Z</time></trkpt><trkpt lat="44.17347301643058" lon="9.615432908392833"><ele>7.999999999999999</ele><time>2026-05-01T15:11:25.999Z</time></trkpt><trkpt lat="44.17344052629654" lon="9.615331204945127"><ele>8.0</ele><time>2026-05-01T15:11:26.999Z</time></trkpt><trkpt lat="44.173412199725284" lon="9.615239133213661"><ele>8.0</ele><time>2026-05-01T15:11:27.999Z</time></trkpt><trkpt lat="44.17338431653239" lon="9.615155789704673"><ele>8.0</ele><time>2026-05-01T15:11:28.999Z</time></trkpt><trkpt lat="44.1733454045742" lon="9.615025089485224"><ele>7.999999999999999</ele><time>2026-05-01T15:11:30.999Z</time></trkpt><trkpt lat="44.17330872743589" lon="9.614947730509055"><ele>8.0</ele><time>2026-05-01T15:11:31.999Z</time></trkpt><trkpt lat="44.1732468306526" lon="9.614824596858092"><ele>7.6000000000000005</ele><time>2026-05-01T15:11:33.999Z</time></trkpt><trkpt lat="44.17313912796927" lon="9.61475730148744"><ele>7.200000000000001</ele><time>2026-05-01T15:11:35.999Z</time></trkpt><trkpt lat="44.17303152132349" lon="9.614756473990134"><ele>6.8</ele><time>2026-05-01T15:11:37.999Z</time></trkpt><trkpt lat="44.17292451054489" lon="9.61479529473567"><ele>6.4</ele><time>2026-05-01T15:11:39.999Z</time></trkpt><trkpt lat="44.172860898489915" lon="9.61481041558844"><ele>6.0</ele><time>2026-05-01T15:11:40.999Z</time></trkpt><trkpt lat="44.17274843956644" lon="9.614837594459763"><ele>6.0</ele><time>2026-05-01T15:11:42.999Z</time></trkpt><trkpt lat="44.17267470614552" lon="9.614851520732858"><ele>6.0</ele><time>2026-05-01T15:11:45.999Z</time></trkpt><trkpt lat="44.1725883461625" lon="9.614847894444127"><ele>6.0</ele><time>2026-05-01T15:11:47.999Z</time></trkpt><trkpt lat="44.172476577679994" lon="9.614822973132423"><ele>6.0</ele><time>2026-05-01T15:11:49.999Z</time></trkpt><trkpt lat="44.172363420592106" lon="9.614746881866527"><ele>6.0</ele><time>2026-05-01T15:11:51.999Z</time></trkpt><trkpt lat="44.17230766148385" lon="9.614683084276697"><ele>6.166666666666667</ele><time>2026-05-01T15:11:52.999Z</time></trkpt><trkpt lat="44.17224937852647" lon="9.614602511784634"><ele>6.333333333333334</ele><time>2026-05-01T15:11:53.999Z</time></trkpt><trkpt lat="44.172203688447446" lon="9.614527433205597"><ele>6.5</ele><time>2026-05-01T15:11:54.999Z</time></trkpt><trkpt lat="44.172159987231225" lon="9.614454404096012"><ele>6.666666666666667</ele><time>2026-05-01T15:11:55.999Z</time></trkpt><trkpt lat="44.17211745048809" lon="9.614381797209647"><ele>6.833333333333334</ele><time>2026-05-01T15:11:56.999Z</time></trkpt><trkpt lat="44.172071461111614" lon="9.614315461923189"><ele>7.0</ele><time>2026-05-01T15:11:57.999Z</time></trkpt><trkpt lat="44.17200900120584" lon="9.614196386729397"><ele>7.0</ele><time>2026-05-01T15:12:00.999Z</time></trkpt><trkpt lat="44.17194584080016" lon="9.614056518172191"><ele>6.999999999999999</ele><time>2026-05-01T15:12:02.999Z</time></trkpt><trkpt lat="44.171932049561676" lon="9.613963576119508"><ele>6.999999999999999</ele><time>2026-05-01T15:12:07.999Z</time></trkpt><trkpt lat="44.17188979113814" lon="9.613810453486106"><ele>7.0</ele><time>2026-05-01T15:12:10.999Z</time></trkpt><trkpt lat="44.171850713561774" lon="9.613676843546008"><ele>7.0</ele><time>2026-05-01T15:12:12.999Z</time></trkpt><trkpt lat="44.171843548527214" lon="9.613575337372493"><ele>7.0</ele><time>2026-05-01T15:12:13.999Z</time></trkpt><trkpt lat="44.17182931910961" lon="9.613477668055587"><ele>7.0</ele><time>2026-05-01T15:12:14.999Z</time></trkpt><trkpt lat="44.17179613716095" lon="9.613298800763147"><ele>7.0</ele><time>2026-05-01T15:12:16.999Z</time></trkpt><trkpt lat="44.17173052159939" lon="9.613135111986521"><ele>7.0</ele><time>2026-05-01T15:12:18.999Z</time></trkpt><trkpt lat="44.17170338475546" lon="9.612970028849311"><ele>7.000000000000001</ele><time>2026-05-01T15:12:20.999Z</time></trkpt><trkpt lat="44.17168142654749" lon="9.612875485344675"><ele>7.0</ele><time>2026-05-01T15:12:21.999Z</time></trkpt><trkpt lat="44.17165295546849" lon="9.61277877986009"><ele>7.0</ele><time>2026-05-01T15:12:22.999Z</time></trkpt><trkpt lat="44.17163468535673" lon="9.612689575173139"><ele>7.0</ele><time>2026-05-01T15:12:23.999Z</time></trkpt><trkpt lat="44.17162136960947" lon="9.612603467388698"><ele>7.000000000000001</ele><time>2026-05-01T15:12:24.999Z</time></trkpt><trkpt lat="44.17159917942601" lon="9.612429118281822"><ele>7.0</ele><time>2026-05-01T15:12:27Z</time></trkpt><trkpt lat="44.1715493592126" lon="9.612305768027843"><ele>7.0</ele><time>2026-05-01T15:12:30Z</time></trkpt><trkpt lat="44.171524732159014" lon="9.612126876436552"><ele>7.0</ele><time>2026-05-01T15:12:32Z</time></trkpt><trkpt lat="44.17149941987685" lon="9.61200884708764"><ele>7.0</ele><time>2026-05-01T15:12:33Z</time></trkpt><trkpt lat="44.1714559742258" lon="9.61180626230805"><ele>7.0</ele><time>2026-05-01T15:12:34Z</time></trkpt><trkpt lat="44.17141372492761" lon="9.611609256325844"><ele>7.0</ele><time>2026-05-01T15:12:35Z</time></trkpt><trkpt lat="44.17135410756425" lon="9.611407598273896"><ele>7.0</ele><time>2026-05-01T15:12:36Z</time></trkpt><trkpt lat="44.17131088100891" lon="9.611201847635611"><ele>7.0</ele><time>2026-05-01T15:12:37Z</time></trkpt><trkpt lat="44.17127659264054" lon="9.611041389472902"><ele>7.0</ele><time>2026-05-01T15:12:38Z</time></trkpt><trkpt lat="44.17125054989994" lon="9.610893784907248"><ele>7.0</ele><time>2026-05-01T15:12:39Z</time></trkpt><trkpt lat="44.17122809006143" lon="9.610776699713568"><ele>6.999999999999999</ele><time>2026-05-01T15:12:40Z</time></trkpt><trkpt lat="44.17119121837865" lon="9.610640101017871"><ele>6.999999999999999</ele><time>2026-05-01T15:12:42Z</time></trkpt><trkpt lat="44.1710507615486" lon="9.610707455015499"><ele>7.0</ele><time>2026-05-01T15:12:45Z</time></trkpt><trkpt lat="44.17095020891501" lon="9.610759326844288"><ele>7.0</ele><time>2026-05-01T15:12:46Z</time></trkpt><trkpt lat="44.17084743279836" lon="9.610854595896006"><ele>7.0</ele><time>2026-05-01T15:12:47Z</time></trkpt><trkpt lat="44.170738873212066" lon="9.610933699708538"><ele>7.0</ele><time>2026-05-01T15:12:48Z</time></trkpt><trkpt lat="44.1706029444264" lon="9.611006004642682"><ele>7.0</ele><time>2026-05-01T15:12:49Z</time></trkpt><trkpt lat="44.170529083628956" lon="9.611083555927973"><ele>7.0</ele><time>2026-05-01T15:12:50Z</time></trkpt><trkpt lat="44.170429401312354" lon="9.61117818368873"><ele>7.25</ele><time>2026-05-01T15:12:52Z</time></trkpt><trkpt lat="44.17033842228002" lon="9.61104253028599"><ele>7.5</ele><time>2026-05-01T15:12:54Z</time></trkpt><trkpt lat="44.170295984120536" lon="9.610925107477765"><ele>7.75</ele><time>2026-05-01T15:12:55Z</time></trkpt><trkpt lat="44.17023849617773" lon="9.6107569638767"><ele>8.0</ele><time>2026-05-01T15:12:56Z</time></trkpt><trkpt lat="44.17018286407538" lon="9.610587298061365"><ele>8.0</ele><time>2026-05-01T15:12:57Z</time></trkpt><trkpt lat="44.170145677921624" lon="9.610405094365113"><ele>8.0</ele><time>2026-05-01T15:12:58Z</time></trkpt><trkpt lat="44.1700859764432" lon="9.610231605211474"><ele>8.0</ele><time>2026-05-01T15:12:59Z</time></trkpt><trkpt lat="44.17002972115021" lon="9.610058225372189"><ele>8.0</ele><time>2026-05-01T15:13:00Z</time></trkpt><trkpt lat="44.16998714068457" lon="9.609926991471694"><ele>7.999999999999999</ele><time>2026-05-01T15:13:01Z</time></trkpt><trkpt lat="44.169948945029326" lon="9.609809271725963"><ele>8.0</ele><time>2026-05-01T15:13:02Z</time></trkpt><trkpt lat="44.16992143410864" lon="9.609725239413068"><ele>8.0</ele><time>2026-05-01T15:13:03Z</time></trkpt><trkpt lat="44.16988841660429" lon="9.609624561534554"><ele>8.0</ele><time>2026-05-01T15:13:17Z</time></trkpt><trkpt lat="44.169929962556544" lon="9.609541809090906"><ele>7.999999999999999</ele><time>2026-05-01T15:13:21.999Z</time></trkpt><trkpt lat="44.169885998633525" lon="9.60963952045305"><ele>8.0</ele><time>2026-05-01T15:13:28.999Z</time></trkpt><trkpt lat="44.16985366463099" lon="9.609752394435535"><ele>7.999999999999999</ele><time>2026-05-01T15:13:31.999Z</time></trkpt><trkpt lat="44.169859309937685" lon="9.609626599307674"><ele>8.0</ele><time>2026-05-01T15:13:40.999Z</time></trkpt><trkpt lat="44.16994423307762" lon="9.609545864335647"><ele>8.0</ele><time>2026-05-01T15:13:42.999Z</time></trkpt><trkpt lat="44.17002073795206" lon="9.609523034470504"><ele>8.0</ele><time>2026-05-01T15:13:43.999Z</time></trkpt><trkpt lat="44.17009512630529" lon="9.60949276994945"><ele>7.999999999999999</ele><time>2026-05-01T15:13:44.999Z</time></trkpt><trkpt lat="44.170169665217216" lon="9.609451570720243"><ele>8.0</ele><time>2026-05-01T15:13:45.999Z</time></trkpt><trkpt lat="44.17025106454505" lon="9.609393092788805"><ele>7.999999999999999</ele><time>2026-05-01T15:13:46.999Z</time></trkpt><trkpt lat="44.170335118144514" lon="9.609380417191845"><ele>8.0</ele><time>2026-05-01T15:13:47.999Z</time></trkpt><trkpt lat="44.17040380135713" lon="9.6093429783689"><ele>8.0</ele><time>2026-05-01T15:13:48.999Z</time></trkpt><trkpt lat="44.17051217590805" lon="9.609277515539613"><ele>8.0</ele><time>2026-05-01T15:13:50.999Z</time></trkpt><trkpt lat="44.17058049233616" lon="9.60925724339885"><ele>7.999999999999999</ele><time>2026-05-01T15:13:53.999Z</time></trkpt><trkpt lat="44.170664089287655" lon="9.609224780277948"><ele>8.0</ele><time>2026-05-01T15:13:55.999Z</time></trkpt><trkpt lat="44.17072305047152" lon="9.609189504997705"><ele>7.75</ele><time>2026-05-01T15:13:57.999Z</time></trkpt><trkpt lat="44.17078510874436" lon="9.609158426701233"><ele>7.5</ele><time>2026-05-01T15:13:59.999Z</time></trkpt><trkpt lat="44.17085046859872" lon="9.609148643072409"><ele>7.25</ele><time>2026-05-01T15:14:09.999Z</time></trkpt><trkpt lat="44.17091338229369" lon="9.609397187027595"><ele>7.0</ele><time>2026-05-01T15:14:11.999Z</time></trkpt><trkpt lat="44.170950994340764" lon="9.609574764170704"><ele>6.75</ele><time>2026-05-01T15:14:12.999Z</time></trkpt><trkpt lat="44.17098015146653" lon="9.609743764182028"><ele>6.5</ele><time>2026-05-01T15:14:13.999Z</time></trkpt><trkpt lat="44.17101397318349" lon="9.609892705716627"><ele>6.25</ele><time>2026-05-01T15:14:14.999Z</time></trkpt><trkpt lat="44.171054698381" lon="9.610053741971711"><ele>6.0</ele><time>2026-05-01T15:14:15.999Z</time></trkpt><trkpt lat="44.17109111465584" lon="9.61019732499696"><ele>6.199999999999999</ele><time>2026-05-01T15:14:16.999Z</time></trkpt><trkpt lat="44.171094119211375" lon="9.610345179989988"><ele>6.3999999999999995</ele><time>2026-05-01T15:14:17.999Z</time></trkpt><trkpt lat="44.171133687254" lon="9.610491476862174"><ele>6.6</ele><time>2026-05-01T15:14:18.999Z</time></trkpt><trkpt lat="44.171178368944254" lon="9.610614965449368"><ele>6.8</ele><time>2026-05-01T15:14:19.999Z</time></trkpt><trkpt lat="44.17118015146363" lon="9.61071140650125"><ele>7.0</ele><time>2026-05-01T15:14:20.999Z</time></trkpt><trkpt lat="44.17119155558087" lon="9.610817449019278"><ele>7.0</ele><time>2026-05-01T15:14:21.999Z</time></trkpt><trkpt lat="44.171187520086086" lon="9.61098059767698"><ele>6.999999999999999</ele><time>2026-05-01T15:14:23.999Z</time></trkpt><trkpt lat="44.17120516156713" lon="9.611078169369888"><ele>6.999999999999999</ele><time>2026-05-01T15:14:24.999Z</time></trkpt><trkpt lat="44.171250385506525" lon="9.611147212226882"><ele>7.0</ele><time>2026-05-01T15:14:25.999Z</time></trkpt><trkpt lat="44.171291952369394" lon="9.611308676607049"><ele>7.0</ele><time>2026-05-01T15:14:27.999Z</time></trkpt><trkpt lat="44.17133330292366" lon="9.61145665069204"><ele>7.0</ele><time>2026-05-01T15:14:29.999Z</time></trkpt><trkpt lat="44.171362805242055" lon="9.611607384025076"><ele>6.999999999999999</ele><time>2026-05-01T15:14:31.999Z</time></trkpt><trkpt lat="44.17140847289451" lon="9.611761038810373"><ele>6.999999999999999</ele><time>2026-05-01T15:14:34Z</time></trkpt><trkpt lat="44.17143253716267" lon="9.611904168195702"><ele>7.0</ele><time>2026-05-01T15:14:36Z</time></trkpt><trkpt lat="44.1714719317976" lon="9.612032592063564"><ele>7.0</ele><time>2026-05-01T15:14:38Z</time></trkpt><trkpt lat="44.171504934917614" lon="9.612138577994418"><ele>7.0</ele><time>2026-05-01T15:14:40Z</time></trkpt><trkpt lat="44.171519054601966" lon="9.612234395525466"><ele>6.999999999999999</ele><time>2026-05-01T15:14:42Z</time></trkpt><trkpt lat="44.171556833889376" lon="9.612394159464069"><ele>6.999999999999999</ele><time>2026-05-01T15:14:44Z</time></trkpt><trkpt lat="44.1715898957238" lon="9.61252402192739"><ele>7.0</ele><time>2026-05-01T15:14:45Z</time></trkpt><trkpt lat="44.17161993535675" lon="9.6126802185757"><ele>7.0</ele><time>2026-05-01T15:14:46Z</time></trkpt><trkpt lat="44.17166026565469" lon="9.61285138054585"><ele>7.0</ele><time>2026-05-01T15:14:47Z</time></trkpt><trkpt lat="44.17168422148203" lon="9.613033332197052"><ele>6.999999999999999</ele><time>2026-05-01T15:14:48Z</time></trkpt><trkpt lat="44.171730696722264" lon="9.61318619130865"><ele>6.999999999999999</ele><time>2026-05-01T15:14:49Z</time></trkpt><trkpt lat="44.17174030908246" lon="9.613329605039974"><ele>7.0</ele><time>2026-05-01T15:14:50Z</time></trkpt><trkpt lat="44.17175664434426" lon="9.613435611398486"><ele>7.0</ele><time>2026-05-01T15:14:51Z</time></trkpt><trkpt lat="44.17177195672479" lon="9.613551944434423"><ele>7.0</ele><time>2026-05-01T15:14:52Z</time></trkpt><trkpt lat="44.17180947292284" lon="9.613655664997127"><ele>7.0</ele><time>2026-05-01T15:14:53Z</time></trkpt><trkpt lat="44.171829780306986" lon="9.61376997941419"><ele>7.0</ele><time>2026-05-01T15:14:54Z</time></trkpt><trkpt lat="44.17185756488577" lon="9.613853958450536"><ele>7.0</ele><time>2026-05-01T15:14:55Z</time></trkpt><trkpt lat="44.17189090743364" lon="9.613939808699307"><ele>7.0</ele><time>2026-05-01T15:14:56Z</time></trkpt><trkpt lat="44.17188753033209" lon="9.61404248389995"><ele>7.0</ele><time>2026-05-01T15:14:57Z</time></trkpt><trkpt lat="44.17189652565014" lon="9.61413756236526"><ele>7.0</ele><time>2026-05-01T15:14:58Z</time></trkpt><trkpt lat="44.17190778786792" lon="9.614241026623093"><ele>7.0</ele><time>2026-05-01T15:14:59Z</time></trkpt><trkpt lat="44.17194255152063" lon="9.614318325102081"><ele>7.0</ele><time>2026-05-01T15:15:00Z</time></trkpt><trkpt lat="44.17203352586883" lon="9.614394445949072"><ele>7.0</ele><time>2026-05-01T15:15:02Z</time></trkpt><trkpt lat="44.172093805035054" lon="9.614429681414524"><ele>7.0</ele><time>2026-05-01T15:15:03Z</time></trkpt><trkpt lat="44.17214171982915" lon="9.614498998781702"><ele>7.0</ele><time>2026-05-01T15:15:04Z</time></trkpt><trkpt lat="44.17218522903986" lon="9.614566816179918"><ele>7.0</ele><time>2026-05-01T15:15:05Z</time></trkpt><trkpt lat="44.17223304013311" lon="9.614642949197405"><ele>7.0</ele><time>2026-05-01T15:15:06Z</time></trkpt><trkpt lat="44.17228262978472" lon="9.614709861672331"><ele>6.8</ele><time>2026-05-01T15:15:07Z</time></trkpt><trkpt lat="44.172384243919396" lon="9.614821475964616"><ele>6.6</ele><time>2026-05-01T15:15:09Z</time></trkpt><trkpt lat="44.17249767621038" lon="9.614886675790107"><ele>6.3999999999999995</ele><time>2026-05-01T15:15:11Z</time></trkpt><trkpt lat="44.172559747833915" lon="9.614907036547892"><ele>6.199999999999999</ele><time>2026-05-01T15:15:12Z</time></trkpt><trkpt lat="44.17263036963461" lon="9.614916128703417"><ele>6.0</ele><time>2026-05-01T15:15:13Z</time></trkpt><trkpt lat="44.172712798911135" lon="9.614906491829037"><ele>6.0</ele><time>2026-05-01T15:15:14Z</time></trkpt><trkpt lat="44.17280828029031" lon="9.614883368575367"><ele>6.0</ele><time>2026-05-01T15:15:15Z</time></trkpt><trkpt lat="44.17287684276236" lon="9.614859786667632"><ele>6.0</ele><time>2026-05-01T15:15:16Z</time></trkpt><trkpt lat="44.17294411570762" lon="9.614839712421377"><ele>6.0</ele><time>2026-05-01T15:15:17Z</time></trkpt><trkpt lat="44.17300994202497" lon="9.614821005668837"><ele>6.0</ele><time>2026-05-01T15:15:18Z</time></trkpt><trkpt lat="44.17307988504338" lon="9.614799373355991"><ele>6.0</ele><time>2026-05-01T15:15:19Z</time></trkpt><trkpt lat="44.1732026762978" lon="9.61482689531833"><ele>6.333333333333333</ele><time>2026-05-01T15:15:21Z</time></trkpt><trkpt lat="44.17325643813492" lon="9.614881056401272"><ele>6.666666666666666</ele><time>2026-05-01T15:15:22Z</time></trkpt><trkpt lat="44.17330534187416" lon="9.614997289299634"><ele>7.0</ele><time>2026-05-01T15:15:24Z</time></trkpt><trkpt lat="44.173341791150996" lon="9.615125256554927"><ele>7.333333333333333</ele><time>2026-05-01T15:15:26Z</time></trkpt><trkpt lat="44.17335093959891" lon="9.615226922747434"><ele>7.666666666666666</ele><time>2026-05-01T15:15:27.999Z</time></trkpt><trkpt lat="44.173403444395525" lon="9.615323374245458"><ele>8.0</ele><time>2026-05-01T15:15:40.999Z</time></trkpt><trkpt lat="44.17344342473437" lon="9.615443069895043"><ele>7.999999999999999</ele><time>2026-05-01T15:15:42.999Z</time></trkpt><trkpt lat="44.17347576348399" lon="9.61555075922445"><ele>8.0</ele><time>2026-05-01T15:15:44.999Z</time></trkpt><trkpt lat="44.17351179180378" lon="9.615660761720914"><ele>8.0</ele><time>2026-05-01T15:15:46.999Z</time></trkpt><trkpt lat="44.173559500301785" lon="9.615803615739104"><ele>8.0</ele><time>2026-05-01T15:15:48.999Z</time></trkpt><trkpt lat="44.173592271927745" lon="9.615900280487077"><ele>7.999999999999999</ele><time>2026-05-01T15:15:49.999Z</time></trkpt><trkpt lat="44.17362568376166" lon="9.615994632904963"><ele>8.0</ele><time>2026-05-01T15:15:50.999Z</time></trkpt><trkpt lat="44.17362751124352" lon="9.61610623638626"><ele>8.166666666666666</ele><time>2026-05-01T15:15:51.999Z</time></trkpt><trkpt lat="44.173638368513096" lon="9.616194805350371"><ele>8.333333333333332</ele><time>2026-05-01T15:15:52.999Z</time></trkpt><trkpt lat="44.17364874476413" lon="9.61628976432112"><ele>8.5</ele><time>2026-05-01T15:15:53.999Z</time></trkpt><trkpt lat="44.173658752094184" lon="9.616399062648389"><ele>8.666666666666666</ele><time>2026-05-01T15:15:54.999Z</time></trkpt><trkpt lat="44.17366948713153" lon="9.616516308576735"><ele>8.833333333333334</ele><time>2026-05-01T15:15:55.999Z</time></trkpt><trkpt lat="44.17368094199591" lon="9.616631150954815"><ele>9.0</ele><time>2026-05-01T15:15:56.999Z</time></trkpt><trkpt lat="44.17367553771654" lon="9.616788226997178"><ele>9.0</ele><time>2026-05-01T15:15:57.999Z</time></trkpt><trkpt lat="44.17370545674317" lon="9.616888659077867"><ele>9.0</ele><time>2026-05-01T15:15:58.999Z</time></trkpt><trkpt lat="44.17373051574282" lon="9.616989970134968"><ele>9.0</ele><time>2026-05-01T15:15:59.999Z</time></trkpt><trkpt lat="44.173785104311094" lon="9.617101604643096"><ele>9.0</ele><time>2026-05-01T15:16:00.999Z</time></trkpt><trkpt lat="44.17383582746746" lon="9.61721622637793"><ele>9.0</ele><time>2026-05-01T15:16:01.999Z</time></trkpt><trkpt lat="44.173883893705046" lon="9.617328763663467"><ele>9.0</ele><time>2026-05-01T15:16:02.999Z</time></trkpt><trkpt lat="44.17394065797729" lon="9.617437830290276"><ele>9.166666666666666</ele><time>2026-05-01T15:16:03.999Z</time></trkpt><trkpt lat="44.17397040235036" lon="9.617544753864673"><ele>9.333333333333334</ele><time>2026-05-01T15:16:04.999Z</time></trkpt><trkpt lat="44.174020655197936" lon="9.617621707650233"><ele>9.5</ele><time>2026-05-01T15:16:05.999Z</time></trkpt><trkpt lat="44.174079963306525" lon="9.617704219201665"><ele>9.666666666666668</ele><time>2026-05-01T15:16:06.999Z</time></trkpt><trkpt lat="44.17414253994716" lon="9.617769356413849"><ele>9.833333333333334</ele><time>2026-05-01T15:16:07.999Z</time></trkpt><trkpt lat="44.174230165740475" lon="9.617857116970148"><ele>10.0</ele><time>2026-05-01T15:16:09.999Z</time></trkpt><trkpt lat="44.174326173871535" lon="9.617752934948111"><ele>10.2</ele><time>2026-05-01T15:16:12.999Z</time></trkpt><trkpt lat="44.174369783716756" lon="9.617678801156115"><ele>10.4</ele><time>2026-05-01T15:16:13.999Z</time></trkpt><trkpt lat="44.1744496492961" lon="9.617639045779843"><ele>10.600000000000001</ele><time>2026-05-01T15:16:14.999Z</time></trkpt><trkpt lat="44.17455298723206" lon="9.6175572548195"><ele>10.8</ele><time>2026-05-01T15:16:15.999Z</time></trkpt><trkpt lat="44.17464759125005" lon="9.617464204825735"><ele>11.0</ele><time>2026-05-01T15:16:16.999Z</time></trkpt><trkpt lat="44.17472177924557" lon="9.617358671266913"><ele>11.0</ele><time>2026-05-01T15:16:17.999Z</time></trkpt><trkpt lat="44.17479293691655" lon="9.61724602194286"><ele>11.0</ele><time>2026-05-01T15:16:18.999Z</time></trkpt><trkpt lat="44.17486346556187" lon="9.61714719762677"><ele>11.0</ele><time>2026-05-01T15:16:19.999Z</time></trkpt><trkpt lat="44.174924089653125" lon="9.617059593793966"><ele>11.0</ele><time>2026-05-01T15:16:20.999Z</time></trkpt><trkpt lat="44.174987538703796" lon="9.61696773969596"><ele>11.0</ele><time>2026-05-01T15:16:21.999Z</time></trkpt><trkpt lat="44.17503615839219" lon="9.616882149553682"><ele>13.0</ele><time>2026-05-01T15:16:22.999Z</time></trkpt><trkpt lat="44.17509306633813" lon="9.616819276177448"><ele>13.0</ele><time>2026-05-01T15:16:24.999Z</time></trkpt></trkseg></trk></gpx>